[[{"header":{"parameterUnit":"m.s-1","parameterCategory":1,"la1":30.6,"la2":29.2853,"lo1":-89.7004,"lo2":-87.6739,"dx":0.0162,"dy":0.0183,"nx":112,"ny":82,"refTime":"2023-01-23T06:00:00:Z","depth":0,"parameterNumber":2,"parameterNumberName":"U-component_of_WINDS"},"data":[0.0,0.0,0.0,0.0,0.0,0.0,0.0,0.0,0.0,0.0,0.0,0.0,0.0,0.0,0.0,0.0,0.0,0.0,0.0,0.0,0.0,0.0,0.0,0.0,0.0,0.0,0.0,0.0,0.0,0.0,0.0,0.0,0.0,0.0,0.0,0.0,0.0,0.0,0.0,0.0,0.0,0.0,0.0,0.0,0.0,0.0,0.0,0.0,0.0,0.0,0.0,0.0,0.0,0.0,0.0,0.0,0.0,0.0,0.0,0.0,0.0,0.0,0.0,0.0,0.0,0.0,0.0,0.0,0.0,0.0,0.0,0.0,0.0,0.0,0.0,0.0,0.0,0.0,0.0,0.0,0.0,0.0,0.0,0.0,0.0,0.0,0.0,0.0,0.0,0.0,0.0,2.6934,2.7646,2.7825,2.7184,2.7353,2.7054,2.6096,0.0,0.0,0.0,0.0,0.0,0.0,0.0,0.0,0.0,0.0,0.0,0.0,0.0,0.0,0.0,0.0,0.0,0.0,0.0,0.0,0.0,0.0,0.0,0.0,0.0,0.0,0.0,0.0,0.0,0.0,0.0,0.0,0.0,0.0,0.0,0.0,0.0,0.0,0.0,0.0,0.0,0.0,0.0,0.0,0.0,0.0,0.0,0.0,0.0,0.0,0.0,0.0,0.0,0.0,0.0,0.0,0.0,0.0,0.0,0.0,0.0,0.0,0.0,0.0,0.0,0.0,0.0,0.0,0.0,0.0,0.0,0.0,0.0,0.0,0.0,0.0,0.0,0.0,0.0,0.0,0.0,0.0,0.0,0.0,0.0,0.0,0.0,0.0,0.0,0.0,0.0,0.0,0.0,0.0,0.0,0.0,0.0,0.0,0.0,0.0,0.0,0.0,0.0,0.0,2.7274,2.8066,2.856,2.8803,2.8693,2.868,2.8512,2.8008,0.0,0.0,0.0,0.0,0.0,0.0,0.0,0.0,0.0,0.0,0.0,0.0,0.0,0.0,0.0,0.0,0.0,0.0,0.0,0.0,0.0,0.0,0.0,0.0,0.0,0.0,0.0,0.0,0.0,0.0,0.0,0.0,0.0,0.0,0.0,0.0,0.0,0.0,0.0,0.0,0.0,0.0,0.0,0.0,0.0,0.0,0.0,0.0,0.0,0.0,0.0,0.0,0.0,0.0,0.0,0.0,0.0,0.0,0.0,0.0,0.0,0.0,0.0,0.0,0.0,0.0,0.0,0.0,0.0,0.0,0.0,0.0,0.0,0.0,0.0,0.0,0.0,0.0,0.0,0.0,0.0,0.0,0.0,0.0,0.0,0.0,0.0,0.0,0.0,0.0,0.0,0.0,0.0,0.0,0.0,0.0,0.0,0.0,0.0,0.0,0.0,0.0,0.0,2.7779,2.836,2.8682,2.8905,2.8994,2.8994,2.8994,2.8929,2.8749,2.8057,0.0,0.0,0.0,0.0,0.0,0.0,0.0,0.0,0.0,0.0,0.0,0.0,0.0,0.0,0.0,0.0,0.0,0.0,0.0,0.0,0.0,0.0,0.0,0.0,0.0,0.0,0.0,0.0,0.0,0.0,0.0,0.0,0.0,0.0,0.0,0.0,0.0,0.0,0.0,0.0,0.0,0.0,0.0,0.0,0.0,0.0,0.0,0.0,0.0,0.0,0.0,0.0,0.0,0.0,0.0,0.0,0.0,0.0,0.0,0.0,0.0,0.0,0.0,0.0,0.0,0.0,0.0,0.0,0.0,0.0,0.0,0.0,0.0,0.0,0.0,0.0,0.0,0.0,0.0,0.0,0.0,0.0,0.0,0.0,0.0,0.0,0.0,0.0,0.0,0.0,0.0,0.0,0.0,0.0,0.0,0.0,0.0,0.0,0.0,0.0,0.0,0.0,2.8583,2.8994,2.8994,2.8994,2.8994,2.8994,2.8994,2.8994,2.8994,2.8994,0.0,0.0,0.0,0.0,0.0,0.0,0.0,0.0,0.0,0.0,0.0,0.0,0.0,0.0,0.0,0.0,0.0,0.0,0.0,0.0,0.0,0.0,0.0,0.0,0.0,0.0,0.0,0.0,0.0,0.0,0.0,0.0,0.0,0.0,0.0,0.0,0.0,0.0,0.0,0.0,0.0,0.0,0.0,0.0,0.0,0.0,0.0,0.0,0.0,0.0,0.0,0.0,0.0,0.0,0.0,0.0,0.0,0.0,0.0,0.0,0.0,0.0,0.0,0.0,0.0,0.0,0.0,0.0,0.0,0.0,0.0,0.0,0.0,0.0,0.0,0.0,0.0,0.0,0.0,0.0,0.0,0.0,0.0,0.0,0.0,0.0,0.0,0.0,0.0,0.0,0.0,0.0,0.0,0.0,0.0,0.0,0.0,0.0,0.0,0.0,0.0,0.0,2.8749,2.8994,2.8994,2.8994,2.8994,2.8994,2.8994,2.8994,2.8994,2.8994,0.0,0.0,0.0,0.0,0.0,0.0,0.0,0.0,0.0,0.0,0.0,0.0,0.0,0.0,0.0,0.0,0.0,0.0,0.0,0.0,0.0,0.0,0.0,0.0,0.0,0.0,0.0,0.0,0.0,0.0,0.0,0.0,0.0,0.0,0.0,0.0,0.0,0.0,0.0,0.0,0.0,0.0,0.0,0.0,0.0,0.0,0.0,0.0,0.0,0.0,0.0,0.0,0.0,0.0,0.0,0.0,0.0,0.0,0.0,0.0,0.0,0.0,0.0,0.0,0.0,0.0,0.0,0.0,0.0,0.0,0.0,0.0,0.0,0.0,0.0,0.0,0.0,0.0,0.0,0.0,0.0,0.0,0.0,0.0,0.0,0.0,0.0,0.0,0.0,0.0,0.0,0.0,0.0,0.0,0.0,0.0,0.0,0.0,0.0,0.0,0.0,0.0,2.8749,2.8994,0.0,2.8994,2.8994,2.8994,2.8994,2.8994,2.8994,0.0,0.0,0.0,0.0,0.0,0.0,0.0,0.0,0.0,0.0,0.0,0.0,0.0,0.0,0.0,0.0,0.0,0.0,0.0,0.0,0.0,0.0,0.0,0.0,0.0,0.0,0.0,0.0,0.0,0.0,0.0,0.0,0.0,0.0,0.0,0.0,0.0,0.0,0.0,0.0,0.0,0.0,0.0,0.0,0.0,0.0,0.0,0.0,0.0,0.0,0.0,0.0,0.0,0.0,0.0,0.0,0.0,0.0,0.0,0.0,0.0,0.0,0.0,0.0,0.0,0.0,0.0,0.0,0.0,0.0,0.0,0.0,0.0,0.0,0.0,0.0,0.0,0.0,0.0,0.0,0.0,0.0,0.0,0.0,0.0,0.0,0.0,0.0,0.0,0.0,0.0,0.0,0.0,0.0,0.0,0.0,0.0,0.0,0.0,0.0,0.0,0.0,2.8565,2.8839,2.8994,0.0,2.8994,2.8994,2.8994,2.8994,2.8994,2.8994,0.0,0.0,0.0,0.0,0.0,0.0,0.0,0.0,0.0,0.0,0.0,0.0,0.0,0.0,0.0,0.0,0.0,0.0,0.0,0.0,0.0,0.0,0.0,0.0,0.0,0.0,0.0,0.0,0.0,0.0,0.0,0.0,0.0,0.0,0.0,0.0,0.0,0.0,0.0,0.0,0.0,0.0,0.0,0.0,0.0,0.0,0.0,0.0,0.0,0.0,0.0,0.0,0.0,0.0,0.0,0.0,0.0,0.0,0.0,0.0,0.0,0.0,0.0,0.0,0.0,0.0,0.0,0.0,0.0,0.0,0.0,0.0,0.0,0.0,0.0,0.0,0.0,0.0,0.0,0.0,0.0,0.0,0.0,0.0,0.0,0.0,0.0,0.0,0.0,0.0,0.0,0.0,0.0,0.0,0.0,0.0,0.0,0.0,0.0,0.0,0.0,0.0,2.8952,2.8994,2.8994,2.8994,2.9012,2.9012,2.9012,2.9012,2.9012,0.0,0.0,0.0,0.0,0.0,0.0,0.0,0.0,0.0,0.0,0.0,0.0,0.0,0.0,0.0,0.0,0.0,0.0,0.0,0.0,0.0,0.0,0.0,0.0,0.0,0.0,0.0,0.0,0.0,0.0,0.0,0.0,0.0,0.0,0.0,0.0,0.0,0.0,0.0,0.0,0.0,0.0,0.0,0.0,0.0,0.0,0.0,0.0,0.0,0.0,0.0,0.0,0.0,0.0,0.0,0.0,0.0,0.0,0.0,0.0,0.0,0.0,0.0,0.0,0.0,0.0,0.0,0.0,0.0,0.0,0.0,0.0,0.0,0.0,0.0,0.0,0.0,0.0,0.0,0.0,0.0,0.0,0.0,0.0,0.0,0.0,0.0,0.0,0.0,0.0,0.0,0.0,0.0,0.0,0.0,0.0,0.0,0.0,0.0,0.0,0.0,0.0,0.0,0.0,2.9512,2.9861,2.9861,3.0356,3.0687,3.0687,3.0687,3.0687,3.0687,0.0,0.0,0.0,0.0,0.0,0.0,0.0,0.0,0.0,0.0,0.0,0.0,0.0,0.0,0.0,0.0,0.0,0.0,0.0,0.0,0.0,0.0,0.0,0.0,0.0,0.0,0.0,0.0,0.0,0.0,0.0,0.0,0.0,0.0,0.0,0.0,0.0,0.0,0.0,0.0,0.0,0.0,0.0,0.0,0.0,0.0,0.0,0.0,0.0,0.0,0.0,0.0,0.0,0.0,0.0,0.0,0.0,0.0,0.0,0.0,0.0,0.0,0.0,0.0,0.0,0.0,0.0,0.0,0.0,0.0,0.0,0.0,0.0,0.0,0.0,0.0,0.0,0.0,0.0,0.0,0.0,0.0,0.0,0.0,0.0,0.0,0.0,0.0,0.0,0.0,0.0,0.0,0.0,0.0,0.0,0.0,0.0,0.0,0.0,0.0,0.0,0.0,2.9934,3.0375,3.0687,3.0687,3.1109,3.1384,3.1384,3.1384,3.1458,3.1542,0.0,0.0,0.0,0.0,0.0,0.0,0.0,0.0,0.0,0.0,0.0,0.0,0.0,0.0,0.0,0.0,0.0,0.0,0.0,0.0,0.0,0.0,0.0,0.0,0.0,0.0,0.0,0.0,0.0,0.0,0.0,0.0,0.0,0.0,0.0,0.0,0.0,0.0,0.0,0.0,0.0,0.0,0.0,0.0,0.0,0.0,0.0,0.0,0.0,0.0,0.0,0.0,0.0,0.0,0.0,0.0,0.0,0.0,0.0,0.0,0.0,0.0,0.0,0.0,0.0,0.0,0.0,0.0,0.0,0.0,0.0,0.0,0.0,0.0,0.0,0.0,0.0,0.0,0.0,0.0,0.0,0.0,0.0,0.0,0.0,0.0,0.0,0.0,0.0,0.0,0.0,0.0,0.0,0.0,0.0,0.0,0.0,0.0,0.0,0.0,0.0,0.0,3.1311,3.1458,3.1519,3.1544,3.1618,3.1654,3.1654,3.1704,3.1787,3.2024,0.0,0.0,0.0,0.0,0.0,0.0,0.0,0.0,0.0,0.0,0.0,0.0,0.0,0.0,0.0,0.0,0.0,0.0,0.0,0.0,0.0,0.0,0.0,0.0,0.0,0.0,0.0,0.0,0.0,0.0,0.0,0.0,0.0,0.0,0.0,0.0,0.0,0.0,0.0,0.0,0.0,0.0,0.0,0.0,0.0,0.0,0.0,0.0,0.0,0.0,0.0,0.0,0.0,0.0,0.0,0.0,0.0,0.0,0.0,0.0,2.6447,0.0,0.0,0.0,0.0,0.0,0.0,0.0,0.0,0.0,0.0,0.0,0.0,0.0,0.0,0.0,0.0,0.0,0.0,0.0,0.0,0.0,0.0,0.0,0.0,0.0,0.0,0.0,0.0,0.0,0.0,0.0,0.0,0.0,0.0,0.0,0.0,0.0,0.0,0.0,0.0,0.0,3.1366,3.1953,3.2422,3.2651,3.3213,3.3603,3.3603,3.3852,3.3918,3.3701,0.0,0.0,0.0,0.0,0.0,0.0,0.0,0.0,0.0,0.0,0.0,0.0,0.0,0.0,0.0,0.0,0.0,0.0,0.0,0.0,0.0,0.0,0.0,0.0,0.0,0.0,0.0,0.0,0.0,0.0,0.0,0.0,0.0,0.0,0.0,0.0,0.0,0.0,0.0,0.0,0.0,0.0,0.0,0.0,0.0,0.0,0.0,0.0,0.0,0.0,0.0,0.0,0.0,0.0,0.0,0.0,0.0,0.0,0.0,0.0,0.0,2.6612,0.0,0.0,0.0,0.0,0.0,0.0,0.0,0.0,0.0,0.0,0.0,0.0,0.0,0.0,0.0,0.0,0.0,0.0,0.0,0.0,0.0,0.0,0.0,0.0,0.0,0.0,0.0,0.0,0.0,0.0,0.0,0.0,0.0,0.0,0.0,0.0,0.0,0.0,0.0,0.0,3.2504,3.3043,3.3414,3.3562,3.4095,3.4423,3.4423,3.4593,3.4694,3.4636,3.4241,0.0,0.0,0.0,0.0,0.0,0.0,0.0,0.0,0.0,0.0,0.0,0.0,0.0,0.0,0.0,0.0,0.0,0.0,0.0,0.0,0.0,0.0,0.0,0.0,0.0,0.0,0.0,0.0,0.0,0.0,0.0,0.0,0.0,0.0,0.0,0.0,0.0,0.0,0.0,0.0,0.0,0.0,0.0,0.0,0.0,0.0,0.0,0.0,0.0,0.0,0.0,0.0,0.0,0.0,2.8994,2.8994,2.8994,2.8994,2.892,2.7603,2.7034,2.7034,0.0,0.0,0.0,0.0,0.0,0.0,0.0,0.0,0.0,0.0,0.0,0.0,0.0,0.0,0.0,0.0,0.0,0.0,0.0,0.0,0.0,0.0,0.0,0.0,0.0,3.0582,3.0448,0.0,0.0,0.0,0.0,0.0,0.0,0.0,0.0,0.0,0.0,0.0,0.0,3.3854,3.4093,3.4246,3.4338,3.4614,3.4754,3.4754,3.4813,3.4926,3.5088,3.4944,3.4944,0.0,0.0,0.0,0.0,0.0,0.0,0.0,0.0,0.0,0.0,0.0,0.0,0.0,0.0,0.0,0.0,0.0,0.0,0.0,0.0,0.0,0.0,0.0,0.0,0.0,0.0,0.0,0.0,0.0,0.0,0.0,0.0,2.5953,2.6015,0.0,0.0,0.0,0.0,0.0,0.0,0.0,0.0,0.0,0.0,0.0,0.0,0.0,0.0,2.8851,2.8938,2.8994,2.8994,2.8994,2.8994,2.8994,2.8994,2.8994,2.8975,2.8773,0.0,2.8663,2.8663,0.0,0.0,0.0,0.0,0.0,0.0,0.0,0.0,0.0,0.0,0.0,0.0,0.0,0.0,0.0,0.0,0.0,0.0,0.0,0.0,0.0,0.0,3.1134,3.125,3.1287,3.1421,0.0,3.1733,3.1256,3.1366,0.0,0.0,0.0,0.0,0.0,0.0,0.0,0.0,3.4508,3.4357,3.4405,3.4925,3.5016,3.5053,3.5053,3.5273,3.5304,3.5105,3.5289,3.5417,3.5446,3.5223,0.0,0.0,0.0,0.0,0.0,0.0,0.0,0.0,0.0,0.0,0.0,0.0,0.0,0.0,0.0,0.0,0.0,0.0,0.0,0.0,0.0,0.0,0.0,0.0,0.0,0.0,0.0,0.0,0.0,2.6822,2.7205,2.7679,2.7867,2.7948,0.0,0.0,0.0,0.0,0.0,0.0,0.0,0.0,0.0,2.8994,2.8994,2.9237,2.9677,2.9677,2.9898,3.0356,3.0356,3.0356,3.0356,3.0356,3.0356,3.0356,3.0356,3.0438,3.0487,2.9595,2.9225,2.9225,0.0,0.0,0.0,0.0,0.0,2.9225,2.9225,0.0,0.0,0.0,0.0,0.0,0.0,0.0,0.0,0.0,0.0,0.0,0.0,0.0,0.0,3.2572,3.2625,3.2761,3.3598,3.3504,3.3198,0.0,3.2988,3.3147,3.3682,0.0,0.0,0.0,0.0,0.0,3.4653,3.4695,3.4813,3.5088,3.5223,3.532,3.532,3.5432,3.5446,3.532,3.5432,3.5493,3.5493,3.5383,3.5239,0.0,0.0,0.0,0.0,0.0,0.0,0.0,0.0,0.0,0.0,0.0,0.0,0.0,0.0,0.0,0.0,0.0,0.0,0.0,0.0,0.0,0.0,0.0,0.0,0.0,0.0,0.0,0.0,2.8117,2.8338,2.892,2.8994,2.8994,0.0,0.0,0.0,0.0,0.0,0.0,2.8994,2.9195,2.9329,2.9329,2.9512,2.9898,3.0503,3.0503,3.0797,3.1384,3.1384,3.1384,3.1384,3.1384,3.1384,3.1384,3.1464,3.1617,3.171,3.0514,3.0049,3.0131,3.0282,3.0336,3.0336,3.0336,3.0208,3.0008,3.0008,2.9835,2.9622,2.9622,0.0,3.0503,3.0503,0.0,0.0,0.0,0.0,3.2061,3.2672,0.0,3.2779,3.3788,3.3884,3.3903,3.4562,3.4694,3.4632,0.0,3.4334,3.4401,3.4653,0.0,0.0,0.0,0.0,3.5056,3.5192,3.5511,3.5787,3.5837,3.6017,3.6142,3.6142,3.6142,3.6142,3.6142,3.6142,3.6142,3.6142,3.6142,3.6051,0.0,0.0,0.0,0.0,0.0,0.0,0.0,0.0,0.0,0.0,0.0,0.0,0.0,0.0,0.0,0.0,0.0,0.0,0.0,0.0,0.0,0.0,0.0,0.0,0.0,0.0,0.0,0.0,0.0,0.0,2.8994,2.8994,0.0,0.0,0.0,0.0,2.8994,2.8994,2.8994,2.8994,2.9732,3.0136,3.0136,3.087,3.1292,3.1329,3.1329,3.1347,3.1384,3.1384,3.1384,3.1384,3.1384,3.1384,3.1409,3.1685,3.1781,3.1803,3.1728,3.1839,3.2052,3.2071,3.2071,3.2071,3.2071,3.1919,3.1691,3.1691,3.1487,3.1274,3.1274,3.1311,3.1329,3.1329,3.1552,0.0,0.0,3.3093,3.3505,3.4354,3.4562,3.4561,3.4639,3.4637,3.4656,3.4694,3.4694,3.4713,0.0,3.4674,3.4674,3.4694,0.0,3.4793,3.5034,3.5515,3.6008,3.6531,3.7111,3.7575,3.7824,3.7873,3.7873,3.7873,3.7873,3.7873,3.7873,3.7873,3.7873,3.7873,3.7873,3.7873,3.7858,3.7873,0.0,0.0,0.0,0.0,0.0,0.0,0.0,0.0,0.0,0.0,0.0,0.0,0.0,0.0,0.0,0.0,0.0,0.0,0.0,0.0,0.0,0.0,0.0,0.0,0.0,0.0,0.0,0.0,2.8994,2.8994,0.0,0.0,2.9475,2.9769,2.9769,3.0246,3.054,3.054,3.0815,3.0962,3.0962,3.1751,3.2412,3.2944,3.3458,3.4009,3.4559,3.4733,3.4797,3.4816,3.5044,3.5136,3.5136,3.5227,3.5375,3.5496,3.4927,3.3807,3.2466,3.2611,3.2656,3.2656,3.2656,3.2515,3.2295,3.2128,3.1885,3.1737,3.2252,3.2418,3.2576,3.3302,3.3583,3.3742,3.4003,3.4162,3.4357,3.4831,3.4963,3.4999,3.5155,3.5207,3.5376,3.5892,3.5987,3.616,3.6714,3.5812,3.5188,3.5859,3.5987,3.6211,3.6868,3.7127,3.7316,3.7512,3.7717,3.7894,3.7988,3.8007,3.8007,3.8007,3.8007,3.8007,3.8007,3.8007,3.8007,3.8007,3.8007,3.8007,3.8007,3.8007,3.8007,0.0,0.0,0.0,0.0,0.0,0.0,0.0,0.0,0.0,0.0,0.0,0.0,0.0,0.0,0.0,0.0,0.0,0.0,0.0,0.0,0.0,0.0,0.0,0.0,0.0,0.0,2.9085,2.9384,2.9402,2.9512,2.9787,3.0283,3.0595,3.0595,3.1091,3.1513,3.1788,3.2045,3.232,3.2614,3.3421,3.41,3.4633,3.5183,3.5734,3.6285,3.6463,3.6578,3.6578,3.6897,3.7039,3.7039,3.7234,3.7433,3.7562,3.7077,3.5905,3.437,3.3947,3.3776,3.3776,3.3776,3.3647,3.341,3.3147,3.2935,3.2866,3.3387,3.3574,3.3711,3.4463,3.4754,3.4889,3.5154,3.5287,3.5492,3.5971,3.608,3.6112,3.6306,3.6353,3.6488,3.7026,3.7142,3.7315,3.7892,3.6961,3.63,3.7017,3.7142,3.7334,3.7911,3.8257,3.843,3.843,3.8681,3.8834,3.8834,3.8834,3.8834,3.8834,3.8834,3.8834,3.8834,3.8834,3.8834,3.8834,3.8834,3.8834,3.8834,3.8834,3.87,3.843,0.0,0.0,0.0,0.0,0.0,0.0,0.0,0.0,0.0,0.0,0.0,0.0,0.0,0.0,0.0,0.0,0.0,0.0,0.0,0.0,0.0,0.0,0.0,2.903,2.903,2.9347,3.0136,3.0246,3.054,3.1311,3.1403,3.1439,3.1458,3.1494,3.1861,3.2687,3.3458,3.4247,3.5009,3.5881,3.634,3.634,3.6358,3.6376,3.6376,3.6387,3.6387,3.6387,3.6686,3.6802,3.6851,3.7432,3.7696,3.7714,3.7932,3.8046,3.7873,3.6219,3.5584,3.5584,3.5584,3.5415,3.5147,3.4869,3.4788,3.4769,3.479,3.479,3.479,3.479,3.4983,3.535,3.6133,3.653,3.6949,3.7777,3.8007,3.8007,3.8007,3.8007,3.8007,3.8027,3.8046,3.8046,3.8065,3.8084,3.8065,3.8046,3.8046,3.8046,3.8065,3.8796,0.0,3.9335,4.0008,4.0489,4.0489,4.0489,4.0489,4.0489,4.0489,4.0489,4.0489,4.0489,4.0489,4.0489,4.0489,4.0489,4.0489,4.0489,4.0104,3.9335,0.0,0.0,0.0,0.0,0.0,0.0,0.0,0.0,0.0,0.0,0.0,0.0,0.0,0.0,0.0,0.0,0.0,0.0,0.0,0.0,0.0,0.0,2.9879,2.9879,2.9879,3.0173,3.0962,3.1072,3.1146,3.1366,3.1935,3.2504,3.3091,3.3678,3.4394,3.5238,3.5495,3.5716,3.5936,3.6725,3.7165,3.7165,3.7753,3.8046,3.8046,3.8229,3.8331,3.8358,3.8916,3.9176,3.9197,3.9541,3.9714,3.9657,3.9146,3.8931,3.8834,3.7738,3.7315,3.7315,3.7315,3.7137,3.6915,3.6824,3.6672,3.6551,3.6749,3.6805,3.6842,3.7037,3.7137,3.726,3.7471,3.7578,3.77,3.793,3.8007,3.8007,3.8007,3.8007,3.8161,3.8815,3.8931,3.9123,3.97,3.9796,3.9623,3.9027,3.8931,3.9142,3.9719,0.0,0.0,4.0162,4.0354,4.0489,4.0489,4.0489,4.0489,4.0489,4.0489,4.0489,0.0,4.0489,4.0489,4.0489,4.0489,4.0489,4.0489,4.0489,4.0392,0.0,0.0,0.0,0.0,0.0,0.0,0.0,0.0,0.0,0.0,0.0,0.0,0.0,0.0,0.0,0.0,0.0,0.0,0.0,0.0,0.0,0.0,3.0788,3.0946,3.1189,3.0925,3.0999,3.1806,3.2192,3.254,3.2889,3.3781,3.4444,3.4825,3.5376,3.603,3.6772,3.6798,3.6945,3.7294,3.7753,3.7991,3.7991,3.8469,3.8707,3.8707,3.8855,3.8933,3.8961,3.9595,3.9901,0.0,4.0319,4.0489,4.045,3.9988,3.9796,0.0,0.0,0.0,0.0,0.0,3.7894,3.7759,3.7759,3.7672,3.7564,3.7725,3.7759,3.7811,3.7959,3.8007,3.8084,3.843,3.8546,3.8623,3.895,3.9046,3.9046,3.9046,3.9046,3.9181,3.9681,3.9796,3.9931,4.0412,0.0,0.0,3.9873,3.9796,3.995,4.0431,4.0489,4.0489,0.0,4.0489,4.0489,4.0489,4.0489,4.0489,4.0489,4.0489,0.0,0.0,0.0,4.0489,4.0489,4.0489,0.0,0.0,0.0,4.0489,0.0,0.0,0.0,0.0,3.9565,3.9796,0.0,0.0,0.0,0.0,0.0,0.0,0.0,0.0,0.0,0.0,0.0,0.0,0.0,0.0,0.0,0.0,3.1815,3.2166,3.2748,3.2249,3.2114,3.2797,3.3513,3.4274,3.511,3.6114,3.6649,3.6565,3.676,3.7147,3.7708,0.0,0.0,0.0,0.0,3.878,3.8707,3.8719,3.875,3.875,3.875,3.8762,3.8822,3.9402,3.9645,3.969,4.0248,4.0489,4.0489,4.0489,4.0489,4.0335,3.8854,3.8277,3.8277,3.8277,3.8277,0.0,0.0,0.0,0.0,3.8277,3.8277,3.8277,3.8277,3.8277,3.843,3.9219,3.9431,3.9604,4.0296,4.0489,4.0489,4.0489,4.0489,4.0489,4.0489,4.0489,4.0489,4.0489,4.0489,4.0489,4.0489,4.0489,4.0489,4.0489,4.0489,0.0,4.0489,4.0489,4.0489,4.0489,0.0,0.0,4.0489,4.0489,4.0489,4.0489,4.0489,4.0489,4.0489,4.0489,4.0489,4.0489,4.0489,4.0489,4.0489,4.0489,4.0489,4.0489,4.0489,4.0489,0.0,0.0,0.0,0.0,0.0,0.0,0.0,0.0,0.0,0.0,0.0,0.0,0.0,0.0,0.0,3.2581,3.2924,3.3371,3.4191,3.4531,3.4654,3.4568,3.466,3.5183,3.6278,3.6559,3.7057,3.793,3.8056,3.8395,3.9151,3.9207,0.0,3.9036,3.9282,3.9189,3.8707,3.8923,3.9008,3.9008,0.0,0.0,3.9451,3.9838,4.0002,4.0022,4.0356,4.0489,4.0489,4.0489,4.0489,4.0469,4.0142,4.0008,4.0008,4.0008,4.0008,4.0008,4.0008,4.0008,4.0008,4.0008,4.0008,4.0008,4.0008,4.0008,0.0,4.0219,4.0258,4.0296,4.045,4.0489,4.0489,4.0489,4.0489,4.0489,4.0489,4.0489,4.0489,4.0489,4.0489,4.0489,4.0489,4.0489,4.0489,4.0489,4.0489,4.0489,4.0489,4.0489,4.0489,4.0489,4.0489,4.0489,4.0489,4.0489,4.0489,4.0489,4.0489,4.0489,4.0489,4.0489,4.0489,4.0489,4.0489,4.0489,4.0489,4.0489,4.0489,4.0489,4.0489,4.0489,0.0,0.0,0.0,0.0,0.0,0.0,0.0,0.0,0.0,0.0,0.0,3.204,0.0,0.0,3.3379,3.3789,3.4073,3.451,3.5206,3.5637,3.5776,3.5496,3.604,3.6742,3.7483,3.806,3.8565,3.898,3.9169,3.934,3.9603,3.9599,3.951,3.9339,3.951,3.9476,3.9154,3.9282,3.9339,3.9339,3.9339,3.9438,3.9622,3.9962,4.0101,4.012,4.0372,4.0489,4.0489,4.0489,4.0489,4.0489,4.0489,4.0489,4.0489,4.0489,4.0489,4.0489,4.0489,4.0489,4.0489,4.0489,4.0489,4.0489,4.0489,4.0489,4.0489,4.0489,4.0489,4.0489,4.0489,4.0489,4.0489,4.0489,4.0489,4.0489,4.0489,4.0489,4.0489,4.0489,4.0489,4.0489,4.0489,4.0489,4.0489,4.0489,4.0489,4.0489,4.0489,4.0489,4.0489,4.0489,4.0489,4.0489,4.0489,4.0489,4.0489,4.0489,4.0489,4.0489,4.0489,4.0489,4.0489,4.0489,4.0489,4.0489,4.0489,4.0489,4.0489,4.0489,4.0489,4.0489,0.0,0.0,0.0,0.0,0.0,0.0,0.0,0.0,3.2166,3.2117,3.2802,3.3391,3.3328,3.412,3.4793,3.4793,3.5132,3.5562,3.5989,3.6463,3.6747,3.6577,3.7408,3.8196,3.8666,3.9562,4.0022,3.98,4.0023,4.0062,3.98,3.9778,3.9757,3.969,3.9757,3.9712,3.9599,3.9668,3.9709,3.9709,3.9709,3.9712,3.9778,4.0043,4.0177,4.0195,4.0425,4.0489,4.0489,4.0489,4.0489,4.0489,4.0489,4.0489,4.0489,4.0489,4.0489,4.0489,4.0489,4.0489,4.0489,4.0489,4.0489,4.0489,4.0489,4.0489,4.0489,4.0489,4.0489,4.0489,4.0489,4.0489,4.0489,4.0489,4.0489,4.0489,4.0489,4.0489,4.0489,4.0489,4.0489,4.0489,4.0489,4.0489,4.0489,4.0489,4.0489,4.0489,4.0489,4.0489,4.0489,4.0489,4.0489,4.0489,4.0489,4.0489,4.0489,4.0489,4.0489,4.0489,4.0489,4.0489,4.0489,4.0489,4.0489,4.0489,4.0489,4.0489,4.0585,4.0739,4.0739,4.0662,0.0,0.0,0.0,3.0823,3.1056,3.1255,0.0,0.0,3.2374,3.309,3.3316,3.3617,3.437,3.4813,3.507,3.507,3.5883,3.6541,3.6603,3.7708,3.8611,3.8892,3.8574,3.8764,3.9813,4.0024,4.0177,4.037,4.0422,4.0457,4.0406,4.0406,4.0285,4.0042,4.0285,4.0138,3.9599,3.9901,4.0042,4.0042,4.0042,4.0177,4.0406,4.0441,4.0457,4.0457,4.0489,4.0489,4.0489,4.0489,4.0489,4.0489,4.0489,4.0489,4.0489,4.0489,4.0489,4.0489,4.0489,4.0489,4.0489,4.0489,4.0489,4.0489,4.0489,4.0489,4.0489,4.0489,4.0489,4.0489,4.0489,4.0489,4.0489,4.0489,4.0489,4.0489,4.0489,4.0489,4.0489,4.0489,4.0489,4.0489,4.0489,4.0489,4.0489,4.0489,4.0489,4.0489,4.0489,4.0489,4.0489,4.0489,4.0489,4.0489,4.0489,4.0489,4.0489,4.0489,4.0489,4.0489,4.0489,4.0489,4.0489,4.0489,4.0489,4.0489,4.0489,4.0489,4.0893,4.1662,4.1662,4.1239,3.0014,0.0,0.0,0.0,3.2536,3.2936,3.3233,3.3589,3.394,3.4111,3.4283,3.4508,3.4869,3.5138,3.5492,0.0,3.6411,3.7046,3.8065,3.8719,3.9317,3.9931,3.9785,3.9812,4.0283,4.0339,4.0372,4.0489,4.0489,4.0489,4.0489,4.0489,4.0457,4.0339,4.0441,4.037,4.0138,4.0267,4.0339,4.0339,4.0339,4.0389,4.0489,4.0489,4.0489,4.0489,4.0489,4.0489,4.0489,4.0489,4.0489,4.0489,4.0489,4.0489,4.0489,4.0489,4.0489,4.0489,4.0489,4.0489,4.0489,4.0489,4.0489,4.0489,4.0489,4.0489,4.0489,4.0489,4.0489,4.0489,4.0489,4.0489,4.0489,4.0489,4.0489,4.0489,4.0489,4.0489,4.0489,4.0489,4.0912,4.1258,4.1258,4.1681,4.2008,4.2008,4.1143,4.0681,4.1181,4.1258,4.145,4.195,4.2008,4.2008,4.2008,4.2008,4.2008,4.2008,4.2008,4.2008,4.2008,4.2008,4.2008,4.2008,4.2043,4.2079,4.2079,4.2079,4.2255,4.2601,4.2566,4.2354,3.1073,0.0,0.0,3.3081,3.3718,3.4211,3.4259,3.4699,3.507,3.4944,3.5035,3.5122,3.5207,3.5369,0.0,3.6584,3.6911,3.7584,3.9084,3.9488,3.9835,4.0431,4.0489,4.0489,4.0489,4.0489,4.0489,4.0489,4.0489,4.0489,4.0489,4.0489,4.0489,4.0489,4.0489,4.0489,4.0489,4.0489,4.0489,4.0489,4.0489,4.0489,4.0489,4.0489,4.0489,4.0489,4.0489,4.0489,4.0489,4.0489,4.0489,4.0489,4.0489,4.0489,4.0489,4.0489,4.0489,4.0489,4.0489,4.0489,4.0489,4.0489,4.0489,4.0489,4.0489,4.0489,4.0489,4.0489,4.0489,4.0489,4.0489,4.0489,4.0489,4.0489,4.0489,4.0566,4.0796,4.0854,4.0931,4.1162,4.1739,4.2162,4.2162,4.2681,4.3104,4.3104,4.2027,4.145,4.2085,4.2162,4.2412,4.3028,4.3104,4.3104,4.3104,4.3104,4.3104,4.3104,4.3104,4.3104,4.3104,4.3104,4.3104,4.3104,4.3159,4.3195,4.3195,4.3196,4.3316,4.3561,4.3467,4.3566,0.0,0.0,3.2521,3.3829,3.418,3.441,3.5262,3.527,3.5174,3.5432,3.5273,3.519,3.5446,3.5493,3.5776,3.6584,3.7411,3.8277,3.9161,3.9969,4.0469,4.0489,4.0489,4.0489,0.0,4.0489,4.0489,4.0489,4.0489,4.0489,4.0489,4.0489,4.0489,4.0489,4.0489,4.0489,4.0489,4.0489,4.0489,4.0489,4.0489,4.0489,4.0489,4.0489,4.0489,4.0489,4.0489,4.0489,4.0489,4.0489,4.0489,4.0489,4.0489,4.0489,4.0489,4.0489,4.0489,4.0489,4.0489,4.0489,4.0489,4.0489,4.0489,4.0489,4.0489,4.0489,4.0489,4.0489,4.0489,4.0489,4.0489,4.0489,4.0489,4.0489,4.0489,4.0719,4.1585,4.1758,4.2008,4.2854,4.3047,4.3066,4.3066,4.3085,4.3104,4.3104,4.3047,4.3028,4.3066,4.3066,4.3066,4.3104,4.3104,4.3104,4.3104,4.3104,4.3104,4.3104,4.3104,4.3104,4.3104,4.3104,4.3104,4.3104,4.3159,4.3195,4.3195,4.3195,4.3628,4.4449,4.4333,4.472,0.0,0.0,3.4055,3.4851,3.5064,3.5081,3.5197,3.5155,3.5122,3.5223,3.5155,3.519,3.5446,3.5493,3.5949,3.7334,3.7815,3.8488,3.9892,4.0315,4.0489,4.0489,4.0489,0.0,0.0,0.0,0.0,4.0489,4.0489,4.0489,4.0489,4.0489,4.0489,4.0489,4.0489,4.0489,4.0489,4.0489,4.0489,4.0489,4.0489,4.0489,4.0489,4.0489,4.0489,4.0489,4.0489,4.0835,4.1354,4.1354,4.17,4.222,4.222,4.222,4.222,4.222,4.222,4.2066,4.0893,4.0489,4.0489,4.0489,4.0489,4.0489,4.0489,4.0489,4.0623,4.12,4.1354,4.1508,4.2066,4.222,4.222,4.222,4.222,4.2316,4.2604,4.2662,4.2758,4.3047,4.3528,4.3893,4.3893,4.4374,4.4759,4.4759,4.4259,4.3893,4.3893,4.4393,4.4759,4.4759,4.4759,4.4759,4.4759,4.4759,4.4759,4.4759,4.4759,4.4759,4.4759,4.4836,4.4874,4.4874,4.5045,4.512,4.512,4.5118,4.5265,4.5545,4.5391,4.5449,0.0,3.4339,3.4944,3.5383,3.5493,3.5446,3.5289,3.5239,3.5239,3.5239,3.5239,3.5289,3.5479,3.5493,3.6065,3.7738,3.8007,3.8584,4.0258,4.0489,4.0489,4.0489,4.0489,0.0,0.0,0.0,0.0,4.0489,4.0489,4.0489,4.0489,4.0489,4.0489,4.0489,4.0489,4.0489,4.0489,4.0489,4.0662,4.095,4.095,4.1123,4.1431,4.1431,4.1431,4.1431,4.1431,4.1739,4.2258,4.2258,4.2585,4.3104,4.3104,4.3104,4.3104,4.3104,4.3104,4.2931,4.1816,4.1431,4.1431,4.1431,4.1431,4.1431,4.1431,4.1431,4.1546,4.2104,4.2258,4.2393,4.2951,4.3104,4.3104,4.3104,4.3104,4.3181,4.347,4.3528,4.3624,4.3932,4.4412,4.4759,4.4759,4.522,4.5586,4.5586,4.5124,4.4759,4.4759,4.524,4.5586,4.5586,4.5586,4.5586,4.5586,4.5586,4.5586,4.5586,4.5586,4.5605,4.568,4.5757,4.5806,4.5844,4.6015,4.6103,4.6084,4.6098,4.6097,4.61,4.5918,4.5847,3.4593,3.4908,3.5155,3.5432,3.5493,3.5493,3.5493,3.5493,3.5493,3.5493,3.5493,3.5493,0.0,0.0,3.6065,3.7738,3.8007,3.8584,4.0258,4.0489,4.0489,0.0,0.0,0.0,0.0,0.0,0.0,4.0489,0.0,4.0489,4.0489,4.0489,4.0489,4.0489,4.0489,4.0508,4.0566,4.0604,4.1046,4.1873,4.1873,4.2297,4.3104,4.3104,4.3104,4.3104,4.3104,4.3124,4.3162,4.3162,4.3181,4.322,4.322,4.322,4.322,4.322,4.322,4.322,4.322,4.3162,4.3104,4.3104,4.3104,4.3104,4.3104,4.3104,4.3104,4.3143,4.3162,4.3162,4.322,4.322,4.322,4.322,4.322,4.3431,4.4201,4.4374,4.4605,4.5432,4.5586,4.5586,4.5586,4.5586,4.5586,4.5586,4.5586,4.5586,4.5586,4.5586,4.5586,4.5586,4.5586,4.5586,4.5586,4.5605,4.5605,4.5605,4.5605,4.568,4.5796,4.5815,4.5838,4.592,4.6032,4.6133,4.6172,4.6181,4.6191,4.623,4.6117,4.6042,3.4674,3.4908,3.5155,3.5432,3.5493,3.5493,3.5493,3.5493,3.5493,3.5493,3.5493,3.5493,0.0,0.0,0.0,3.7738,3.8007,0.0,4.0258,4.0489,0.0,0.0,0.0,4.0489,4.0489,4.0489,0.0,0.0,4.0489,4.0489,4.0489,4.0489,4.0489,4.0489,4.0489,4.0796,4.147,4.2104,4.2547,4.2777,4.2777,4.2874,4.3104,4.3104,4.3104,4.3104,4.3104,4.3431,4.3989,4.3989,4.4374,4.4951,4.4951,4.4951,4.4951,4.4951,4.4951,4.4951,4.4951,4.4143,4.3104,4.3104,4.3104,4.3104,4.3104,4.3104,4.322,4.3835,4.3989,4.4143,4.4778,4.4951,4.4951,4.4951,4.4951,4.5009,4.522,4.5259,4.5316,4.5547,4.5586,4.5586,4.5586,4.5586,4.5586,4.5586,4.5586,4.5586,4.5586,4.5586,4.5586,4.5586,4.5586,4.5586,4.5586,4.5699,4.5757,4.5757,4.5796,4.5834,4.5873,4.5969,4.602,4.6055,4.6177,4.6577,4.7221,4.7222,4.7558,4.8183,4.8041,4.7988,3.4889,3.507,3.5304,3.546,3.5493,3.5493,3.5493,3.5493,3.5493,3.5493,3.5493,0.0,0.0,0.0,0.0,0.0,0.0,0.0,4.0258,4.0489,4.0489,0.0,4.0489,0.0,4.0489,4.0489,4.0489,0.0,4.0489,4.0489,4.0489,4.0489,4.0489,4.0489,4.0873,4.1489,4.2354,4.2854,4.3278,4.3624,4.3624,4.3835,4.4201,4.4201,4.4201,4.4201,0.0,4.4451,4.4874,4.4874,4.5163,4.5586,4.5586,4.5586,4.5586,4.5586,4.5586,4.5586,4.5586,4.497,4.4201,4.4201,4.4201,4.4201,4.4201,4.4201,4.4278,4.4739,4.4874,4.497,4.547,4.5586,4.5586,4.5586,4.5586,4.5586,4.5586,4.5586,4.5586,4.5586,4.5586,4.572,4.6105,4.6163,4.6297,4.6644,4.6701,4.6701,4.6701,4.6394,4.6163,4.6163,4.649,4.6721,4.6777,4.6854,4.6921,4.6983,4.7022,4.7081,4.712,4.7197,4.7279,4.732,4.7396,4.7676,4.8164,4.8164,4.8418,4.8906,4.8828,4.8789,3.5105,3.5289,3.5493,3.5493,3.5493,3.5493,3.5493,3.5493,3.5493,3.5493,0.0,0.0,3.5493,0.0,3.6065,3.7738,0.0,3.8584,4.0258,4.0489,4.0489,4.0489,4.0489,4.0489,4.0489,4.0489,4.0489,4.0489,4.0489,4.0489,4.0489,4.0489,4.0546,4.0662,4.1623,4.2489,4.3258,4.3374,4.3778,4.447,4.447,4.4874,4.5586,4.5586,4.5586,4.5586,0.0,0.0,4.5586,4.5586,4.5586,4.5586,4.5586,4.5586,4.5586,4.5586,4.5586,4.5586,4.5586,4.5586,4.5586,4.5586,4.5586,4.5586,4.5586,4.5586,4.5586,4.5586,4.5586,4.5586,4.5586,4.5586,4.5586,4.5586,4.5586,4.5586,4.5586,4.5682,4.5759,4.5759,4.5855,4.6163,4.6932,4.7067,4.7298,4.799,4.8105,4.8105,4.8105,4.749,4.7067,4.7067,4.7682,4.8144,4.8296,4.8311,4.8392,4.8525,4.8541,4.8623,4.872,4.8725,4.8778,4.8906,4.8906,4.8965,4.9062,4.9062,4.9121,4.9238,4.9238,4.9238,3.5155,3.5289,3.5493,3.5493,3.5493,3.5493,3.5493,3.5493,0.0,0.0,0.0,3.5493,3.5493,0.0,0.0,3.7738,0.0,0.0,0.0,0.0,0.0,0.0,0.0,0.0,0.0,0.0,0.0,0.0,0.0,0.0,4.0489,4.0489,4.0835,4.1546,4.3066,4.3932,4.4085,4.4797,4.524,4.5355,4.5355,4.5451,4.5586,4.5586,4.5586,4.5586,0.0,0.0,4.5586,4.5586,4.5586,4.5586,4.5586,4.5586,4.5586,4.5586,4.5586,4.5586,4.5586,4.5586,4.5586,4.5586,4.5586,4.5586,4.5586,4.5586,4.5586,4.5586,4.5586,4.5586,4.5586,4.5586,4.5586,4.5586,4.5586,4.5586,4.5586,4.6163,4.6682,4.6682,4.7221,4.7721,4.7875,4.7894,4.7952,4.8086,4.8105,4.8105,4.8105,4.799,4.7894,4.7894,4.8029,4.8144,4.8296,4.8399,4.8514,4.8674,4.8762,4.884,4.8867,4.8867,4.8877,4.8906,4.8906,4.9258,4.9961,4.9961,5.0312,5.0976,5.0976,5.0976,3.5335,3.5398,3.5493,3.5493,3.5493,3.5493,3.5493,0.0,0.0,0.0,0.0,0.0,3.5493,0.0,0.0,0.0,0.0,0.0,0.0,0.0,0.0,0.0,0.0,0.0,0.0,0.0,0.0,0.0,0.0,0.0,4.0489,4.0931,4.1777,4.3066,4.3874,4.4509,4.497,4.5393,4.5586,4.5586,4.5586,4.5586,4.5586,4.5586,4.5586,4.5586,4.5586,0.0,4.5586,4.5586,4.5586,4.5586,4.5586,4.5586,4.5586,4.5586,4.5586,4.5586,4.5586,4.5586,4.5586,4.5586,4.5586,4.5586,4.5586,4.5586,4.5586,4.5586,4.5586,4.5586,4.5586,4.5586,4.5586,4.5586,4.5951,4.6394,4.6817,4.724,4.7528,4.7528,4.7836,4.824,4.8702,4.8779,4.8933,4.9375,4.9452,4.9452,4.9452,4.9452,4.9279,4.8817,4.924,4.9625,4.974,4.9853,4.9957,5.0099,5.0175,5.0195,5.0195,5.0195,5.0195,5.0195,5.0195,5.041,5.082,5.082,5.1016,5.1406,5.1406,5.1406,3.5493,3.5493,3.5493,3.5493,3.5493,3.5493,3.5493,3.5493,0.0,0.0,0.0,0.0,0.0,0.0,0.0,0.0,0.0,0.0,0.0,0.0,0.0,0.0,0.0,0.0,0.0,0.0,0.0,0.0,0.0,0.0,4.0777,4.1777,4.2951,4.4259,4.447,4.4913,4.5586,4.5586,4.5586,4.5586,4.5586,4.5586,4.5586,4.5586,4.5586,4.5586,4.5586,0.0,0.0,4.5586,4.5586,4.5586,4.5586,4.5586,4.5586,4.5586,4.5586,4.5586,4.5586,4.5586,4.5586,4.5586,4.5586,4.5586,4.5586,4.5586,4.5586,4.5586,4.572,4.5874,4.5874,4.6009,4.6144,4.6144,4.6663,4.7336,4.7971,4.8259,4.8375,4.8375,4.8529,4.8875,4.9548,4.9683,4.9913,5.0587,5.0702,5.0702,5.0702,5.0721,5.0471,4.9779,5.0414,5.0972,5.1106,5.1164,5.1261,5.1386,5.1406,5.1406,5.1406,5.1406,5.1406,5.1406,5.1406,5.1406,5.1406,5.1406,5.1406,5.1406,5.1406,5.1406,3.5493,3.5493,3.5493,3.5493,3.5493,3.5493,3.5493,0.0,0.0,0.0,0.0,3.5493,3.5493,0.0,0.0,0.0,0.0,0.0,0.0,0.0,0.0,0.0,0.0,0.0,0.0,0.0,0.0,0.0,0.0,0.0,0.0,4.3201,4.4143,4.4297,4.5066,4.5509,4.5586,4.5586,4.5586,4.5586,4.5586,4.5586,4.5586,4.5586,4.5586,4.5586,0.0,0.0,0.0,4.5586,4.5586,4.5586,4.5586,4.5586,4.5586,4.5586,4.5586,4.5586,4.5586,4.5586,4.5586,4.5586,4.5586,4.5586,4.5586,4.5586,4.5586,4.5586,4.6163,4.6778,4.6778,4.7317,4.7875,4.7875,4.7932,4.8009,4.8086,4.8721,4.9279,4.9279,4.9913,5.0491,5.0567,5.0567,5.0606,5.0683,5.0702,5.0702,5.0702,5.0818,5.0856,5.0779,5.0856,5.0991,5.1164,5.1203,5.1261,5.1386,5.1406,5.1406,5.1406,5.1406,5.1406,5.1406,5.1406,5.1406,5.1406,5.1406,5.1406,5.1406,5.1406,5.1406,3.5493,3.5493,3.5493,3.5493,3.5493,3.5493,3.5493,0.0,0.0,3.5493,3.5493,3.5493,3.5493,3.5493,0.0,0.0,0.0,0.0,0.0,0.0,0.0,0.0,0.0,0.0,0.0,0.0,0.0,0.0,0.0,0.0,0.0,4.3932,4.4528,4.5066,4.5413,4.5586,4.5586,4.5586,4.5586,4.5586,4.5586,4.5586,4.5586,4.5586,4.5586,4.5586,0.0,0.0,0.0,4.5586,4.5586,4.5586,4.5586,4.5586,4.5586,4.5586,4.5586,4.5586,4.5586,4.5586,4.5682,4.6201,4.6374,4.6374,4.6374,4.6374,4.6471,4.6971,4.7355,4.7625,4.7625,4.7855,4.824,4.8759,4.8875,4.9029,4.9548,4.9933,5.0183,5.0183,5.0452,5.0702,5.0702,5.076,5.0837,5.0837,5.0895,5.0952,5.0952,5.0991,5.1049,5.1087,5.1087,5.1106,5.1183,5.1275,5.1341,5.1406,5.1406,5.1406,5.1406,5.1406,5.1406,5.1406,5.1406,5.1406,5.1406,5.1406,5.1406,5.1406,5.1406,5.1406,3.5479,3.5493,3.5493,3.5493,3.5493,3.5493,0.0,0.0,0.0,3.5493,3.5493,3.5493,3.5493,3.5493,3.6065,3.7738,0.0,0.0,0.0,0.0,0.0,0.0,0.0,0.0,0.0,0.0,0.0,0.0,0.0,0.0,0.0,4.4528,4.497,4.5566,4.5586,4.5586,4.5586,4.5586,4.5586,4.5586,4.5586,4.5586,4.5586,4.5586,4.5586,4.5586,0.0,0.0,0.0,4.5586,4.5586,4.5586,4.5586,4.5586,4.5586,4.5586,4.5759,4.597,4.597,4.6144,4.6432,4.7067,4.7278,4.7355,4.7625,4.7509,4.7432,4.8048,4.8394,4.8663,4.8913,4.899,4.9144,4.976,4.9894,5.0067,5.0702,5.0837,5.0837,5.0837,5.0837,5.0837,5.0837,5.0914,5.0952,5.096,5.1035,5.1093,5.1093,5.1123,5.1145,5.1183,5.1241,5.1257,5.1261,5.1347,5.1406,5.1406,5.1406,5.1406,5.1406,5.1406,5.1406,5.1406,5.1406,5.1406,5.1406,5.1406,5.1406,5.1406,5.1406,5.1406,3.5432,3.5493,3.5493,3.5493,3.5493,3.5493,0.0,0.0,0.0,3.5493,3.5493,3.5493,3.5493,3.5493,3.6065,3.7738,3.8007,0.0,0.0,0.0,0.0,0.0,0.0,0.0,0.0,0.0,0.0,0.0,0.0,0.0,0.0,4.5124,4.5586,4.5586,4.5586,4.5586,4.5586,4.5586,4.5586,4.5586,4.5586,4.5586,4.5586,4.5586,4.5586,0.0,0.0,0.0,0.0,4.5586,4.5586,4.5586,4.5586,4.5586,4.5586,4.5586,4.6144,4.6894,4.6894,4.7413,4.8086,4.8086,4.8182,4.845,4.9298,4.897,4.8315,4.847,4.9105,4.9971,5.0837,5.1068,5.1068,5.1087,5.1087,5.1087,5.1087,5.1106,5.1106,5.1106,5.1106,5.1106,5.1106,5.1106,5.1097,5.11,5.1103,5.1103,5.1103,5.1154,5.1203,5.1203,5.1318,5.1402,5.1403,5.1406,5.1406,5.1406,5.1406,5.1406,5.1406,5.1406,5.1406,5.1406,5.1406,5.1406,5.1406,5.1406,5.1406,5.1406,5.1406,5.1406,3.5259,3.5493,3.5493,3.5493,3.5493,3.5493,3.5493,0.0,0.0,3.5493,3.5493,3.5493,3.5493,3.5493,3.6065,3.7738,3.8007,0.0,0.0,0.0,0.0,0.0,0.0,0.0,0.0,0.0,0.0,0.0,0.0,0.0,0.0,0.0,4.5586,4.5586,4.5586,4.5586,4.5586,4.5586,4.5586,4.5586,4.5586,4.5586,4.5586,4.5586,0.0,0.0,0.0,0.0,0.0,4.5586,4.5586,4.5586,4.5586,4.5951,4.649,4.649,4.7009,4.7721,4.7721,4.7932,4.8316,4.8932,4.922,4.9489,5.0414,5.0059,4.947,5.0105,5.0474,5.0746,5.1024,5.1102,5.1102,5.1102,5.1102,5.1102,5.1102,5.1102,5.1102,5.1102,5.1102,5.1102,5.1102,5.1148,5.1183,5.117,5.1248,5.1307,5.1307,5.1318,5.1337,5.1336,5.1369,5.1406,5.1406,5.1406,5.1406,5.1406,5.1406,5.1406,5.1406,5.1406,5.1406,5.1406,5.1406,5.1406,5.1406,5.1406,5.1406,5.1406,5.2012,5.2285,0.0,3.5493,3.5493,3.5493,3.5493,0.0,0.0,0.0,0.0,3.5493,3.5493,3.5493,3.5493,3.5493,3.6065,3.7738,3.8007,0.0,0.0,0.0,0.0,0.0,0.0,0.0,0.0,0.0,0.0,0.0,0.0,0.0,0.0,0.0,4.5586,4.5586,4.5586,4.5586,4.5586,4.5586,4.5586,4.5586,4.5586,4.5586,4.5586,4.5586,0.0,0.0,0.0,0.0,0.0,4.5951,4.6086,4.6124,4.6413,4.6874,4.7355,4.7394,4.7932,4.8663,4.872,4.9009,4.945,4.9988,5.0248,5.0452,5.1068,5.0869,5.0522,5.1057,5.1213,5.1213,5.1213,5.1213,5.1213,5.1213,5.1213,5.1213,5.1213,5.1213,5.1213,5.1213,5.1213,5.1213,5.1213,5.124,5.1287,5.1287,5.1352,5.1406,5.1406,5.1406,5.1405,5.14,5.1396,5.1406,5.1406,5.1406,5.1406,5.1406,5.1406,5.1406,5.1406,5.1406,5.1406,5.1406,5.1406,5.1406,5.1406,5.1738,5.2051,5.2383,5.2949,5.3183,0.0,0.0,0.0,0.0,0.0,0.0,0.0,0.0,0.0,0.0,0.0,3.5493,3.5493,3.5565,3.6122,3.7738,3.8046,0.0,0.0,0.0,0.0,0.0,0.0,0.0,0.0,0.0,0.0,0.0,0.0,0.0,0.0,0.0,4.5586,4.5586,4.5586,4.5586,4.5586,4.5586,4.5586,4.5586,4.5586,4.5586,4.5586,4.5586,0.0,0.0,0.0,0.0,0.0,4.6663,4.7009,4.7067,4.7836,4.8163,4.8221,4.8373,4.8969,4.9719,4.9852,5.0432,5.1123,5.1117,5.1159,5.1241,5.1374,5.1395,5.1406,5.1406,5.1406,5.1406,5.1406,5.1406,5.1406,5.1406,5.1406,5.1406,5.1406,5.1406,5.1406,5.1406,5.1406,5.1406,5.1406,5.1406,5.1406,5.1406,5.1406,5.1406,5.1406,5.1445,5.1484,5.1484,5.1543,5.1582,5.1582,5.1465,5.1406,5.1406,5.1406,5.1426,5.1484,5.1484,5.1523,5.1582,5.1582,5.1582,5.1582,5.2402,5.3203,5.4004,5.4062,5.4082,0.0,0.0,0.0,0.0,0.0,0.0,0.0,0.0,0.0,0.0,0.0,0.0,3.5493,3.6007,3.6776,3.7834,0.0,0.0,0.0,0.0,0.0,0.0,0.0,0.0,0.0,0.0,0.0,0.0,0.0,0.0,0.0,0.0,4.5586,4.5586,4.5586,4.5586,4.5586,4.5586,4.5586,4.5586,4.5586,4.5586,4.5586,4.5586,0.0,0.0,0.0,0.0,4.768,4.7892,4.797,4.7991,4.8298,4.8759,4.9259,4.9393,5.0001,5.0744,5.0783,5.0956,5.1196,5.1291,5.1337,5.137,5.1386,5.1394,5.1406,5.1406,5.1406,5.1406,5.1406,5.1406,5.1406,5.1406,5.1406,5.1406,5.1406,5.1406,5.1406,5.1406,5.1406,5.1406,5.1406,5.1406,5.1406,5.1406,5.1406,5.1406,5.1406,5.1973,5.2383,5.2383,5.2988,5.3398,5.3398,5.2168,5.1406,5.1406,5.1406,5.1699,5.2363,5.2383,5.2715,5.3379,5.3398,5.3398,5.3398,5.3594,5.3808,5.4023,5.4687,5.498,0.0,0.0,0.0,0.0,0.0,0.0,0.0,0.0,0.0,0.0,0.0,0.0,0.0,0.0,0.0,0.0,0.0,0.0,0.0,0.0,0.0,0.0,0.0,0.0,0.0,0.0,0.0,0.0,0.0,0.0,0.0,0.0,4.5586,4.5586,4.5586,4.5586,4.5586,4.5586,4.5586,4.5586,4.5586,4.5797,4.6201,4.6201,0.0,0.0,0.0,0.0,4.8412,4.8777,4.8938,4.904,4.9523,4.9944,5.0298,5.0391,5.0731,5.1153,5.1218,5.1269,5.1307,5.1377,5.1401,5.1414,5.1396,5.1406,5.1406,5.1406,5.1406,5.1406,5.1406,5.1406,5.1406,5.1406,5.1406,5.1406,5.1406,5.1406,5.1406,5.1406,5.1406,5.1406,5.1406,5.1406,5.1543,5.1933,5.1992,5.2148,5.2539,5.3008,5.3301,5.3301,5.3711,5.4004,5.4004,5.3144,5.2598,5.2598,5.2598,5.2793,5.3281,5.3301,5.3516,5.3984,5.4004,5.4199,5.4609,5.4609,5.4805,5.5195,5.5683,5.5898,0.0,0.0,0.0,0.0,0.0,0.0,0.0,0.0,0.0,0.0,0.0,0.0,0.0,0.0,0.0,0.0,0.0,0.0,0.0,0.0,0.0,0.0,0.0,0.0,0.0,0.0,0.0,0.0,0.0,0.0,0.0,0.0,0.0,4.5643,4.5643,4.5643,4.5643,4.5624,4.5624,4.5643,4.5776,4.6238,4.6951,4.7067,0.0,0.0,0.0,0.0,4.897,4.9586,4.9901,5.0096,5.0839,5.1125,5.1125,5.1208,5.1225,5.1242,5.1355,5.1406,5.1406,5.1406,5.1406,5.1406,5.1406,5.1406,5.1406,5.1406,5.1406,5.1406,5.1406,5.1406,5.1406,5.1406,5.1406,5.1406,5.1406,5.1406,5.1406,5.1406,5.1504,5.1601,5.1601,5.1719,5.2051,5.2793,5.2891,5.3164,5.3906,5.4121,5.4199,5.4199,5.4316,5.4394,5.4394,5.4394,5.4394,5.4394,5.4141,5.4062,5.4199,5.4336,5.4394,5.4394,5.4394,5.4765,5.5508,5.5508,5.5879,5.6601,5.6601,5.6601,0.0,0.0,0.0,0.0,0.0,0.0,0.0,0.0,0.0,0.0,0.0,0.0,0.0,0.0,0.0,0.0,0.0,0.0,0.0,0.0,0.0,0.0,0.0,0.0,0.0,0.0,0.0,0.0,0.0,0.0,0.0,0.0,0.0,4.5853,4.5853,4.5853,4.5853,4.5796,4.5796,4.5853,4.6602,4.7024,4.718,4.7798,4.8625,0.0,0.0,4.9913,5.0798,5.0914,5.0965,5.1003,5.1257,5.1279,5.1208,5.1317,5.1369,5.1372,5.1386,5.1406,5.1406,5.1406,5.1406,5.1406,5.1406,5.1406,5.1406,5.1406,5.1406,5.1406,5.1406,5.1406,5.1406,5.1406,5.1406,5.1406,5.1406,5.1406,5.1406,5.1406,5.1992,5.25,5.25,5.3105,5.3652,5.3789,5.3808,5.3848,5.3984,5.4648,5.5098,5.5098,5.5762,5.6191,5.6191,5.6191,5.6191,5.6191,5.4824,5.4336,5.5078,5.5801,5.6191,5.6191,5.6191,5.6269,5.6406,5.6406,5.6465,5.6601,5.6601,5.6601,3.3949,0.0,0.0,0.0,0.0,0.0,0.0,0.0,0.0,0.0,0.0,0.0,0.0,0.0,0.0,0.0,0.0,0.0,0.0,0.0,0.0,0.0,0.0,0.0,0.0,0.0,0.0,0.0,0.0,0.0,0.0,0.0,0.0,0.0,4.5899,4.5921,4.6007,4.6448,4.6642,4.661,4.6997,4.7689,4.8613,4.8968,4.9633,5.0567,0.0,5.0751,5.1298,5.1225,5.1241,5.1308,5.1375,5.1364,5.1323,5.1377,5.1406,5.1406,5.1406,5.1406,5.1406,5.1406,5.1406,5.1406,5.1406,5.1406,5.1406,5.1406,5.1406,5.1406,5.1406,5.1406,5.1406,5.1406,5.1406,5.1523,5.1992,5.2109,5.2246,5.2715,5.3125,5.3398,5.3398,5.373,5.416,5.4629,5.4707,5.4863,5.5332,5.5742,5.5996,5.5996,5.6367,5.6601,5.6601,5.6601,5.6601,5.6601,5.5859,5.5586,5.5996,5.6387,5.6601,5.6601,5.6601,5.6601,5.6601,5.6601,5.6601,5.6601,5.6601,5.6601,3.4199,3.4988,0.0,0.0,0.0,0.0,0.0,0.0,0.0,0.0,0.0,0.0,0.0,0.0,0.0,0.0,0.0,0.0,0.0,0.0,0.0,0.0,0.0,0.0,0.0,0.0,0.0,0.0,0.0,0.0,0.0,0.0,0.0,0.0,4.5982,4.6147,4.6448,4.712,4.739,4.7301,4.7717,4.8594,4.9907,5.0063,5.0549,5.1237,5.116,5.123,5.1386,5.1286,5.1317,5.1406,5.1406,5.1406,5.1406,5.1406,5.1406,5.1406,5.1406,5.1406,5.1406,5.1406,5.1406,5.1406,5.1406,5.1406,5.1406,5.1406,5.1543,5.166,5.1445,5.1406,5.1445,5.166,5.1699,5.1933,5.2812,5.3008,5.3203,5.3867,5.416,5.4297,5.4297,5.4473,5.4844,5.5508,5.5605,5.5859,5.6504,5.6601,5.6601,5.6601,5.6601,5.6601,5.6601,5.6601,5.6601,5.6601,5.6601,5.6601,5.6601,5.6601,5.6601,5.6601,5.6601,5.6601,5.6601,5.6601,5.6601,5.6601,5.6601,5.6601,3.4949,3.5449,0.0,0.0,0.0,0.0,0.0,0.0,0.0,0.0,0.0,0.0,0.0,0.0,0.0,0.0,0.0,0.0,0.0,0.0,0.0,0.0,0.0,0.0,0.0,0.0,0.0,0.0,0.0,0.0,0.0,0.0,0.0,0.0,0.0,4.6651,4.7484,4.7561,4.7583,4.7597,4.9218,5.0057,5.0194,5.0819,5.1209,5.1379,5.1256,5.1272,5.1406,5.1385,5.1386,5.1406,5.1406,5.1406,5.1406,5.1406,5.1406,5.1406,5.1406,5.1406,5.1406,5.1406,5.1406,5.1406,5.1406,5.1406,5.1406,5.1406,5.1973,5.2422,5.1601,5.1406,5.1601,5.2402,5.2617,5.2851,5.3711,5.3906,5.3926,5.3984,5.4648,5.5215,5.5215,5.5879,5.6426,5.6504,5.6504,5.6523,5.6582,5.6601,5.6601,5.6601,5.6601,5.6601,5.6601,5.6601,5.6601,5.6601,5.6601,5.6601,5.6601,5.6601,5.6601,5.6601,5.6601,5.6601,5.6601,5.6601,5.6601,5.6601,5.6601,5.6601,3.518,3.5545,3.5565,0.0,0.0,0.0,0.0,0.0,0.0,0.0,0.0,0.0,0.0,0.0,0.0,0.0,0.0,0.0,0.0,0.0,0.0,0.0,0.0,0.0,0.0,0.0,0.0,0.0,0.0,0.0,0.0,0.0,0.0,0.0,0.0,4.6713,4.758,4.8146,4.8688,4.9219,4.9883,5.0469,5.0957,5.1211,5.1348,5.1406,5.1352,5.1342,5.1406,5.1406,5.1406,5.1406,5.1406,5.1406,5.1406,5.1406,5.1406,5.1406,5.1406,5.1406,5.1406,5.1406,5.1406,5.1406,5.1406,5.1777,5.2207,5.2207,5.2832,5.3301,5.2422,5.2617,5.3105,5.3437,5.3516,5.375,5.4629,5.4805,5.4961,5.5508,5.5879,5.6113,5.6113,5.6387,5.6601,5.6601,5.6601,5.6601,5.6601,5.6601,5.6601,5.6601,5.6601,5.6601,5.6601,5.6601,5.6601,5.6601,5.6601,5.6601,5.6601,5.6601,5.6601,5.6601,5.6601,5.6601,5.6601,5.6601,5.6601,5.6601,5.6601,5.6601,3.5295,3.5584,3.563,3.5577,0.0,0.0,0.0,0.0,0.0,0.0,0.0,0.0,0.0,0.0,0.0,0.0,0.0,0.0,0.0,0.0,0.0,0.0,0.0,0.0,0.0,0.0,0.0,0.0,0.0,0.0,0.0,0.0,0.0,0.0,0.0,0.0,4.8008,4.8867,4.9746,5.0586,5.0586,5.0879,5.1406,5.1406,5.1406,5.1406,5.1406,5.1406,5.1406,5.1406,5.1406,5.1406,5.1406,5.1406,5.1406,5.1406,5.1406,5.1406,5.1406,5.1406,5.1406,5.1406,5.1582,5.1816,5.1816,5.2422,5.3105,5.3105,5.373,5.4277,5.3672,5.3769,5.4062,5.4336,5.4414,5.4648,5.5527,5.5703,5.5898,5.6484,5.6601,5.6601,5.6601,5.6601,5.6601,5.6601,5.6601,5.6601,5.6601,5.6601,5.6601,5.6601,5.6601,5.6601,5.6601,5.6601,5.6601,5.6601,5.6601,5.6601,5.6601,5.6601,5.6601,5.6601,5.6601,5.6601,5.6601,5.6601,5.6601,5.6601,5.6875,5.7012,3.5372,3.5641,3.5701,0.0,0.0,0.0,0.0,0.0,0.0,0.0,0.0,0.0,0.0,0.0,0.0,0.0,0.0,0.0,0.0,0.0,0.0,0.0,0.0,0.0,0.0,0.0,0.0,0.0,0.0,0.0,0.0,0.0,0.0,0.0,0.0,0.0,4.8906,4.9766,5.0605,5.1406,5.1406,5.1406,5.1406,5.1406,5.1406,5.1406,5.1406,5.1406,5.1406,5.1406,5.1406,5.1406,5.1406,5.1406,5.1406,5.1406,5.1406,5.1406,5.1406,5.1406,5.1406,5.1406,5.1992,5.2715,5.2715,5.332,5.4004,5.4004,5.4648,5.5312,5.5312,5.4668,5.4238,5.5117,5.5312,5.5547,5.6406,5.6601,5.6601,5.6601,5.6601,5.6601,5.6601,5.6601,5.6601,5.6601,5.6601,5.6601,5.6601,5.6601,5.6601,5.6601,5.6601,5.6601,5.6601,5.6601,5.6601,5.6601,5.6601,5.6601,5.6601,5.6601,5.6601,5.6601,5.6601,5.6601,5.6601,5.6601,5.6621,5.664,5.7519,5.791,3.5602,0.0,0.0,0.0,0.0,0.0,0.0,0.0,0.0,0.0,0.0,0.0,0.0,0.0,0.0,0.0,0.0,0.0,0.0,0.0,0.0,0.0,0.0,0.0,0.0,0.0,0.0,0.0,0.0,0.0,0.0,0.0,0.0,0.0,0.0,0.0,4.9805,5.0078,5.0605,5.1406,5.1406,5.1406,5.1406,5.1406,5.1406,5.1406,5.1406,5.1406,5.1406,5.1406,5.1406,5.1406,5.1406,5.1406,5.1406,5.1406,5.1406,5.1406,5.1406,5.1797,5.2305,5.2305,5.2891,5.3613,5.3613,5.4219,5.4902,5.4902,5.5547,5.6211,5.6211,5.6015,5.5898,5.6152,5.6211,5.6289,5.6543,5.6601,5.6601,5.6601,5.6601,5.6601,5.6601,5.6601,5.6601,5.6601,5.6601,5.6601,5.6601,5.6601,5.6601,5.6601,5.6601,5.6601,5.6601,5.6601,5.6601,5.6601,5.6601,5.6601,5.6601,5.6601,5.6601,5.6601,5.6601,5.6894,5.7519,5.7519,5.7832,5.8437,5.8691,5.8808,0.0,0.0,0.0,0.0,0.0,0.0,0.0,0.0,0.0,0.0,0.0,0.0,0.0,0.0,0.0,0.0,0.0,0.0,0.0,0.0,0.0,0.0,0.0,0.0,0.0,0.0,0.0,0.0,0.0,0.0,0.0,0.0,0.0,0.0,0.0,0.0,5.0195,5.0527,5.0918,5.1406,5.1406,5.1406,5.1406,5.1406,5.1406,5.1406,5.1406,5.1406,5.1406,5.1406,5.1406,5.1406,5.1406,5.1406,5.1406,5.1406,5.1406,5.1445,5.1797,5.2266,5.2754,5.3105,5.3808,5.4512,5.4512,5.5137,5.582,5.582,5.6191,5.6601,5.6601,5.6601,5.6601,5.6601,5.6601,5.6601,5.6601,5.6601,5.6601,5.6601,5.6601,5.6601,5.6601,5.6601,5.6601,5.6601,5.6601,5.6601,5.6601,5.6601,5.6601,5.6601,5.6601,5.6601,5.6601,5.6601,5.6601,5.6601,5.6914,5.7129,5.7129,5.6777,5.6758,5.7109,5.7129,5.7558,5.8418,5.8418,5.8691,5.9219,5.9531,5.9687,0.0,0.0,0.0,0.0,0.0,0.0,0.0,0.0,0.0,0.0,0.0,0.0,0.0,0.0,0.0,0.0,0.0,0.0,0.0,0.0,0.0,0.0,0.0,0.0,0.0,0.0,0.0,0.0,0.0,0.0,0.0,0.0,0.0,0.0,0.0,0.0,5.0293,5.1035,5.1406,0.0,5.1406,5.1406,5.1406,5.1406,5.1406,5.1406,5.1406,5.1406,5.1406,5.1406,5.1406,5.1406,5.1406,5.1406,5.1406,5.1484,5.1523,5.1641,5.2519,5.2871,5.3066,5.3867,5.4707,5.543,5.543,5.5976,5.6601,5.6601,5.6601,5.6601,5.6601,5.6601,5.6601,5.6601,5.6601,5.6601,5.6601,5.6601,5.6601,5.6601,5.6601,5.6601,5.6601,5.6601,5.6601,5.6601,5.6601,5.6601,5.6601,5.6601,5.6601,5.6601,5.6601,5.6621,5.6719,5.6719,5.6758,5.6836,5.7578,5.8027,5.8027,5.7265,5.7207,5.8008,5.8027,5.8437,5.9316,5.9316,5.9355,5.9453,6.0176,6.0527,0.0,0.0,0.0,0.0,0.0,0.0,0.0,0.0,0.0,0.0,0.0,0.0,0.0,0.0,0.0,0.0,0.0,0.0,0.0,0.0,0.0,0.0,0.0,0.0,0.0,0.0,0.0,0.0,0.0,0.0,0.0,0.0,0.0,0.0,0.0,5.0312,5.1133,5.1308,5.1406,0.0,5.1406,5.1406,5.1406,5.1406,5.1406,5.1406,5.1406,5.1406,5.1406,5.1406,5.1406,5.1406,5.1406,5.1406,5.1484,5.2168,5.2422,5.2558,5.3418,5.418,5.4765,5.4961,5.5605,5.6328,5.6328,5.6445,5.6601,5.6601,5.6601,5.6601,5.6601,5.6601,5.6601,5.6601,5.6601,5.6601,5.6601,5.6601,5.6601,5.6601,5.6601,5.6601,5.6601,5.6601,5.6601,5.6601,5.6601,5.6601,5.6601,5.6601,5.6601,5.6601,5.6601,5.6875,5.7558,5.7617,5.791,5.8594,5.8828,5.8926,5.8926,5.873,5.873,5.8926,5.8926,5.9316,6.0137,6.0137,6.0488,6.1172,6.1348,6.1426,0.0,0.0,0.0,0.0,0.0,0.0,0.0,0.0,0.0,0.0,0.0,0.0,0.0,0.0,0.0,0.0,0.0,0.0,0.0,0.0,0.0,0.0,0.0,0.0,0.0,0.0,0.0,0.0,0.0,0.0,0.0,0.0,0.0,0.0,4.9746,5.0586,5.1387,5.1406,5.1406,5.1406,5.1406,5.1406,5.1406,5.1406,5.1406,5.1406,5.1406,5.1406,5.1406,5.1406,5.1406,5.1406,5.1406,5.1641,5.207,5.2539,5.2969,5.3457,5.4316,5.4922,5.5371,5.5781,5.623,5.6601,5.6601,5.6601,5.6601,5.6601,5.6601,5.6601,5.6601,5.6601,5.6601,5.6601,5.6601,5.6601,5.6601,5.6601,5.6601,5.6601,5.6601,5.6601,5.6601,5.6601,5.6601,5.6601,5.6601,5.6601,5.6601,5.6601,5.6758,5.7187,5.7226,5.7578,5.8457,5.8515,5.8711,5.918,5.9551,5.9765,5.9765,6.0176,6.0195,5.9785,5.9765,6.0195,6.1015,6.1015,6.1269,6.1699,6.1699,6.1699,0.0,0.0,0.0,0.0,0.0,0.0,0.0,0.0,0.0,0.0,0.0,0.0,0.0,0.0,0.0,0.0,0.0,0.0,0.0,0.0,0.0,0.0,0.0,0.0,0.0,0.0,0.0,0.0,0.0,0.0,0.0,0.0,4.8223,4.9101,4.9961,5.0723,5.1387,5.1406,5.1406,5.1406,5.1406,5.1406,5.1406,5.1406,5.1406,5.1406,5.1406,5.1406,5.1406,5.1406,5.1484,5.1621,5.1621,5.2168,5.2949,5.3086,5.3613,5.4355,5.5215,5.5527,5.5644,5.6367,5.6601,5.6601,5.6601,5.6601,5.6601,5.6601,5.6601,5.6601,5.6601,5.6601,5.6601,5.6601,5.6601,5.6601,5.6601,5.6601,5.6601,5.6601,5.6601,5.6601,5.6601,5.6601,5.6601,5.6601,5.6738,5.6816,5.6816,5.6953,5.7324,5.8047,5.8125,5.8476,5.9336,5.9414,5.9473,5.9629,6.0254,6.0625,6.0625,6.1328,6.1367,6.0644,6.0625,6.0976,6.1699,6.1699,6.1699,6.1699,6.1699,6.1699,0.0,0.0,0.0,0.0,0.0,0.0,0.0,0.0,0.0,0.0,0.0,0.0,0.0,0.0,0.0,0.0,0.0,0.0,0.0,0.0,0.0,0.0,0.0,0.0,0.0,0.0,0.0,0.0,0.0,0.0,0.0,4.8242,4.9121,5.0,5.082,5.1289,5.1406,5.1406,5.1406,5.1406,5.1406,5.1406,5.1406,5.1406,5.1406,5.1406,5.1406,5.1406,5.1406,5.1406,5.1855,5.2539,5.2539,5.3066,5.3926,5.4668,5.5039,5.5254,5.6113,5.6426,5.6445,5.6562,5.6601,5.6601,5.6601,5.6601,5.6601,5.6601,5.6601,5.6601,5.6601,5.6601,5.6601,5.6601,5.6601,5.6601,5.6601,5.6601,5.6601,5.6601,5.6601,5.6601,5.6601,5.6601,5.6601,5.6601,5.7246,5.7734,5.7734,5.8398,5.8906,5.9004,5.9023,5.9355,6.0176,6.0234,6.0566,6.1328,6.1465,6.1523,6.1523,6.164,6.164,6.1523,6.1523,6.1582,6.1699,6.1699,6.1699,6.1699,6.1699,6.1699,0.0,0.0,0.0,0.0,0.0,0.0,0.0,0.0,0.0,0.0,0.0,0.0,0.0,0.0,0.0,0.0,0.0,0.0,0.0,0.0,0.0,0.0,0.0,0.0,0.0,0.0,0.0,0.0,0.0,0.0,4.7558,4.8437,4.9297,5.0176,5.0976,5.1406,5.1406,5.1406,5.1406,5.1406,5.1406,5.1406,5.1406,5.1406,5.1406,5.1406,5.1406,5.1406,5.1445,5.1933,5.2344,5.2754,5.3242,5.3965,5.4765,5.5156,5.5605,5.6074,5.6465,5.6601,5.6601,5.6601,5.6601,5.6601,5.6601,5.6601,5.6601,5.6601,5.6601,5.6601,5.6601,5.6601,5.6601,5.6601,5.6601,5.6601,5.6601,5.6601,5.6601,5.6601,5.6601,5.6758,5.7246,5.7324,5.748,5.7988,5.8379,5.8633,5.8633,5.8965,5.9375,5.9824,5.9863,6.0215,6.1055,6.1133,6.1289,6.168,6.1699,6.1699,6.1699,6.1699,6.1699,6.1699,6.1699,6.1699,6.1699,6.1699,6.1699,6.1699,6.1699,6.1699,0.0,0.0,0.0,0.0,0.0,0.0,0.0,0.0,0.0,0.0,0.0,0.0,0.0,0.0,0.0,0.0,0.0,0.0,0.0,0.0,0.0,0.0,0.0,0.0,0.0,0.0,0.0,0.0,0.0,0.0,4.7871,4.8769,4.9629,5.0488,5.1094,5.1406,5.1406,5.1406,5.1406,5.1406,5.1406,5.1406,5.1406,5.1406,5.1523,5.1719,5.1504,5.1523,5.1777,5.2422,5.2969,5.3437,5.4082,5.4863,5.5625,5.5625,5.6035,5.6601,5.6601,5.6601,5.6601,5.6601,5.6601,5.6601,5.6601,5.6601,5.6601,5.6601,5.6601,5.6601,5.6601,5.6601,5.6601,5.6601,5.6777,5.6875,5.664,5.6777,5.6933,5.6933,5.7109,5.7461,5.8125,5.8223,5.8457,5.9101,5.9375,5.9492,5.9492,5.9707,6.0078,6.0664,6.0723,6.0996,6.164,6.1699,6.1699,6.1699,6.1699,6.1699,6.1699,6.1699,6.1699,6.1699,6.1699,6.1699,6.1699,6.1699,6.1699,6.1699,6.1699,6.1699,0.0,0.0,0.0,0.0,0.0,0.0,0.0,0.0,0.0,0.0,0.0,0.0,0.0,0.0,0.0,0.0,0.0,0.0,0.0,0.0,0.0,0.0,0.0,0.0,0.0,0.0,0.0,0.0,0.0,0.0,4.8789,4.9668,5.0508,5.1308,5.1387,5.1406,5.1406,5.1406,5.1406,5.1406,5.1406,5.1406,5.1406,5.1406,5.1855,5.2598,5.1758,5.1875,5.2637,5.2676,5.3672,5.5176,5.5215,5.5762,5.6523,5.6523,5.6562,5.6601,5.6601,5.6601,5.6601,5.6601,5.6601,5.6601,5.6601,5.6601,5.6601,5.6601,5.6601,5.6601,5.6601,5.6601,5.6601,5.6601,5.7226,5.7617,5.6777,5.7246,5.7832,5.7832,5.8496,5.9082,5.9121,5.9121,5.914,5.9199,5.9844,6.0332,6.0332,6.1055,6.1582,6.1621,6.1621,6.164,6.1699,6.1699,6.1699,6.1699,6.1699,6.1699,6.1699,6.1699,6.1699,6.1699,6.1699,6.1699,6.1699,6.1699,6.1699,6.1699,6.1699,6.1699,0.0,0.0,0.0,0.0,0.0,0.0,0.0,0.0,0.0,0.0,0.0,0.0,0.0,0.0,0.0,0.0,0.0,0.0,0.0,0.0,0.0,0.0,0.0,0.0,0.0,0.0,0.0,0.0,0.0,0.0,4.8848,4.9726,5.0566,5.1367,5.1406,5.1406,5.1406,5.1406,5.1406,5.1406,5.1406,5.1406,5.1426,5.1973,5.2402,5.2715,5.2969,5.3242,5.3574,5.4141,5.4746,5.5351,5.5918,5.6328,5.6601,5.6601,5.6601,5.6601,5.6601,5.6601,5.6601,5.6601,5.6601,5.6601,5.6601,5.6601,5.6601,5.6601,5.6601,5.6601,5.6601,5.6601,5.6738,5.7305,5.8105,5.8652,5.834,5.8515,5.873,5.873,5.8984,5.9355,5.9883,5.9961,6.0156,6.0723,6.1055,6.123,6.123,6.1504,6.1699,6.1699,6.1699,6.1699,6.1699,6.1699,6.1699,6.1699,6.1699,6.1699,6.1699,6.1699,6.1699,6.1699,6.1699,6.1699,6.1699,6.1699,6.1699,6.1699,6.1699,6.1699,0.0,0.0,0.0,0.0,0.0,0.0,0.0,0.0,0.0,0.0,0.0,0.0,0.0,0.0,0.0,0.0,0.0,0.0,0.0,0.0,0.0,0.0,0.0,0.0,0.0,0.0,0.0,0.0,0.0,0.0,4.8867,4.998,5.0859,5.1387,5.1406,5.1406,5.1406,5.1406,5.1406,5.1406,5.1406,5.1543,5.1855,5.2441,5.3027,5.3613,5.418,5.4433,5.4473,5.5058,5.5469,5.5781,5.6367,5.6601,5.6601,5.6601,5.6601,5.6601,5.6601,5.6601,5.6601,5.6601,5.6601,5.6601,5.6601,5.6601,5.6601,5.6601,5.6601,5.668,5.6953,5.7246,5.7695,5.8535,5.918,5.9687,5.998,5.9805,5.9609,5.9609,5.9844,6.0215,6.0742,6.084,6.1035,6.1601,6.1699,6.1699,6.1699,6.1699,6.1699,6.1699,6.1699,6.1699,6.1699,6.1699,6.1699,6.1699,6.1699,6.1699,6.1699,6.1699,6.1699,6.1699,6.1699,6.1699,6.1699,6.1699,6.1699,6.1699,6.1699,6.1699,0.0,0.0,0.0,0.0,0.0,0.0,0.0,0.0,0.0,0.0,0.0,0.0,0.0,0.0,0.0,0.0,0.0,0.0,0.0,0.0,0.0,0.0,0.0,0.0,0.0,0.0,0.0,0.0,0.0,4.8906,4.8945,5.0508,5.1406,5.1406,5.1406,5.1406,5.1406,5.1406,5.1406,5.1406,5.1426,5.1875,5.2695,5.2754,5.3691,5.5293,5.5332,5.5332,5.5332,5.5332,5.584,5.6601,5.6601,5.6601,5.6601,5.6601,5.6601,5.6601,5.6601,5.6601,5.6601,5.6601,5.6601,5.6601,5.6601,5.6601,5.6601,5.6621,5.664,5.6836,5.7715,5.8574,5.9433,6.0215,6.043,6.0664,6.1523,6.1035,6.0449,6.0449,6.1113,6.1699,6.1699,6.1699,6.1699,6.1699,6.1699,6.1699,6.1699,6.1699,6.1699,6.1699,6.1699,6.1699,6.1699,6.1699,6.1699,6.1699,6.1699,6.1699,6.1699,6.1699,6.1699,6.1699,6.1699,6.1699,6.1699,6.1699,6.1699,6.1699,6.1699,6.1699,4.084,0.0,0.0,0.0,0.0,0.0,0.0,0.0,0.0,0.0,0.0,0.0,0.0,0.0,0.0,0.0,0.0,0.0,0.0,0.0,0.0,0.0,0.0,0.0,0.0,0.0,0.0,0.0,4.8262,4.918,4.9805,5.082,5.1406,5.1406,5.1406,5.1406,5.1406,5.1406,5.1406,5.1406,5.2031,5.2461,5.2734,5.4004,5.4844,5.5332,5.5976,5.623,5.623,5.623,5.6387,5.6601,5.6601,5.6601,5.6601,5.6601,5.6601,5.6601,5.6601,5.6601,5.6601,5.6601,5.6601,5.6601,5.6601,5.6601,5.6738,5.7363,5.7539,5.7734,5.8613,5.9453,6.0117,6.0351,6.0879,6.1406,6.164,6.1504,6.1348,6.1348,6.1543,6.1699,6.1699,6.1699,6.1699,6.1699,6.1699,6.1699,6.1699,6.1699,6.1699,6.1699,6.1699,6.1699,6.1699,6.1699,6.1699,6.1699,6.1699,6.1699,6.1699,6.1699,6.1699,6.1699,6.1699,6.1699,6.1699,6.1699,6.1699,6.1699,6.1699,6.1699,0.0,0.0,0.0,0.0,0.0,0.0,0.0,4.1191,0.0,0.0,0.0,0.0,0.0,0.0,0.0,0.0,0.0,0.0,0.0,0.0,0.0,0.0,0.0,0.0,0.0,0.0,0.0,0.0,4.8418,4.9433,5.0644,5.1152,5.1406,5.1406,5.1406,5.1406,5.1406,5.1406,5.1582,5.1953,5.2461,5.3086,5.3828,5.4844,5.5508,5.5879,5.6387,5.6601,5.6601,5.6601,5.6601,5.6601,5.6601,5.6601,5.6601,5.6601,5.6601,5.6601,5.6601,5.6601,5.6601,5.6601,5.6601,5.6601,5.6601,5.6855,5.7246,5.7754,5.8398,5.9062,5.957,6.0312,6.0937,6.0937,6.1328,6.1699,6.1699,6.1699,6.1699,6.1699,6.1699,6.1699,6.1699,6.1699,6.1699,6.1699,6.1699,6.1699,6.1699,6.1699,6.1699,6.1699,6.1699,6.1699,6.1699,6.1699,6.1699,6.1699,6.1699,6.1699,6.1699,6.1699,6.1699,6.1699,6.1699,6.1699,6.1699,6.1699,6.1699,6.1699,6.1699,6.1699,0.0,0.0,0.0,0.0,0.0,0.0,4.1191,4.1191,4.1191,0.0,0.0,0.0,0.0,0.0,0.0,0.0,0.0,0.0,0.0,0.0,0.0,0.0,0.0,0.0,0.0,0.0,4.6699,4.7676,4.8633,4.9824,5.1328,5.1406,5.1406,5.1406,5.1406,5.1406,5.1406,5.1504,5.1933,5.2695,5.2891,5.3808,5.5293,5.539,5.5879,5.6601,5.6601,5.6601,5.6601,5.6601,5.6601,5.6601,5.6601,5.6601,5.6601,5.6601,5.6601,5.6601,5.6601,5.6601,5.6601,5.6601,5.6601,5.6621,5.6719,5.7285,5.7949,5.8125,5.9316,6.0547,6.0547,6.1113,6.1699,6.1699,6.1699,6.1699,6.1699,6.1699,6.1699,6.1699,6.1699,6.1699,6.1699,6.1699,6.1699,6.1699,6.1699,6.1699,6.1699,6.1699,6.1699,6.1699,6.1699,6.1699,6.1699,6.1699,6.1699,6.1699,6.1699,6.1699,6.1699,6.1699,6.1699,6.1699,6.1699,6.1699,6.1699,6.1699,6.1699,6.1699,6.1699,6.1699,0.0,0.0,0.0,0.0,0.0,0.0,4.1191,4.1191,4.1191,0.0,0.0,0.0,0.0,0.0,0.0,0.0,0.0,0.0,0.0,0.0,0.0,0.0,0.0,0.0,0.0,0.0,4.6953,4.8535,5.0058,5.1055,5.1387,5.1406,5.1406,5.1406,5.1406,5.1406,5.1406,5.2109,5.2539,5.2715,5.4121,5.4961,5.5312,5.6035,5.6445,5.6601,5.6601,5.6601,5.6601,5.6601,5.6601,5.6601,5.6601,5.6601,5.6601,5.6601,5.6601,5.6601,5.6601,5.6601,5.6601,5.6601,5.6601,5.6738,5.7422,5.7773,5.8183,5.9531,6.0644,6.1445,6.1445,6.1562,6.1699,6.1699,6.1699,6.1699,6.1699,6.1699,6.1699,6.1699,6.1699,6.1699,6.1699,6.1699,6.1699,6.1699,6.1699,6.1699,6.1699,6.1699,6.1699,6.1699,6.1699,6.1699,6.1699,6.1699,6.1699,6.1699,6.1699,6.1699,6.1699,6.1699,6.1699,6.1699,6.1699,6.1699,6.1699,6.1699,6.1699,6.1699,6.1699,6.1699,0.0,0.0,0.0,4.1191,0.0,0.0,0.0,4.1191,4.1191,0.0,0.0,0.0,0.0,0.0,0.0,0.0,0.0,0.0,0.0,0.0,0.0,0.0,0.0,0.0,0.0,0.0,4.7012,4.8769,5.0449,5.1406,5.1406,5.1406,5.1406,5.1406,5.1406,5.1406,5.1406,5.2266,5.293,5.3359,5.4668,5.5527,5.5957,5.6406,5.6601,5.6601,5.6601,5.6601,5.6601,5.6601,5.6601,5.6601,5.6601,5.6601,5.6601,5.6601,5.6601,5.6601,5.6601,5.6601,5.668,5.7109,5.7246,5.7402,5.8281,5.8828,5.9414,6.0683,6.1367,6.1699,6.1699,6.1699,6.1699,6.1699,6.1699,6.1699,6.1699,6.1699,6.1699,6.1699,6.1699,6.1699,6.1699,6.1699,6.1699,6.1699,6.1699,6.1699,6.1699,6.1699,6.1699,6.1699,6.1699,6.1699,6.1699,6.1699,6.1699,6.1699,6.1699,6.1699,6.1699,6.1699,6.1699,6.1699,6.1699,6.1699,6.1699,6.1699,6.1699,6.1699,6.1699,6.1699,0.0,0.0,0.0,0.0,0.0,4.1191,0.0,0.0,0.0,0.0,0.0,0.0,0.0,0.0,0.0,0.0,0.0,0.0,0.0,0.0,0.0,0.0,0.0,0.0,0.0,0.0,4.7383,4.8789,5.0449,5.1406,5.1406,5.1406,5.1406,5.1406,5.1406,5.1484,5.1641,5.2519,5.3398,5.4258,5.5137,5.5918,5.6601,5.6601,5.6601,5.6601,5.6601,5.6601,5.6601,5.6601,5.6601,5.6601,5.6601,5.6601,5.6601,5.6601,5.6601,5.6601,5.6601,5.6719,5.6973,5.7676,5.8125,5.8515,5.9219,6.0,6.0801,6.1504,6.1699,6.1699,6.1699,6.1699,6.1699,6.1699,6.1699,6.1699,6.1699,6.1699,6.1699,6.1699,6.1699,6.1699,6.1699,6.1699,6.1699,6.1699,6.1699,6.1699,6.1699,6.1699,6.1699,6.1699,6.1699,6.1699,6.1699,6.1699,6.1699,6.1699,6.1699,6.1699,6.1699,6.1699,6.1699,6.1699,6.1699,6.1699,6.1699,6.1699,6.1699,6.1699,6.1699,6.1699,0.0,0.0,0.0,0.0,4.1191,0.0,0.0,0.0,0.0,0.0,0.0,0.0,0.0,0.0,0.0,0.0,0.0,0.0,0.0,0.0,0.0,0.0,0.0,0.0,0.0,0.0,0.0,4.8887,5.0449,5.1406,5.1406,5.1406,5.1406,5.1406,5.1406,5.1777,5.2539,5.3418,5.4297,5.5156,5.6035,5.6504,5.6601,5.6601,5.6601,5.6601,5.6601,5.6601,5.6601,5.6601,5.6601,5.6601,5.6601,5.6601,5.6601,5.6601,5.6601,5.6601,5.6601,5.7109,5.7773,5.7871,5.8906,6.0137,6.0234,6.0879,6.1562,6.168,6.1699,6.1699,6.1699,6.1699,6.1699,6.1699,6.1699,6.1699,6.1699,6.1699,6.1699,6.1699,6.1699,6.1699,6.1699,6.1699,6.1699,6.1699,6.1699,6.1699,6.1699,6.1699,6.1699,6.1699,6.1699,6.1699,6.1699,6.1699,6.1699,6.1699,6.1699,6.1699,6.1699,6.1699,6.1699,6.1699,6.1699,6.1699,6.1699,6.1699,6.1699,6.1699,6.1699,6.1699,0.0,0.0,0.0,0.0,0.0,0.0,0.0,0.0,4.1191,0.0,0.0,0.0,0.0,0.0,0.0,0.0,0.0,0.0,0.0,0.0,0.0,0.0,0.0,0.0,0.0,0.0,0.0,0.0,0.0,5.1406,5.1406,5.1406,5.1406,5.1406,5.1894,5.2324,5.2695,5.4062,5.4941,5.5312,5.6172,5.6601,5.6601,5.6601,5.6601,5.6601,5.6601,5.6601,5.6601,5.6601,5.6601,5.6601,5.6601,5.6601,5.6601,5.6601,5.6914,5.7344,5.7344,5.793,5.873,5.9199,6.0176,6.1152,6.1152,6.1406,6.1699,6.1699,6.1699,6.1699,6.1699,6.1699,6.1699,6.1699,6.1699,6.1699,6.1699,6.1699,6.1699,6.1699,6.1699,6.1699,6.1699,6.1699,6.1699,6.1699,6.1699,6.1699,6.1699,6.1699,6.1699,6.1699,6.1699,6.1699,6.1699,6.1699,6.1699,6.1699,6.1699,6.1699,6.1699,6.1699,6.1699,6.1699,6.1699,6.1699,6.1699,6.1699,6.1699,6.1699,6.1699,6.1699,4.0905,0.0,0.0,0.0,0.0,0.0,0.0,0.0,0.0,0.0,0.0,0.0,0.0,0.0,0.0,0.0,0.0,0.0,0.0,0.0,0.0,0.0,0.0,0.0,0.0,0.0,0.0,0.0,5.0449,5.1406,5.1406,5.1406,5.1406,5.1406,5.2246,5.2812,5.3047,5.4551,5.543,5.5664,5.6308,5.6601,5.6601,5.6601,5.6601,5.6601,5.6601,5.6601,5.6601,5.6601,5.6601,5.6601,5.6601,5.6758,5.6953,5.6953,5.7363,5.793,5.8164,5.8808,5.9668,6.0488,6.1172,6.1699,6.1699,6.1699,6.1699,6.1699,6.1699,6.1699,6.1699,6.1699,6.1699,6.1699,6.1699,6.1699,6.1699,6.1699,6.1699,6.1699,6.1699,6.1699,6.1699,6.1699,6.1699,6.1699,6.1699,6.1699,6.1699,6.1699,6.1699,6.1699,6.1699,6.1699,6.1699,6.1699,6.1699,6.1699,6.1699,6.1699,6.1699,6.1699,6.1699,6.1699,6.1699,6.1699,6.1699,6.1699,6.1699,6.1699,6.1699,6.1699,0.0,0.0,0.0,4.0808,0.0,0.0,0.0,0.0,4.1191,0.0,0.0,0.0,0.0,0.0,0.0,0.0,0.0,0.0,0.0,0.0,0.0,0.0,0.0,0.0,0.0,0.0,0.0,4.8906,5.0449,5.1406,5.1406,5.1406,5.1406,5.1406,5.2246,5.3105,5.3945,5.4844,5.5723,5.6562,5.6582,5.6601,5.6601,5.6601,5.6601,5.6601,5.6601,5.6601,5.6601,5.6601,5.6601,5.6601,5.6601,5.7129,5.7851,5.7851,5.7871,5.8027,5.8867,5.9687,6.0508,6.1387,6.168,6.1699,6.1699,6.1699,6.1699,6.1699,6.1699,6.1699,6.1699,6.1699,6.1699,6.1699,6.1699,6.1699,6.1699,6.1699,6.1699,6.1699,6.1699,6.1699,6.1699,6.1699,6.1699,6.1699,6.1699,6.1699,6.1699,6.1699,6.1699,6.1699,6.1699,6.1699,6.1699,6.1699,6.1699,6.1699,6.1699,6.1699,6.1699,6.1699,6.1699,6.1699,6.1699,6.1699,6.1699,6.1699,6.1699,6.1699,6.1699,6.1699,0.0,0.0,4.0642,4.0766,0.0,0.0,0.0,0.0,0.0,0.0,0.0,0.0,0.0,0.0,0.0,0.0,0.0,0.0,0.0,0.0,0.0,0.0,0.0,0.0,0.0,0.0,0.0,4.8906,5.0449,5.1406,0.0,5.1406,5.1406,5.1406,5.2812,5.3691,5.4004,5.5449,5.6308,5.6601,5.6601,5.6601,5.6601,5.6601,5.6601,5.6601,5.6601,5.6601,5.6601,5.6601,5.6601,5.666,5.7246,5.7637,5.789,5.789,5.8594,5.9687,6.0547,6.1035,6.1308,6.1601,6.1699,6.1699,6.1699,6.1699,6.1699,6.1699,6.1699,6.1699,6.1699,6.1699,6.1699,6.1699,6.1699,6.1699,6.1699,6.1699,6.1699,6.1699,6.1699,6.1699,6.1699,6.1699,6.1699,6.1699,6.1699,6.1699,6.1699,6.1699,6.1699,6.1699,6.1699,6.1699,6.1699,6.1699,6.1699,6.1699,6.1699,6.1699,6.1699,6.1699,6.1699,6.1699,6.1699,6.1699,6.1699,6.1699,6.1699,6.1699,6.1699,6.1699,4.062,4.0581,0.0,4.1062,4.1158,0.0,4.1579,0.0,0.0,0.0,0.0,0.0,0.0,0.0,0.0,0.0,0.0,0.0,0.0,0.0,0.0,0.0,0.0,0.0,0.0,0.0,4.9023,4.9336,5.0625,5.1406,0.0,0.0,5.1543,5.1855,5.3242,5.4141,5.4453,5.5879,5.6601,5.6601,5.6601,5.6601,5.6601,5.6601,5.6601,5.6601,5.6601,5.6601,5.6601,5.6601,5.6777,5.7129,5.7676,5.8262,5.8789,5.8789,5.9668,6.0937,6.1504,6.1699,6.1699,6.1699,6.1699,6.1699,6.1699,6.1699,6.1758,6.207,6.1933,6.1777,6.207,6.1933,6.1699,6.1699,6.1699,6.1699,6.1699,6.1699,6.1699,6.1699,6.1699,6.1699,6.1699,6.1699,6.1699,6.1699,6.1699,6.1699,6.1699,6.1699,6.1699,6.1699,6.1699,6.1699,6.1699,6.1699,6.1699,6.1699,6.1699,6.1699,6.1699,6.1699,6.1699,6.1699,6.1699,6.1699,6.1699,6.1699,6.1699,6.1699,6.1699,6.1699]},{"header":{"parameterUnit":"m.s-1","parameterCategory":1,"la1":30.6,"la2":29.2853,"lo1":-89.7004,"lo2":-87.6739,"dx":0.0162,"dy":0.0183,"nx":112,"ny":82,"refTime":"2023-01-23T06:00:00:Z","depth":0,"parameterNumber":3,"parameterNumberName":"V-component_of_WINDS"},"data":[0.0,0.0,0.0,0.0,0.0,0.0,0.0,0.0,0.0,0.0,0.0,0.0,0.0,0.0,0.0,0.0,0.0,0.0,0.0,0.0,0.0,0.0,0.0,0.0,0.0,0.0,0.0,0.0,0.0,0.0,0.0,0.0,0.0,0.0,0.0,0.0,0.0,0.0,0.0,0.0,0.0,0.0,0.0,0.0,0.0,0.0,0.0,0.0,0.0,0.0,0.0,0.0,0.0,0.0,0.0,0.0,0.0,0.0,0.0,0.0,0.0,0.0,0.0,0.0,0.0,0.0,0.0,0.0,0.0,0.0,0.0,0.0,0.0,0.0,0.0,0.0,0.0,0.0,0.0,0.0,0.0,0.0,0.0,0.0,0.0,0.0,0.0,0.0,0.0,0.0,0.0,-1.2346,-1.2526,-1.2461,-1.2174,-1.154,-1.1345,-1.1687,0.0,0.0,0.0,0.0,0.0,0.0,0.0,0.0,0.0,0.0,0.0,0.0,0.0,0.0,0.0,0.0,0.0,0.0,0.0,0.0,0.0,0.0,0.0,0.0,0.0,0.0,0.0,0.0,0.0,0.0,0.0,0.0,0.0,0.0,0.0,0.0,0.0,0.0,0.0,0.0,0.0,0.0,0.0,0.0,0.0,0.0,0.0,0.0,0.0,0.0,0.0,0.0,0.0,0.0,0.0,0.0,0.0,0.0,0.0,0.0,0.0,0.0,0.0,0.0,0.0,0.0,0.0,0.0,0.0,0.0,0.0,0.0,0.0,0.0,0.0,0.0,0.0,0.0,0.0,0.0,0.0,0.0,0.0,0.0,0.0,0.0,0.0,0.0,0.0,0.0,0.0,0.0,0.0,0.0,0.0,0.0,0.0,0.0,0.0,0.0,0.0,0.0,0.0,0.0,-1.345,-1.2058,-1.1322,-1.0912,-1.0871,-1.0795,-1.1016,-1.1745,0.0,0.0,0.0,0.0,0.0,0.0,0.0,0.0,0.0,0.0,0.0,0.0,0.0,0.0,0.0,0.0,0.0,0.0,0.0,0.0,0.0,0.0,0.0,0.0,0.0,0.0,0.0,0.0,0.0,0.0,0.0,0.0,0.0,0.0,0.0,0.0,0.0,0.0,0.0,0.0,0.0,0.0,0.0,0.0,0.0,0.0,0.0,0.0,0.0,0.0,0.0,0.0,0.0,0.0,0.0,0.0,0.0,0.0,0.0,0.0,0.0,0.0,0.0,0.0,0.0,0.0,0.0,0.0,0.0,0.0,0.0,0.0,0.0,0.0,0.0,0.0,0.0,0.0,0.0,0.0,0.0,0.0,0.0,0.0,0.0,0.0,0.0,0.0,0.0,0.0,0.0,0.0,0.0,0.0,0.0,0.0,0.0,0.0,0.0,0.0,0.0,0.0,0.0,-1.2659,-1.1965,-1.1226,-1.0807,-1.0624,-1.0624,-1.0624,-1.0744,-1.1108,-1.084,0.0,0.0,0.0,0.0,0.0,0.0,0.0,0.0,0.0,0.0,0.0,0.0,0.0,0.0,0.0,0.0,0.0,0.0,0.0,0.0,0.0,0.0,0.0,0.0,0.0,0.0,0.0,0.0,0.0,0.0,0.0,0.0,0.0,0.0,0.0,0.0,0.0,0.0,0.0,0.0,0.0,0.0,0.0,0.0,0.0,0.0,0.0,0.0,0.0,0.0,0.0,0.0,0.0,0.0,0.0,0.0,0.0,0.0,0.0,0.0,0.0,0.0,0.0,0.0,0.0,0.0,0.0,0.0,0.0,0.0,0.0,0.0,0.0,0.0,0.0,0.0,0.0,0.0,0.0,0.0,0.0,0.0,0.0,0.0,0.0,0.0,0.0,0.0,0.0,0.0,0.0,0.0,0.0,0.0,0.0,0.0,0.0,0.0,0.0,0.0,0.0,0.0,-1.1476,-1.0624,-1.0624,-1.0624,-1.0624,-1.0624,-1.0624,-1.0624,-1.0624,-1.0624,0.0,0.0,0.0,0.0,0.0,0.0,0.0,0.0,0.0,0.0,0.0,0.0,0.0,0.0,0.0,0.0,0.0,0.0,0.0,0.0,0.0,0.0,0.0,0.0,0.0,0.0,0.0,0.0,0.0,0.0,0.0,0.0,0.0,0.0,0.0,0.0,0.0,0.0,0.0,0.0,0.0,0.0,0.0,0.0,0.0,0.0,0.0,0.0,0.0,0.0,0.0,0.0,0.0,0.0,0.0,0.0,0.0,0.0,0.0,0.0,0.0,0.0,0.0,0.0,0.0,0.0,0.0,0.0,0.0,0.0,0.0,0.0,0.0,0.0,0.0,0.0,0.0,0.0,0.0,0.0,0.0,0.0,0.0,0.0,0.0,0.0,0.0,0.0,0.0,0.0,0.0,0.0,0.0,0.0,0.0,0.0,0.0,0.0,0.0,0.0,0.0,0.0,-1.1108,-1.0624,-1.0624,-1.0624,-1.0624,-1.0624,-1.0624,-1.0624,-1.0624,-1.0624,0.0,0.0,0.0,0.0,0.0,0.0,0.0,0.0,0.0,0.0,0.0,0.0,0.0,0.0,0.0,0.0,0.0,0.0,0.0,0.0,0.0,0.0,0.0,0.0,0.0,0.0,0.0,0.0,0.0,0.0,0.0,0.0,0.0,0.0,0.0,0.0,0.0,0.0,0.0,0.0,0.0,0.0,0.0,0.0,0.0,0.0,0.0,0.0,0.0,0.0,0.0,0.0,0.0,0.0,0.0,0.0,0.0,0.0,0.0,0.0,0.0,0.0,0.0,0.0,0.0,0.0,0.0,0.0,0.0,0.0,0.0,0.0,0.0,0.0,0.0,0.0,0.0,0.0,0.0,0.0,0.0,0.0,0.0,0.0,0.0,0.0,0.0,0.0,0.0,0.0,0.0,0.0,0.0,0.0,0.0,0.0,0.0,0.0,0.0,0.0,0.0,0.0,-1.1108,-1.0624,0.0,-1.0624,-1.0624,-1.0624,-1.0624,-1.0624,-1.0624,0.0,0.0,0.0,0.0,0.0,0.0,0.0,0.0,0.0,0.0,0.0,0.0,0.0,0.0,0.0,0.0,0.0,0.0,0.0,0.0,0.0,0.0,0.0,0.0,0.0,0.0,0.0,0.0,0.0,0.0,0.0,0.0,0.0,0.0,0.0,0.0,0.0,0.0,0.0,0.0,0.0,0.0,0.0,0.0,0.0,0.0,0.0,0.0,0.0,0.0,0.0,0.0,0.0,0.0,0.0,0.0,0.0,0.0,0.0,0.0,0.0,0.0,0.0,0.0,0.0,0.0,0.0,0.0,0.0,0.0,0.0,0.0,0.0,0.0,0.0,0.0,0.0,0.0,0.0,0.0,0.0,0.0,0.0,0.0,0.0,0.0,0.0,0.0,0.0,0.0,0.0,0.0,0.0,0.0,0.0,0.0,0.0,0.0,0.0,0.0,0.0,0.0,-1.1469,-1.0926,-1.0624,0.0,-1.0624,-1.0624,-1.0624,-1.0624,-1.0624,-1.0624,0.0,0.0,0.0,0.0,0.0,0.0,0.0,0.0,0.0,0.0,0.0,0.0,0.0,0.0,0.0,0.0,0.0,0.0,0.0,0.0,0.0,0.0,0.0,0.0,0.0,0.0,0.0,0.0,0.0,0.0,0.0,0.0,0.0,0.0,0.0,0.0,0.0,0.0,0.0,0.0,0.0,0.0,0.0,0.0,0.0,0.0,0.0,0.0,0.0,0.0,0.0,0.0,0.0,0.0,0.0,0.0,0.0,0.0,0.0,0.0,0.0,0.0,0.0,0.0,0.0,0.0,0.0,0.0,0.0,0.0,0.0,0.0,0.0,0.0,0.0,0.0,0.0,0.0,0.0,0.0,0.0,0.0,0.0,0.0,0.0,0.0,0.0,0.0,0.0,0.0,0.0,0.0,0.0,0.0,0.0,0.0,0.0,0.0,0.0,0.0,0.0,0.0,-1.0681,-1.0624,-1.0624,-1.0624,-1.0631,-1.0631,-1.0631,-1.0631,-1.0631,0.0,0.0,0.0,0.0,0.0,0.0,0.0,0.0,0.0,0.0,0.0,0.0,0.0,0.0,0.0,0.0,0.0,0.0,0.0,0.0,0.0,0.0,0.0,0.0,0.0,0.0,0.0,0.0,0.0,0.0,0.0,0.0,0.0,0.0,0.0,0.0,0.0,0.0,0.0,0.0,0.0,0.0,0.0,0.0,0.0,0.0,0.0,0.0,0.0,0.0,0.0,0.0,0.0,0.0,0.0,0.0,0.0,0.0,0.0,0.0,0.0,0.0,0.0,0.0,0.0,0.0,0.0,0.0,0.0,0.0,0.0,0.0,0.0,0.0,0.0,0.0,0.0,0.0,0.0,0.0,0.0,0.0,0.0,0.0,0.0,0.0,0.0,0.0,0.0,0.0,0.0,0.0,0.0,0.0,0.0,0.0,0.0,0.0,0.0,0.0,0.0,0.0,0.0,0.0,-1.0742,-1.0868,-1.0868,-1.1049,-1.1169,-1.1169,-1.1169,-1.1169,-1.1169,0.0,0.0,0.0,0.0,0.0,0.0,0.0,0.0,0.0,0.0,0.0,0.0,0.0,0.0,0.0,0.0,0.0,0.0,0.0,0.0,0.0,0.0,0.0,0.0,0.0,0.0,0.0,0.0,0.0,0.0,0.0,0.0,0.0,0.0,0.0,0.0,0.0,0.0,0.0,0.0,0.0,0.0,0.0,0.0,0.0,0.0,0.0,0.0,0.0,0.0,0.0,0.0,0.0,0.0,0.0,0.0,0.0,0.0,0.0,0.0,0.0,0.0,0.0,0.0,0.0,0.0,0.0,0.0,0.0,0.0,0.0,0.0,0.0,0.0,0.0,0.0,0.0,0.0,0.0,0.0,0.0,0.0,0.0,0.0,0.0,0.0,0.0,0.0,0.0,0.0,0.0,0.0,0.0,0.0,0.0,0.0,0.0,0.0,0.0,0.0,0.0,0.0,-1.0895,-1.1056,-1.1169,-1.1169,-1.1323,-1.1423,-1.1423,-1.1423,-1.1217,-1.0861,0.0,0.0,0.0,0.0,0.0,0.0,0.0,0.0,0.0,0.0,0.0,0.0,0.0,0.0,0.0,0.0,0.0,0.0,0.0,0.0,0.0,0.0,0.0,0.0,0.0,0.0,0.0,0.0,0.0,0.0,0.0,0.0,0.0,0.0,0.0,0.0,0.0,0.0,0.0,0.0,0.0,0.0,0.0,0.0,0.0,0.0,0.0,0.0,0.0,0.0,0.0,0.0,0.0,0.0,0.0,0.0,0.0,0.0,0.0,0.0,0.0,0.0,0.0,0.0,0.0,0.0,0.0,0.0,0.0,0.0,0.0,0.0,0.0,0.0,0.0,0.0,0.0,0.0,0.0,0.0,0.0,0.0,0.0,0.0,0.0,0.0,0.0,0.0,0.0,0.0,0.0,0.0,0.0,0.0,0.0,0.0,0.0,0.0,0.0,0.0,0.0,0.0,-1.1396,-1.145,-1.1394,-1.1325,-1.1352,-1.1365,-1.1365,-1.1227,-1.0868,-1.002,0.0,0.0,0.0,0.0,0.0,0.0,0.0,0.0,0.0,0.0,0.0,0.0,0.0,0.0,0.0,0.0,0.0,0.0,0.0,0.0,0.0,0.0,0.0,0.0,0.0,0.0,0.0,0.0,0.0,0.0,0.0,0.0,0.0,0.0,0.0,0.0,0.0,0.0,0.0,0.0,0.0,0.0,0.0,0.0,0.0,0.0,0.0,0.0,0.0,0.0,0.0,0.0,0.0,0.0,0.0,0.0,0.0,0.0,0.0,0.0,-0.9626,0.0,0.0,0.0,0.0,0.0,0.0,0.0,0.0,0.0,0.0,0.0,0.0,0.0,0.0,0.0,0.0,0.0,0.0,0.0,0.0,0.0,0.0,0.0,0.0,0.0,0.0,0.0,0.0,0.0,0.0,0.0,0.0,0.0,0.0,0.0,0.0,0.0,0.0,0.0,0.0,0.0,-1.1416,-1.163,-1.1481,-1.0688,-1.0791,-1.0918,-1.0918,-1.0188,-0.9966,-1.0545,0.0,0.0,0.0,0.0,0.0,0.0,0.0,0.0,0.0,0.0,0.0,0.0,0.0,0.0,0.0,0.0,0.0,0.0,0.0,0.0,0.0,0.0,0.0,0.0,0.0,0.0,0.0,0.0,0.0,0.0,0.0,0.0,0.0,0.0,0.0,0.0,0.0,0.0,0.0,0.0,0.0,0.0,0.0,0.0,0.0,0.0,0.0,0.0,0.0,0.0,0.0,0.0,0.0,0.0,0.0,0.0,0.0,0.0,0.0,0.0,0.0,-0.9686,0.0,0.0,0.0,0.0,0.0,0.0,0.0,0.0,0.0,0.0,0.0,0.0,0.0,0.0,0.0,0.0,0.0,0.0,0.0,0.0,0.0,0.0,0.0,0.0,0.0,0.0,0.0,0.0,0.0,0.0,0.0,0.0,0.0,0.0,0.0,0.0,0.0,0.0,0.0,0.0,-1.183,-1.1539,-1.118,-1.0663,-1.0261,-1.0115,-1.0115,-0.9593,-0.9296,-0.9362,-0.9175,0.0,0.0,0.0,0.0,0.0,0.0,0.0,0.0,0.0,0.0,0.0,0.0,0.0,0.0,0.0,0.0,0.0,0.0,0.0,0.0,0.0,0.0,0.0,0.0,0.0,0.0,0.0,0.0,0.0,0.0,0.0,0.0,0.0,0.0,0.0,0.0,0.0,0.0,0.0,0.0,0.0,0.0,0.0,0.0,0.0,0.0,0.0,0.0,0.0,0.0,0.0,0.0,0.0,0.0,-1.0624,-1.0624,-1.0624,-1.0624,-1.0598,-1.0047,-0.984,-0.984,0.0,0.0,0.0,0.0,0.0,0.0,0.0,0.0,0.0,0.0,0.0,0.0,0.0,0.0,0.0,0.0,0.0,0.0,0.0,0.0,0.0,0.0,0.0,0.0,0.0,-1.053,-1.1082,0.0,0.0,0.0,0.0,0.0,0.0,0.0,0.0,0.0,0.0,0.0,0.0,-1.1822,-1.1242,-1.0634,-1.0335,-0.9518,-0.9069,-0.9069,-0.8841,-0.8466,-0.7859,-0.8389,-0.8389,0.0,0.0,0.0,0.0,0.0,0.0,0.0,0.0,0.0,0.0,0.0,0.0,0.0,0.0,0.0,0.0,0.0,0.0,0.0,0.0,0.0,0.0,0.0,0.0,0.0,0.0,0.0,0.0,0.0,0.0,0.0,0.0,-1.0684,-1.0842,0.0,0.0,0.0,0.0,0.0,0.0,0.0,0.0,0.0,0.0,0.0,0.0,0.0,0.0,-1.0501,-1.0604,-1.0624,-1.0624,-1.0624,-1.0624,-1.0624,-1.0624,-1.0624,-1.0618,-1.0544,0.0,-1.0504,-1.0504,0.0,0.0,0.0,0.0,0.0,0.0,0.0,0.0,0.0,0.0,0.0,0.0,0.0,0.0,0.0,0.0,0.0,0.0,0.0,0.0,0.0,0.0,-1.1255,-1.122,-1.1233,-1.1436,0.0,-1.155,-1.1376,-1.1416,0.0,0.0,0.0,0.0,0.0,0.0,0.0,0.0,-0.9895,-1.034,-1.011,-0.8385,-0.8084,-0.8012,-0.8012,-0.7176,-0.7022,-0.7783,-0.7099,-0.6644,-0.649,-0.7326,0.0,0.0,0.0,0.0,0.0,0.0,0.0,0.0,0.0,0.0,0.0,0.0,0.0,0.0,0.0,0.0,0.0,0.0,0.0,0.0,0.0,0.0,0.0,0.0,0.0,0.0,0.0,0.0,0.0,-1.0296,-1.0443,-1.0625,-1.035,-1.0241,0.0,0.0,0.0,0.0,0.0,0.0,0.0,0.0,0.0,-1.0624,-1.0624,-1.0641,-1.0802,-1.0802,-1.0882,-1.1049,-1.1049,-1.1049,-1.1049,-1.1049,-1.1049,-1.1049,-1.1049,-1.0704,-1.0201,-0.9974,-0.9849,-0.9849,0.0,0.0,0.0,0.0,0.0,-0.9849,-0.9849,0.0,0.0,0.0,0.0,0.0,0.0,0.0,0.0,0.0,0.0,0.0,0.0,0.0,0.0,-0.9417,-0.9586,-1.0016,-1.0352,-1.0323,-1.0388,0.0,-1.1037,-1.093,-1.0539,0.0,0.0,0.0,0.0,0.0,-0.9448,-0.9216,-0.8761,-0.7859,-0.7326,-0.6945,-0.6945,-0.6567,-0.649,-0.6945,-0.6567,-0.6338,-0.6338,-0.6718,-0.7249,0.0,0.0,0.0,0.0,0.0,0.0,0.0,0.0,0.0,0.0,0.0,0.0,0.0,0.0,0.0,0.0,0.0,0.0,0.0,0.0,0.0,0.0,0.0,0.0,0.0,0.0,0.0,0.0,-1.0234,-1.0314,-1.0598,-1.0624,-1.0624,0.0,0.0,0.0,0.0,0.0,0.0,-1.0624,-1.0698,-1.0675,-1.0675,-1.0742,-1.0882,-1.1102,-1.1102,-1.1209,-1.1423,-1.1423,-1.1423,-1.1423,-1.1423,-1.1423,-1.1423,-1.1142,-1.0579,-0.9846,-0.9548,-0.9331,-0.8997,-0.8327,-0.8129,-0.8129,-0.8129,-0.8662,-0.9462,-0.9462,-1.0055,-1.0782,-1.0782,0.0,-1.1102,-1.1102,0.0,0.0,0.0,0.0,-1.0417,-0.9138,0.0,-0.9477,-0.8268,-0.8448,-0.9005,-0.9261,-0.9296,-0.9523,0.0,-1.0415,-1.019,-0.9448,0.0,0.0,0.0,0.0,-0.9148,-0.8611,-0.8198,-0.777,-0.7536,-0.6838,-0.6373,-0.6373,-0.6373,-0.6373,-0.6373,-0.6373,-0.6373,-0.6373,-0.6373,-0.6763,0.0,0.0,0.0,0.0,0.0,0.0,0.0,0.0,0.0,0.0,0.0,0.0,0.0,0.0,0.0,0.0,0.0,0.0,0.0,0.0,0.0,0.0,0.0,0.0,0.0,0.0,0.0,0.0,0.0,0.0,-1.0624,-1.0624,0.0,0.0,0.0,0.0,-1.0624,-1.0624,-1.0624,-1.0624,-1.0822,-1.0969,-1.0969,-1.1236,-1.139,-1.1403,-1.1403,-1.141,-1.1423,-1.1423,-1.1423,-1.1423,-1.1423,-1.1423,-1.1354,-1.0372,-0.9944,-0.9875,-0.9852,-0.928,-0.8439,-0.8369,-0.8369,-0.8369,-0.8369,-0.9002,-0.984,-0.984,-1.0535,-1.1383,-1.1383,-1.1396,-1.1403,-1.1403,-1.071,0.0,0.0,-0.9724,-0.8978,-0.9205,-0.9261,-0.9341,-0.92,-0.9281,-0.9286,-0.9296,-0.9296,-0.9301,0.0,-0.9372,-0.9372,-0.9296,0.0,-0.8998,-0.8008,-0.8773,-0.8811,-0.6853,-0.755,-0.7816,-0.684,-0.6678,-0.6678,-0.6678,-0.6678,-0.6678,-0.6678,-0.6678,-0.6678,-0.6678,-0.6678,-0.6678,-0.6761,-0.6678,0.0,0.0,0.0,0.0,0.0,0.0,0.0,0.0,0.0,0.0,0.0,0.0,0.0,0.0,0.0,0.0,0.0,0.0,0.0,0.0,0.0,0.0,0.0,0.0,0.0,0.0,0.0,0.0,-1.0624,-1.0624,0.0,0.0,-1.0728,-1.0835,-1.0835,-1.1009,-1.1116,-1.1116,-1.1216,-1.1269,-1.1269,-1.1557,-1.1797,-1.1991,-1.2178,-1.2378,-1.2579,-1.179,-1.1474,-1.1481,-1.0631,-1.0324,-1.0324,-0.9935,-0.9396,-0.8768,-0.8708,-0.8273,-0.7495,-0.6932,-0.6718,-0.6718,-0.6718,-0.7283,-0.8202,-0.8834,-0.9672,-1.0465,-1.0713,-1.0768,-1.0663,-1.0182,-0.9789,-0.9516,-0.967,-0.9394,-0.8965,-0.8443,-0.8313,-0.8161,-0.7553,-0.7403,-0.7358,-0.7466,-0.7485,-0.7521,-0.7637,-0.8021,-0.8124,-0.7622,-0.7485,-0.7367,-0.7167,-0.7469,-0.7423,-0.6699,-0.699,-0.7109,-0.6698,-0.6702,-0.6702,-0.6702,-0.6702,-0.6702,-0.6702,-0.6702,-0.6702,-0.6702,-0.6702,-0.6702,-0.6702,-0.6702,-0.6702,0.0,0.0,0.0,0.0,0.0,0.0,0.0,0.0,0.0,0.0,0.0,0.0,0.0,0.0,0.0,0.0,0.0,0.0,0.0,0.0,0.0,0.0,0.0,0.0,0.0,0.0,-1.0658,-1.0695,-1.0701,-1.0742,-1.0842,-1.1022,-1.1136,-1.1136,-1.1316,-1.147,-1.157,-1.1663,-1.1764,-1.187,-1.2164,-1.2412,-1.2605,-1.2806,-1.3006,-1.3206,-1.2466,-1.2062,-1.2062,-1.0842,-1.0272,-1.0272,-0.9543,-0.8814,-0.8156,-0.7712,-0.7305,-0.6915,-0.6215,-0.5956,-0.5956,-0.5956,-0.654,-0.7483,-0.8495,-0.9211,-0.9735,-0.9969,-1.0025,-0.9906,-0.9476,-0.9069,-0.878,-0.8846,-0.8635,-0.8194,-0.7564,-0.7423,-0.7265,-0.6565,-0.641,-0.6434,-0.6529,-0.6549,-0.658,-0.6681,-0.7101,-0.7221,-0.6694,-0.6549,-0.6583,-0.6685,-0.6746,-0.6776,-0.6776,-0.682,-0.6848,-0.6848,-0.6848,-0.6848,-0.6848,-0.6848,-0.6848,-0.6848,-0.6848,-0.6848,-0.6848,-0.6848,-0.6848,-0.6848,-0.6848,-0.6824,-0.6776,0.0,0.0,0.0,0.0,0.0,0.0,0.0,0.0,0.0,0.0,0.0,0.0,0.0,0.0,0.0,0.0,0.0,0.0,0.0,0.0,0.0,0.0,0.0,-1.0638,-1.0638,-1.0681,-1.0969,-1.1009,-1.1116,-1.1396,-1.143,-1.1443,-1.145,-1.1463,-1.1597,-1.1897,-1.2178,-1.2465,-1.2829,-1.306,-1.3227,-1.3227,-1.3233,-1.324,-1.324,-1.3154,-1.3154,-1.3154,-1.192,-1.1427,-1.1267,-0.9073,-0.8185,-0.8102,-0.7116,-0.6709,-0.6678,-0.6386,-0.6274,-0.6274,-0.6274,-0.6964,-0.7953,-0.8937,-0.9322,-0.9316,-0.9241,-0.9241,-0.9241,-0.9241,-0.856,-0.7756,-0.7928,-0.7266,-0.6515,-0.6661,-0.6702,-0.6702,-0.6702,-0.6702,-0.6702,-0.6705,-0.6709,-0.6709,-0.6712,-0.6715,-0.6712,-0.6709,-0.6709,-0.6709,-0.6712,-0.6841,0.0,-0.6936,-0.7054,-0.7139,-0.7139,-0.7139,-0.7139,-0.7139,-0.7139,-0.7139,-0.7139,-0.7139,-0.7139,-0.7139,-0.7139,-0.7139,-0.7139,-0.7139,-0.7071,-0.6936,0.0,0.0,0.0,0.0,0.0,0.0,0.0,0.0,0.0,0.0,0.0,0.0,0.0,0.0,0.0,0.0,0.0,0.0,0.0,0.0,0.0,0.0,-1.0875,-1.0875,-1.0875,-1.0982,-1.1269,-1.1309,-1.1336,-1.1416,-1.1623,-1.183,-1.2044,-1.2258,-1.2518,-1.2826,-1.2919,-1.2999,-1.308,-1.3367,-1.3527,-1.3527,-1.3741,-1.3848,-1.3848,-1.2977,-1.2547,-1.2463,-1.0519,-0.9586,-0.9501,-0.8045,-0.7361,-0.735,-0.6991,-0.6865,-0.6848,-0.6654,-0.658,-0.658,-0.658,-0.7219,-0.8099,-0.8417,-0.8974,-0.9453,-0.8738,-0.8497,-0.8336,-0.7619,-0.7219,-0.699,-0.7029,-0.688,-0.6647,-0.6688,-0.6702,-0.6702,-0.6702,-0.6702,-0.6729,-0.6844,-0.6865,-0.6898,-0.7,-0.7017,-0.6987,-0.6881,-0.6865,-0.6902,-0.7004,0.0,0.0,-0.7082,-0.7115,-0.7139,-0.7139,-0.7139,-0.7139,-0.7139,-0.7139,-0.7139,0.0,-0.7139,-0.7139,-0.7139,-0.7139,-0.7139,-0.7139,-0.7139,-0.7122,0.0,0.0,0.0,0.0,0.0,0.0,0.0,0.0,0.0,0.0,0.0,0.0,0.0,0.0,0.0,0.0,0.0,0.0,0.0,0.0,0.0,0.0,-1.0827,-1.0731,-1.1275,-1.1256,-1.1283,-1.1577,-1.1717,-1.1844,-1.1971,-1.1797,-1.2029,-1.2589,-1.2441,-1.2582,-1.3293,-1.3394,-1.3447,-1.3574,-1.3741,-1.3828,-1.3828,-1.4001,-1.4088,-1.4088,-1.3379,-1.3027,-1.2942,-1.0702,-0.9579,0.0,-0.7837,-0.7139,-0.7132,-0.7051,-0.7017,0.0,0.0,0.0,0.0,0.0,-0.7109,-0.7596,-0.7596,-0.7922,-0.8328,-0.7761,-0.7596,-0.7435,-0.6864,-0.6702,-0.6715,-0.6776,-0.6797,-0.681,-0.6868,-0.6885,-0.6885,-0.6885,-0.6885,-0.6909,-0.6997,-0.7017,-0.7041,-0.7126,0.0,0.0,-0.7031,-0.7017,-0.7044,-0.7129,-0.7139,-0.7139,0.0,-0.7139,-0.7139,-0.7139,-0.7139,-0.7139,-0.7139,-0.7139,0.0,0.0,0.0,-0.7139,-0.7139,-0.7139,0.0,0.0,0.0,-0.7139,0.0,0.0,0.0,0.0,-0.6976,-0.7017,0.0,0.0,0.0,0.0,0.0,0.0,0.0,0.0,0.0,0.0,0.0,0.0,0.0,0.0,0.0,0.0,-1.0414,-1.0219,-1.1436,-1.1499,-1.153,-1.1937,-1.2198,-1.239,-1.2606,-1.1909,-1.1908,-1.2769,-1.1944,-1.1891,-1.3168,0.0,0.0,0.0,0.0,-1.3828,-1.4088,-1.3997,-1.3913,-1.3913,-1.3913,-1.3822,-1.3652,-1.1391,-1.0438,-1.0265,-0.8097,-0.7139,-0.7139,-0.7139,-0.7139,-0.7112,-0.6851,-0.6749,-0.6749,-0.6749,-0.6749,0.0,0.0,0.0,0.0,-0.6749,-0.6749,-0.6749,-0.6749,-0.6749,-0.6776,-0.6915,-0.6953,-0.6983,-0.7105,-0.7139,-0.7139,-0.7139,-0.7139,-0.7139,-0.7139,-0.7139,-0.7139,-0.7139,-0.7139,-0.7139,-0.7139,-0.7139,-0.7139,-0.7139,-0.7139,0.0,-0.7139,-0.7139,-0.7139,-0.7139,0.0,0.0,-0.7139,-0.7139,-0.7139,-0.7139,-0.7139,-0.7139,-0.7139,-0.7139,-0.7139,-0.7139,-0.7139,-0.7139,-0.7139,-0.7139,-0.7139,-0.7139,-0.7139,-0.7139,0.0,0.0,0.0,0.0,0.0,0.0,0.0,0.0,0.0,0.0,0.0,0.0,0.0,0.0,0.0,-1.0586,-0.9675,-0.9176,-0.9723,-1.064,-1.1595,-1.2496,-1.2701,-1.2459,-1.1787,-1.1615,-1.1329,-1.0787,-1.0554,-1.0648,-1.1134,-1.115,0.0,-1.2589,-1.1729,-1.2169,-1.4088,-1.3118,-1.2674,-1.2674,0.0,0.0,-1.1219,-0.984,-0.9235,-0.9148,-0.7753,-0.7139,-0.7139,-0.7139,-0.7139,-0.7136,-0.7078,-0.7054,-0.7054,-0.7054,-0.7054,-0.7054,-0.7054,-0.7054,-0.7054,-0.7054,-0.7054,-0.7054,-0.7054,-0.7054,0.0,-0.7092,-0.7099,-0.7105,-0.7132,-0.7139,-0.7139,-0.7139,-0.7139,-0.7139,-0.7139,-0.7139,-0.7139,-0.7139,-0.7139,-0.7139,-0.7139,-0.7139,-0.7139,-0.7139,-0.7139,-0.7139,-0.7139,-0.7139,-0.7139,-0.7139,-0.7139,-0.7139,-0.7139,-0.7139,-0.7139,-0.7139,-0.7139,-0.7139,-0.7139,-0.7139,-0.7139,-0.7139,-0.7139,-0.7139,-0.7139,-0.7139,-0.7139,-0.7139,-0.7139,-0.7139,0.0,0.0,0.0,0.0,0.0,0.0,0.0,0.0,0.0,0.0,0.0,-0.9567,0.0,0.0,-0.965,-0.9849,-0.8971,-0.8524,-0.9269,-0.9549,-1.0006,-1.1022,-1.1884,-1.1938,-1.0925,-1.0466,-1.0243,-1.0354,-0.9857,-0.99,-1.0519,-1.0611,-1.0864,-1.1466,-1.0864,-1.1133,-1.2345,-1.1729,-1.1466,-1.1466,-1.1466,-1.1123,-1.0524,-0.941,-0.889,-0.8803,-0.7665,-0.7139,-0.7139,-0.7139,-0.7139,-0.7139,-0.7139,-0.7139,-0.7139,-0.7139,-0.7139,-0.7139,-0.7139,-0.7139,-0.7139,-0.7139,-0.7139,-0.7139,-0.7139,-0.7139,-0.7139,-0.7139,-0.7139,-0.7139,-0.7139,-0.7139,-0.7139,-0.7139,-0.7139,-0.7139,-0.7139,-0.7139,-0.7139,-0.7139,-0.7139,-0.7139,-0.7139,-0.7139,-0.7139,-0.7139,-0.7139,-0.7139,-0.7139,-0.7139,-0.7139,-0.7139,-0.7139,-0.7139,-0.7139,-0.7139,-0.7139,-0.7139,-0.7139,-0.7139,-0.7139,-0.7139,-0.7139,-0.7139,-0.7139,-0.7139,-0.7139,-0.7139,-0.7139,-0.7139,-0.7139,-0.7139,0.0,0.0,0.0,0.0,0.0,0.0,0.0,0.0,-0.8694,-0.9513,-0.9251,-0.9103,-1.0031,-0.9543,-0.8998,-0.8998,-0.8192,-0.7884,-0.8806,-0.8502,-0.8315,-0.895,-1.055,-1.1133,-1.009,-0.9316,-0.9148,-0.9831,-0.9056,-0.8973,-0.9831,-0.9918,-1.0005,-1.0265,-1.0005,-1.0178,-1.0611,-1.0351,-1.0269,-1.0269,-1.0269,-1.0178,-0.9918,-0.8969,-0.854,-0.8452,-0.7492,-0.7139,-0.7139,-0.7139,-0.7139,-0.7139,-0.7139,-0.7139,-0.7139,-0.7139,-0.7139,-0.7139,-0.7139,-0.7139,-0.7139,-0.7139,-0.7139,-0.7139,-0.7139,-0.7139,-0.7139,-0.7139,-0.7139,-0.7139,-0.7139,-0.7139,-0.7139,-0.7139,-0.7139,-0.7139,-0.7139,-0.7139,-0.7139,-0.7139,-0.7139,-0.7139,-0.7139,-0.7139,-0.7139,-0.7139,-0.7139,-0.7139,-0.7139,-0.7139,-0.7139,-0.7139,-0.7139,-0.7139,-0.7139,-0.7139,-0.7139,-0.7139,-0.7139,-0.7139,-0.7139,-0.7139,-0.7139,-0.7139,-0.7139,-0.7139,-0.7139,-0.7139,-0.7156,-0.7183,-0.7183,-0.717,0.0,0.0,0.0,-0.74,-0.7599,-0.801,0.0,0.0,-0.8674,-0.8867,-0.9005,-0.9165,-0.937,-0.8599,-0.7936,-0.7936,-0.7219,-0.669,-0.6784,-0.7843,-0.8295,-0.7296,-0.9083,-1.0025,-0.91,-0.8965,-0.854,-0.7573,-0.7401,-0.7316,-0.7489,-0.7489,-0.8013,-0.9061,-0.8013,-0.8532,-1.0611,-0.9579,-0.9061,-0.9061,-0.9061,-0.854,-0.7489,-0.7404,-0.7316,-0.7316,-0.7139,-0.7139,-0.7139,-0.7139,-0.7139,-0.7139,-0.7139,-0.7139,-0.7139,-0.7139,-0.7139,-0.7139,-0.7139,-0.7139,-0.7139,-0.7139,-0.7139,-0.7139,-0.7139,-0.7139,-0.7139,-0.7139,-0.7139,-0.7139,-0.7139,-0.7139,-0.7139,-0.7139,-0.7139,-0.7139,-0.7139,-0.7139,-0.7139,-0.7139,-0.7139,-0.7139,-0.7139,-0.7139,-0.7139,-0.7139,-0.7139,-0.7139,-0.7139,-0.7139,-0.7139,-0.7139,-0.7139,-0.7139,-0.7139,-0.7139,-0.7139,-0.7139,-0.7139,-0.7139,-0.7139,-0.7139,-0.7139,-0.7139,-0.7139,-0.7139,-0.7139,-0.7139,-0.721,-0.7346,-0.7346,-0.7272,-0.9248,0.0,0.0,0.0,-0.662,-0.7001,-0.7292,-0.7755,-0.8305,-0.8981,-0.8707,-0.8364,-0.8452,-0.7629,-0.6979,0.0,-0.6748,-0.6532,-0.6712,-0.7264,-0.7465,-0.7041,-0.7824,-0.8281,-0.7921,-0.7841,-0.7665,-0.7139,-0.7139,-0.7139,-0.7139,-0.7139,-0.7316,-0.7841,-0.7404,-0.7573,-0.8532,-0.8101,-0.7841,-0.7841,-0.7841,-0.7577,-0.7139,-0.7139,-0.7139,-0.7139,-0.7139,-0.7139,-0.7139,-0.7139,-0.7139,-0.7139,-0.7139,-0.7139,-0.7139,-0.7139,-0.7139,-0.7139,-0.7139,-0.7139,-0.7139,-0.7139,-0.7139,-0.7139,-0.7139,-0.7139,-0.7139,-0.7139,-0.7139,-0.7139,-0.7139,-0.7139,-0.7139,-0.7139,-0.7139,-0.7139,-0.7139,-0.7139,-0.7139,-0.7139,-0.7214,-0.7275,-0.7275,-0.735,-0.7407,-0.7407,-0.7255,-0.7173,-0.7261,-0.7275,-0.7309,-0.7397,-0.7407,-0.7407,-0.7407,-0.7407,-0.7407,-0.7407,-0.7407,-0.7407,-0.7407,-0.7407,-0.7407,-0.7407,-0.7319,-0.723,-0.723,-0.723,-0.7356,-0.7416,-0.7506,-0.7468,-0.8617,0.0,0.0,-0.6281,-0.5945,-0.6186,-0.697,-0.7534,-0.7936,-0.8389,-0.8089,-0.7706,-0.7403,-0.6795,0.0,-0.6451,-0.6508,-0.6627,-0.6892,-0.6963,-0.7024,-0.7129,-0.7139,-0.7139,-0.7139,-0.7139,-0.7139,-0.7139,-0.7139,-0.7139,-0.7139,-0.7139,-0.7139,-0.7139,-0.7139,-0.7139,-0.7139,-0.7139,-0.7139,-0.7139,-0.7139,-0.7139,-0.7139,-0.7139,-0.7139,-0.7139,-0.7139,-0.7139,-0.7139,-0.7139,-0.7139,-0.7139,-0.7139,-0.7139,-0.7139,-0.7139,-0.7139,-0.7139,-0.7139,-0.7139,-0.7139,-0.7139,-0.7139,-0.7139,-0.7139,-0.7139,-0.7139,-0.7139,-0.7139,-0.7139,-0.7139,-0.7139,-0.7139,-0.7139,-0.7139,-0.7153,-0.7193,-0.7204,-0.7217,-0.7258,-0.736,-0.7434,-0.7434,-0.7526,-0.76,-0.76,-0.7411,-0.7309,-0.7421,-0.7434,-0.7478,-0.7587,-0.76,-0.76,-0.76,-0.76,-0.76,-0.76,-0.76,-0.76,-0.76,-0.76,-0.76,-0.76,-0.7513,-0.7422,-0.7422,-0.6938,-0.7054,-0.7485,-0.7567,-0.7682,0.0,0.0,-0.8184,-0.6423,-0.6027,-0.6067,-0.6297,-0.7096,-0.7557,-0.6567,-0.7176,-0.748,-0.649,-0.6338,-0.6308,-0.6451,-0.6597,-0.6749,-0.6905,-0.7048,-0.7136,-0.7139,-0.7139,-0.7139,0.0,-0.7139,-0.7139,-0.7139,-0.7139,-0.7139,-0.7139,-0.7139,-0.7139,-0.7139,-0.7139,-0.7139,-0.7139,-0.7139,-0.7139,-0.7139,-0.7139,-0.7139,-0.7139,-0.7139,-0.7139,-0.7139,-0.7139,-0.7139,-0.7139,-0.7139,-0.7139,-0.7139,-0.7139,-0.7139,-0.7139,-0.7139,-0.7139,-0.7139,-0.7139,-0.7139,-0.7139,-0.7139,-0.7139,-0.7139,-0.7139,-0.7139,-0.7139,-0.7139,-0.7139,-0.7139,-0.7139,-0.7139,-0.7139,-0.7139,-0.7139,-0.718,-0.7333,-0.7363,-0.7407,-0.7556,-0.759,-0.7594,-0.7594,-0.7597,-0.76,-0.76,-0.759,-0.7587,-0.7594,-0.7594,-0.7594,-0.76,-0.76,-0.76,-0.76,-0.76,-0.76,-0.76,-0.76,-0.76,-0.76,-0.76,-0.76,-0.76,-0.7513,-0.7422,-0.7422,-0.5879,-0.6034,-0.7738,-0.7717,-0.7885,0.0,0.0,-0.857,-0.6695,-0.6183,-0.6423,-0.7161,-0.7553,-0.7706,-0.7326,-0.7553,-0.748,-0.649,-0.6338,-0.6339,-0.6583,-0.6668,-0.6787,-0.7034,-0.7109,-0.7139,-0.7139,-0.7139,0.0,0.0,0.0,0.0,-0.7139,-0.7139,-0.7139,-0.7139,-0.7139,-0.7139,-0.7139,-0.7139,-0.7139,-0.7139,-0.7139,-0.7139,-0.7139,-0.7139,-0.7139,-0.7139,-0.7139,-0.7139,-0.7139,-0.7139,-0.72,-0.7292,-0.7292,-0.7353,-0.7444,-0.7444,-0.7444,-0.7444,-0.7444,-0.7444,-0.7417,-0.721,-0.7139,-0.7139,-0.7139,-0.7139,-0.7139,-0.7139,-0.7139,-0.7163,-0.7265,-0.7292,-0.7319,-0.7417,-0.7444,-0.7444,-0.7444,-0.7444,-0.7461,-0.7512,-0.7522,-0.7539,-0.759,-0.7675,-0.774,-0.774,-0.7824,-0.7892,-0.7892,-0.7804,-0.774,-0.774,-0.7828,-0.7892,-0.7892,-0.7892,-0.7892,-0.7892,-0.7892,-0.7892,-0.7892,-0.7892,-0.7892,-0.7892,-0.7906,-0.7913,-0.7913,-0.7841,-0.7753,-0.7753,-0.3749,-0.3861,-0.7928,-0.7902,-0.7912,0.0,-0.8881,-0.8389,-0.6718,-0.6338,-0.649,-0.7099,-0.7249,-0.7249,-0.7249,-0.7249,-0.7099,-0.6416,-0.6338,-0.6359,-0.6654,-0.6702,-0.6803,-0.7099,-0.7139,-0.7139,-0.7139,-0.7139,0.0,0.0,0.0,0.0,-0.7139,-0.7139,-0.7139,-0.7139,-0.7139,-0.7139,-0.7139,-0.7139,-0.7139,-0.7139,-0.7139,-0.717,-0.7221,-0.7221,-0.7251,-0.7305,-0.7305,-0.7305,-0.7305,-0.7305,-0.736,-0.7451,-0.7451,-0.7509,-0.76,-0.76,-0.76,-0.76,-0.76,-0.76,-0.757,-0.7373,-0.7305,-0.7305,-0.7305,-0.7305,-0.7305,-0.7305,-0.7305,-0.7326,-0.7424,-0.7451,-0.7475,-0.7573,-0.76,-0.76,-0.76,-0.76,-0.7614,-0.7665,-0.7675,-0.7692,-0.7746,-0.7831,-0.7892,-0.7892,-0.7974,-0.8038,-0.8038,-0.7957,-0.7892,-0.7892,-0.7977,-0.8038,-0.8038,-0.8038,-0.8038,-0.8038,-0.8038,-0.8038,-0.8038,-0.8038,-0.8041,-0.7952,-0.7965,-0.7563,-0.6545,-0.7494,-0.8026,-0.8022,-0.2618,-0.1811,-0.5151,-0.6147,-0.7056,-0.9593,-0.8542,-0.7553,-0.6567,-0.6338,-0.6338,-0.6338,-0.6338,-0.6338,-0.6338,-0.6338,-0.6338,0.0,0.0,-0.6359,-0.6654,-0.6702,-0.6803,-0.7099,-0.7139,-0.7139,0.0,0.0,0.0,0.0,0.0,0.0,-0.7139,0.0,-0.7139,-0.7139,-0.7139,-0.7139,-0.7139,-0.7139,-0.7143,-0.7153,-0.716,-0.7238,-0.7383,-0.7383,-0.7458,-0.76,-0.76,-0.76,-0.76,-0.76,-0.7604,-0.7611,-0.7611,-0.7614,-0.7621,-0.7621,-0.7621,-0.7621,-0.7621,-0.7621,-0.7621,-0.7621,-0.7611,-0.76,-0.76,-0.76,-0.76,-0.76,-0.76,-0.76,-0.7607,-0.7611,-0.7611,-0.7621,-0.7621,-0.7621,-0.7621,-0.7621,-0.7658,-0.7794,-0.7824,-0.7865,-0.8011,-0.8038,-0.8038,-0.8038,-0.8038,-0.8038,-0.8038,-0.8038,-0.8038,-0.8038,-0.8038,-0.8038,-0.8038,-0.8038,-0.8038,-0.8038,-0.8041,-0.8041,-0.8041,-0.8041,-0.7952,-0.7972,-0.7975,-0.6851,-0.4219,-0.6469,-0.7617,-0.7623,-0.2521,0.0,-0.0101,-0.2619,-0.5144,-0.9372,-0.8542,-0.7553,-0.6567,-0.6338,-0.6338,-0.6338,-0.6338,-0.6338,-0.6338,-0.6338,-0.6338,0.0,0.0,0.0,-0.6654,-0.6702,0.0,-0.7099,-0.7139,0.0,0.0,0.0,-0.7139,-0.7139,-0.7139,0.0,0.0,-0.7139,-0.7139,-0.7139,-0.7139,-0.7139,-0.7139,-0.7139,-0.7193,-0.7312,-0.7424,-0.7502,-0.7543,-0.7543,-0.756,-0.76,-0.76,-0.76,-0.76,-0.76,-0.7658,-0.7756,-0.7756,-0.7824,-0.7926,-0.7926,-0.7926,-0.7926,-0.7926,-0.7926,-0.7926,-0.7926,-0.7784,-0.76,-0.76,-0.76,-0.76,-0.76,-0.76,-0.7621,-0.7729,-0.7756,-0.7784,-0.7896,-0.7926,-0.7926,-0.7926,-0.7926,-0.7936,-0.7974,-0.798,-0.7991,-0.8031,-0.8038,-0.8038,-0.8038,-0.8038,-0.8038,-0.8038,-0.8038,-0.8038,-0.8038,-0.8038,-0.8038,-0.8038,-0.8038,-0.8038,-0.8038,-0.7955,-0.7965,-0.7965,-0.7972,-0.7979,-0.7985,-0.8002,-0.7701,-0.6986,-0.3736,-0.2034,-0.2062,-0.0618,0.0,-0.0,-0.0734,-0.1361,-0.8618,-0.7936,-0.7022,-0.6412,-0.6338,-0.6338,-0.6338,-0.6338,-0.6338,-0.6338,-0.6338,0.0,0.0,0.0,0.0,0.0,0.0,0.0,-0.7099,-0.7139,-0.7139,0.0,-0.7139,0.0,-0.7139,-0.7139,-0.7139,0.0,-0.7139,-0.7139,-0.7139,-0.7139,-0.7139,-0.7139,-0.7207,-0.7316,-0.7468,-0.7556,-0.7631,-0.7692,-0.7692,-0.7729,-0.7794,-0.7794,-0.7794,-0.7794,0.0,-0.7838,-0.7913,-0.7913,-0.7963,-0.8038,-0.8038,-0.8038,-0.8038,-0.8038,-0.8038,-0.8038,-0.8038,-0.7929,-0.7794,-0.7794,-0.7794,-0.7794,-0.7794,-0.7794,-0.7807,-0.7889,-0.7913,-0.7929,-0.8018,-0.8038,-0.8038,-0.8038,-0.8038,-0.8038,-0.8038,-0.8038,-0.8038,-0.8038,-0.8038,-0.8062,-0.813,-0.814,-0.8163,-0.8225,-0.8235,-0.8235,-0.8235,-0.818,-0.814,-0.814,-0.8197,-0.8238,-0.8143,-0.8156,-0.7642,-0.629,-0.6295,-0.6722,-0.7991,-0.8004,-0.6855,-0.4556,-0.1552,0.0,0.0,0.0,0.0,0.0,0.0,0.0,-0.7783,-0.7099,-0.6338,-0.6338,-0.6338,-0.6338,-0.6338,-0.6338,-0.6338,-0.6338,0.0,0.0,-0.6338,0.0,-0.6359,-0.6654,0.0,-0.6803,-0.7099,-0.7139,-0.7139,-0.7139,-0.7139,-0.7139,-0.7139,-0.7139,-0.7139,-0.7139,-0.7139,-0.7139,-0.7139,-0.7139,-0.7149,-0.717,-0.7339,-0.7492,-0.7628,-0.7648,-0.7719,-0.7841,-0.7841,-0.7913,-0.8038,-0.8038,-0.8038,-0.8038,0.0,0.0,-0.8038,-0.8038,-0.8038,-0.8038,-0.8038,-0.8038,-0.8038,-0.8038,-0.8038,-0.8038,-0.8038,-0.8038,-0.8038,-0.8038,-0.8038,-0.8038,-0.8038,-0.8038,-0.8038,-0.8038,-0.8038,-0.8038,-0.8038,-0.8038,-0.8038,-0.8038,-0.8038,-0.8038,-0.8038,-0.8055,-0.8069,-0.8069,-0.8085,-0.814,-0.8275,-0.8299,-0.834,-0.8462,-0.8482,-0.8482,-0.8482,-0.8374,-0.8299,-0.8299,-0.8408,-0.8489,-0.8299,-0.7976,-0.6801,-0.4672,-0.382,-0.4468,-0.6847,-0.6956,-0.4697,-0.0107,0.0,0.0,0.0,0.0,0.0,0.0,0.0,0.0,-0.7553,-0.7099,-0.6338,-0.6338,-0.6338,-0.6338,-0.6338,-0.6338,0.0,0.0,0.0,-0.6338,-0.6338,0.0,0.0,-0.6654,0.0,0.0,0.0,0.0,0.0,0.0,0.0,0.0,0.0,0.0,0.0,0.0,0.0,0.0,-0.7139,-0.7139,-0.72,-0.7326,-0.7594,-0.7746,-0.7773,-0.7899,-0.7977,-0.7997,-0.7997,-0.8014,-0.8038,-0.8038,-0.8038,-0.8038,0.0,0.0,-0.8038,-0.8038,-0.8038,-0.8038,-0.8038,-0.8038,-0.8038,-0.8038,-0.8038,-0.8038,-0.8038,-0.8038,-0.8038,-0.8038,-0.8038,-0.8038,-0.8038,-0.8038,-0.8038,-0.8038,-0.8038,-0.8038,-0.8038,-0.8038,-0.8038,-0.8038,-0.8038,-0.8038,-0.8038,-0.814,-0.8231,-0.8231,-0.8326,-0.8414,-0.8442,-0.8445,-0.8455,-0.8479,-0.8482,-0.8482,-0.8482,-0.8462,-0.8445,-0.8445,-0.8469,-0.8489,-0.8299,-0.6157,-0.5527,-0.7166,-0.3196,-0.0853,-0.1386,-0.1386,-0.096,-0.0,0.0,0.0,0.0,0.0,0.0,0.0,0.0,0.0,-0.6868,-0.6641,-0.6338,-0.6338,-0.6338,-0.6338,-0.6338,0.0,0.0,0.0,0.0,0.0,-0.6338,0.0,0.0,0.0,0.0,0.0,0.0,0.0,0.0,0.0,0.0,0.0,0.0,0.0,0.0,0.0,0.0,0.0,-0.7139,-0.7217,-0.7366,-0.7594,-0.7736,-0.7848,-0.7929,-0.8004,-0.8038,-0.8038,-0.8038,-0.8038,-0.8038,-0.8038,-0.8038,-0.8038,-0.8038,0.0,-0.8038,-0.8038,-0.8038,-0.8038,-0.8038,-0.8038,-0.8038,-0.8038,-0.8038,-0.8038,-0.8038,-0.8038,-0.8038,-0.8038,-0.8038,-0.8038,-0.8038,-0.8038,-0.8038,-0.8038,-0.8038,-0.8038,-0.8038,-0.8038,-0.8038,-0.8038,-0.8102,-0.818,-0.8255,-0.833,-0.8381,-0.8381,-0.8435,-0.8506,-0.8587,-0.8601,-0.8628,-0.8706,-0.872,-0.872,-0.872,-0.872,-0.8689,-0.8608,-0.8682,-0.8639,-0.8659,-0.7339,-0.5802,-0.3943,-0.1423,0.0,0.0,0.0,0.0,0.0,0.0,0.0,0.0,0.0,0.0,0.0,0.0,0.0,-0.6338,-0.6338,-0.6338,-0.6338,-0.6338,-0.6338,-0.6338,-0.6338,0.0,0.0,0.0,0.0,0.0,0.0,0.0,0.0,0.0,0.0,0.0,0.0,0.0,0.0,0.0,0.0,0.0,0.0,0.0,0.0,0.0,0.0,-0.719,-0.7366,-0.7573,-0.7804,-0.7841,-0.7919,-0.8038,-0.8038,-0.8038,-0.8038,-0.8038,-0.8038,-0.8038,-0.8038,-0.8038,-0.8038,-0.8038,0.0,0.0,-0.8038,-0.8038,-0.8038,-0.8038,-0.8038,-0.8038,-0.8038,-0.8038,-0.8038,-0.8038,-0.8038,-0.8038,-0.8038,-0.8038,-0.8038,-0.8038,-0.8038,-0.8038,-0.8038,-0.8062,-0.8089,-0.8089,-0.8113,-0.8136,-0.8136,-0.8228,-0.8347,-0.8459,-0.8509,-0.853,-0.853,-0.8557,-0.8618,-0.8737,-0.876,-0.8801,-0.892,-0.894,-0.894,-0.894,-0.8944,-0.8899,-0.8777,-0.8889,-0.8873,-0.8897,-0.8907,-0.6408,-0.0336,0.0,0.0,0.0,0.0,0.0,0.0,0.0,0.0,0.0,0.0,0.0,0.0,0.0,0.0,-0.6338,-0.6338,-0.6338,-0.6338,-0.6338,-0.6338,-0.6338,0.0,0.0,0.0,0.0,-0.6338,-0.6338,0.0,0.0,0.0,0.0,0.0,0.0,0.0,0.0,0.0,0.0,0.0,0.0,0.0,0.0,0.0,0.0,0.0,0.0,-0.7617,-0.7784,-0.7811,-0.7946,-0.8024,-0.8038,-0.8038,-0.8038,-0.8038,-0.8038,-0.8038,-0.8038,-0.8038,-0.8038,-0.8038,0.0,0.0,0.0,-0.8038,-0.8038,-0.8038,-0.8038,-0.8038,-0.8038,-0.8038,-0.8038,-0.8038,-0.8038,-0.8038,-0.8038,-0.8038,-0.8038,-0.8038,-0.8038,-0.8038,-0.8038,-0.8038,-0.814,-0.8248,-0.8248,-0.8343,-0.8442,-0.8442,-0.8452,-0.8465,-0.8479,-0.8591,-0.8689,-0.8689,-0.8801,-0.8903,-0.8916,-0.8916,-0.8923,-0.8937,-0.894,-0.894,-0.894,-0.8846,-0.8853,-0.884,-0.8853,-0.8876,-0.8907,-0.8913,-0.6408,-0.0336,0.0,0.0,0.0,0.0,0.0,0.0,0.0,0.0,0.0,0.0,0.0,0.0,0.0,0.0,-0.6338,-0.6338,-0.6338,-0.6338,-0.6338,-0.6338,-0.6338,0.0,0.0,-0.6338,-0.6338,-0.6338,-0.6338,-0.6338,0.0,0.0,0.0,0.0,0.0,0.0,0.0,0.0,0.0,0.0,0.0,0.0,0.0,0.0,0.0,0.0,0.0,-0.7746,-0.7851,-0.7946,-0.8007,-0.8038,-0.8038,-0.8038,-0.8038,-0.8038,-0.8038,-0.8038,-0.8038,-0.8038,-0.8038,-0.8038,0.0,0.0,0.0,-0.8038,-0.8038,-0.8038,-0.8038,-0.8038,-0.8038,-0.8038,-0.8038,-0.8038,-0.8038,-0.8038,-0.8055,-0.8147,-0.8177,-0.8177,-0.8177,-0.8177,-0.8194,-0.8282,-0.835,-0.8397,-0.8397,-0.8438,-0.8506,-0.8598,-0.8618,-0.8645,-0.8737,-0.8804,-0.8849,-0.8849,-0.8896,-0.894,-0.894,-0.895,-0.885,-0.885,-0.886,-0.887,-0.887,-0.8876,-0.8886,-0.8893,-0.8893,-0.8897,-0.891,-0.5616,-0.2578,-0.0112,0.0,0.0,0.0,0.0,0.0,0.0,0.0,0.0,0.0,0.0,0.0,0.0,0.0,0.0,-0.6416,-0.6338,-0.6338,-0.6338,-0.6338,-0.6338,0.0,0.0,0.0,-0.6338,-0.6338,-0.6338,-0.6338,-0.6338,-0.6359,-0.6654,0.0,0.0,0.0,0.0,0.0,0.0,0.0,0.0,0.0,0.0,0.0,0.0,0.0,0.0,0.0,-0.7851,-0.7929,-0.8035,-0.8038,-0.8038,-0.8038,-0.8038,-0.8038,-0.8038,-0.8038,-0.8038,-0.8038,-0.8038,-0.8038,-0.8038,0.0,0.0,0.0,-0.8038,-0.8038,-0.8038,-0.8038,-0.8038,-0.8038,-0.8038,-0.8069,-0.8106,-0.8106,-0.8136,-0.8187,-0.8299,-0.8336,-0.835,-0.8397,-0.8377,-0.8364,-0.8472,-0.8533,-0.8471,-0.8625,-0.8638,-0.8665,-0.8774,-0.8798,-0.8828,-0.8826,-0.885,-0.885,-0.885,-0.885,-0.885,-0.885,-0.8863,-0.8641,-0.773,-0.7627,-0.7636,-0.7636,-0.8326,-0.8903,-0.891,-0.892,-0.8233,-0.6408,-0.2466,0.0,0.0,0.0,0.0,0.0,0.0,0.0,0.0,0.0,0.0,0.0,0.0,0.0,0.0,0.0,0.0,-0.6567,-0.6338,-0.6338,-0.6338,-0.6338,-0.6338,0.0,0.0,0.0,-0.6338,-0.6338,-0.6338,-0.6338,-0.6338,-0.6359,-0.6654,-0.6702,0.0,0.0,0.0,0.0,0.0,0.0,0.0,0.0,0.0,0.0,0.0,0.0,0.0,0.0,-0.7957,-0.8038,-0.8038,-0.8038,-0.8038,-0.8038,-0.8038,-0.8038,-0.8038,-0.8038,-0.8038,-0.8038,-0.8038,-0.8038,0.0,0.0,0.0,0.0,-0.8038,-0.8038,-0.8038,-0.8038,-0.8038,-0.8038,-0.8038,-0.8136,-0.8269,-0.8269,-0.836,-0.8479,-0.8479,-0.8387,-0.8325,-0.8582,-0.8415,-0.8302,-0.8438,-0.8548,-0.8587,-0.885,-0.889,-0.889,-0.8893,-0.8893,-0.8893,-0.8893,-0.8897,-0.8897,-0.8897,-0.8897,-0.8897,-0.8897,-0.8897,-0.7865,-0.5033,-0.4583,-0.4583,-0.4583,-0.7075,-0.8913,-0.8913,-0.8933,-0.6539,-0.0561,-0.0,0.0,0.0,0.0,0.0,0.0,0.0,0.0,0.0,0.0,0.0,0.0,0.0,0.0,0.0,0.0,0.0,-0.6535,-0.6338,-0.6338,-0.6338,-0.6338,-0.6338,-0.6338,0.0,0.0,-0.6338,-0.6338,-0.6338,-0.6338,-0.6338,-0.6359,-0.6654,-0.6702,0.0,0.0,0.0,0.0,0.0,0.0,0.0,0.0,0.0,0.0,0.0,0.0,0.0,0.0,0.0,-0.8038,-0.8038,-0.8038,-0.8038,-0.8038,-0.8038,-0.8038,-0.8038,-0.8038,-0.8038,-0.8038,-0.8038,0.0,0.0,0.0,0.0,0.0,-0.8038,-0.8038,-0.8038,-0.8038,-0.8102,-0.8197,-0.8197,-0.8289,-0.8414,-0.8414,-0.8452,-0.8411,-0.8518,-0.8458,-0.8504,-0.8776,-0.7147,-0.5418,-0.5709,-0.5751,-0.5782,-0.5926,-0.5935,-0.5935,-0.5935,-0.5935,-0.5935,-0.5935,-0.5935,-0.5935,-0.5935,-0.5935,-0.5935,-0.5935,-0.753,-0.8565,-0.7647,-0.4033,-0.1456,-0.1456,-0.2241,-0.4379,-0.8476,-0.5286,-0.202,-0.0112,0.0,0.0,0.0,0.0,0.0,0.0,0.0,0.0,0.0,0.0,0.0,0.0,0.0,0.0,0.0,0.0,0.0,0.0,-0.6338,-0.6338,-0.6338,-0.6338,0.0,0.0,0.0,0.0,-0.6338,-0.6338,-0.6338,-0.6338,-0.6338,-0.6359,-0.6654,-0.6702,0.0,0.0,0.0,0.0,0.0,0.0,0.0,0.0,0.0,0.0,0.0,0.0,0.0,0.0,0.0,-0.8038,-0.8038,-0.8038,-0.8038,-0.8038,-0.8038,-0.8038,-0.8038,-0.8038,-0.8038,-0.8038,-0.8038,0.0,0.0,0.0,0.0,0.0,-0.8102,-0.8126,-0.8133,-0.8184,-0.8265,-0.835,-0.8357,-0.8452,-0.8581,-0.8481,-0.8531,-0.8386,-0.7359,-0.7734,-0.8669,-0.889,-0.5908,-0.2537,-0.2787,-0.2796,-0.2796,-0.2796,-0.2796,-0.2796,-0.2796,-0.2796,-0.2796,-0.2796,-0.2796,-0.2796,-0.2796,-0.2796,-0.2796,-0.2796,-0.437,-0.5504,-0.5504,-0.2354,0.0,0.0,0.0,-0.1458,-0.5176,-0.2244,0.0,0.0,0.0,0.0,0.0,0.0,0.0,0.0,0.0,0.0,0.0,0.0,0.0,0.0,0.0,0.0,0.0,0.0,0.0,0.0,0.0,0.0,0.0,0.0,0.0,0.0,0.0,0.0,0.0,0.0,-0.6338,-0.6338,-0.6271,-0.6369,-0.6654,-0.6709,0.0,0.0,0.0,0.0,0.0,0.0,0.0,0.0,0.0,0.0,0.0,0.0,0.0,0.0,0.0,-0.8038,-0.8038,-0.8038,-0.8038,-0.8038,-0.8038,-0.8038,-0.8038,-0.8038,-0.8038,-0.8038,-0.8038,0.0,0.0,0.0,0.0,0.0,-0.8228,-0.8289,-0.8299,-0.8435,-0.8492,-0.8503,-0.8312,-0.8304,-0.832,-0.8231,-0.8553,-0.8326,-0.526,-0.6281,-0.8805,-0.8367,-0.4384,0.0,0.0,0.0,0.0,0.0,0.0,0.0,0.0,0.0,0.0,0.0,0.0,0.0,0.0,0.0,0.0,0.0,0.0,0.0,0.0,0.0,0.0,0.0,0.0,0.0,0.0,0.0,0.0,0.0,0.0,0.0,0.0,0.0,0.0,0.0,0.0,0.0,0.0,0.0,0.0,0.0,0.0,0.0,0.0,0.0,0.0,0.0,0.0,0.0,0.0,0.0,0.0,0.0,0.0,0.0,0.0,0.0,0.0,-0.6338,-0.6349,-0.6485,-0.6671,0.0,0.0,0.0,0.0,0.0,0.0,0.0,0.0,0.0,0.0,0.0,0.0,0.0,0.0,0.0,0.0,-0.8038,-0.8038,-0.8038,-0.8038,-0.8038,-0.8038,-0.8038,-0.8038,-0.8038,-0.8038,-0.8038,-0.8038,0.0,0.0,0.0,0.0,-0.8193,-0.8229,-0.8351,-0.857,-0.8516,-0.8488,-0.8575,-0.8487,-0.7138,-0.5445,-0.545,-0.6935,-0.7994,-0.28,-0.4604,-0.8021,-0.3481,-0.1121,0.0,0.0,0.0,0.0,0.0,0.0,0.0,0.0,0.0,0.0,0.0,0.0,0.0,0.0,0.0,0.0,0.0,0.0,0.0,0.0,0.0,0.0,0.0,0.0,0.0,0.0,0.0,0.0,0.0,0.0,0.0,0.0,0.0,0.0,0.0,0.0,0.0,0.0,0.0,0.0,0.0,0.0,0.0,0.0,0.0,0.0,0.0,0.0,0.0,0.0,0.0,0.0,0.0,0.0,0.0,0.0,0.0,0.0,0.0,0.0,0.0,0.0,0.0,0.0,0.0,0.0,0.0,0.0,0.0,0.0,0.0,0.0,0.0,0.0,0.0,0.0,0.0,0.0,-0.8038,-0.8038,-0.8038,-0.8038,-0.8038,-0.8038,-0.8038,-0.8038,-0.8038,-0.8075,-0.8147,-0.8147,0.0,0.0,0.0,0.0,-0.8428,-0.8381,-0.7642,-0.6674,-0.8065,-0.791,-0.6845,-0.8207,-0.7808,-0.6168,-0.3357,-0.3473,-0.4263,-0.1009,-0.2132,-0.4159,-0.1009,0.0,0.0,0.0,0.0,0.0,0.0,0.0,0.0,0.0,0.0,0.0,0.0,0.0,0.0,0.0,0.0,0.0,0.0,0.0,0.0,0.0,0.0,0.0,0.0,0.0,0.0,0.0,0.0,0.0,0.0,0.0,0.0,0.0,0.0,0.0,0.0,0.0,0.0,0.0,0.0,0.0,0.0,0.0,0.0,0.0,0.0,0.0,0.0,0.0,0.0,0.0,0.0,0.0,0.0,0.0,0.0,0.0,0.0,0.0,0.0,0.0,0.0,0.0,0.0,0.0,0.0,0.0,0.0,0.0,0.0,0.0,0.0,0.0,0.0,0.0,0.0,0.0,0.0,0.0,0.0,-0.8048,-0.8048,-0.8048,-0.8048,-0.8045,-0.8045,-0.8048,-0.7969,-0.8049,-0.8279,-0.8299,0.0,0.0,0.0,0.0,-0.8525,-0.8632,-0.657,-0.3723,-0.7485,-0.7413,-0.5373,-0.6969,-0.7541,-0.686,-0.1793,0.0,0.0,0.0,0.0,0.0,0.0,0.0,0.0,0.0,0.0,0.0,0.0,0.0,0.0,0.0,0.0,0.0,0.0,0.0,0.0,0.0,0.0,0.0,0.0,0.0,0.0,0.0,0.0,0.0,0.0,0.0,0.0,0.0,0.0,0.0,0.0,0.0,0.0,0.0,0.0,0.0,0.0,0.0,0.0,0.0,0.0,0.0,0.0,0.0,0.0,0.0,0.0,0.0,0.0,0.0,0.0,0.0,0.0,0.0,0.0,0.0,0.0,0.0,0.0,0.0,0.0,0.0,0.0,0.0,0.0,0.0,0.0,0.0,0.0,0.0,0.0,0.0,0.0,0.0,0.0,0.0,0.0,0.0,0.0,0.0,0.0,-0.7982,-0.7982,-0.7982,-0.7982,-0.7972,-0.7972,-0.7982,-0.8008,-0.7975,-0.8107,-0.8428,-0.8574,0.0,0.0,-0.8689,-0.8843,-0.8863,-0.5582,-0.1113,-0.6748,-0.8581,-0.7653,-0.3026,-0.1345,-0.1233,-0.0336,0.0,0.0,0.0,0.0,0.0,0.0,0.0,0.0,0.0,0.0,0.0,0.0,0.0,0.0,0.0,0.0,0.0,0.0,0.0,0.0,0.0,0.0,0.0,0.0,0.0,0.0,0.0,0.0,0.0,0.0,0.0,0.0,0.0,0.0,0.0,0.0,0.0,0.0,0.0,0.0,0.0,0.0,0.0,0.0,0.0,0.0,0.0,0.0,0.0,0.0,0.0,0.0,0.0,-0.5986,0.0,0.0,0.0,0.0,0.0,0.0,0.0,0.0,0.0,0.0,0.0,0.0,0.0,0.0,0.0,0.0,0.0,0.0,0.0,0.0,0.0,0.0,0.0,0.0,0.0,0.0,0.0,0.0,0.0,0.0,0.0,0.0,0.0,-0.5839,-0.6556,-0.8009,-0.7981,-0.7283,-0.5826,-0.5875,-0.5855,-0.5861,-0.6013,-0.7086,-0.8575,0.0,-0.5558,-0.4375,-0.7541,-0.5386,-0.0224,-0.303,-0.4042,-0.3814,-0.1009,0.0,0.0,0.0,0.0,0.0,0.0,0.0,0.0,0.0,0.0,0.0,0.0,0.0,0.0,0.0,0.0,0.0,0.0,0.0,0.0,0.0,0.0,0.0,0.0,0.0,0.0,0.0,0.0,0.0,0.0,0.0,0.0,0.0,0.0,0.0,0.0,0.0,0.0,0.0,0.0,0.0,0.0,0.0,0.0,0.0,0.0,0.0,0.0,0.0,0.0,0.0,0.0,0.0,0.0,0.0,0.0,-0.603,-0.6169,0.0,0.0,0.0,0.0,0.0,0.0,0.0,0.0,0.0,0.0,0.0,0.0,0.0,0.0,0.0,0.0,0.0,0.0,0.0,0.0,0.0,0.0,0.0,0.0,0.0,0.0,0.0,0.0,0.0,0.0,0.0,0.0,-0.372,-0.5258,-0.7981,-0.7991,-0.6344,-0.31,-0.3023,-0.3079,-0.3052,-0.3062,-0.4422,-0.6746,-0.5942,-0.347,-0.0336,-0.4938,-0.4151,0.0,0.0,0.0,0.0,0.0,0.0,0.0,0.0,0.0,0.0,0.0,0.0,0.0,0.0,0.0,0.0,0.0,0.0,0.0,0.0,0.0,0.0,0.0,0.0,0.0,0.0,0.0,0.0,0.0,0.0,0.0,0.0,0.0,0.0,0.0,0.0,0.0,0.0,0.0,0.0,0.0,0.0,0.0,0.0,0.0,0.0,0.0,0.0,0.0,0.0,0.0,0.0,0.0,0.0,0.0,0.0,0.0,0.0,0.0,0.0,0.0,-0.6162,-0.6251,0.0,0.0,0.0,0.0,0.0,0.0,0.0,0.0,0.0,0.0,0.0,0.0,0.0,0.0,0.0,0.0,0.0,0.0,0.0,0.0,0.0,0.0,0.0,0.0,0.0,0.0,0.0,0.0,0.0,0.0,0.0,0.0,0.0,-0.5315,-0.7946,-0.7959,-0.5421,-0.0312,-0.0322,-0.0328,-0.0329,-0.0333,-0.0447,-0.0897,-0.6293,-0.5276,-0.0,-0.0448,-0.0336,0.0,0.0,0.0,0.0,0.0,0.0,0.0,0.0,0.0,0.0,0.0,0.0,0.0,0.0,0.0,0.0,0.0,0.0,0.0,0.0,0.0,0.0,0.0,0.0,0.0,0.0,0.0,0.0,0.0,0.0,0.0,0.0,0.0,0.0,0.0,0.0,0.0,0.0,0.0,0.0,0.0,0.0,0.0,0.0,0.0,0.0,0.0,0.0,0.0,0.0,0.0,0.0,0.0,0.0,0.0,0.0,0.0,0.0,0.0,0.0,0.0,-0.6203,-0.6268,-0.6271,0.0,0.0,0.0,0.0,0.0,0.0,0.0,0.0,0.0,0.0,0.0,0.0,0.0,0.0,0.0,0.0,0.0,0.0,0.0,0.0,0.0,0.0,0.0,0.0,0.0,0.0,0.0,0.0,0.0,0.0,0.0,0.0,-0.204,-0.3014,-0.305,-0.2019,0.0,0.0,0.0,0.0,0.0,0.0,-0.0112,-0.2354,-0.2129,0.0,0.0,0.0,0.0,0.0,0.0,0.0,0.0,0.0,0.0,0.0,0.0,0.0,0.0,0.0,0.0,0.0,0.0,0.0,0.0,0.0,0.0,0.0,0.0,0.0,0.0,0.0,0.0,0.0,0.0,0.0,0.0,0.0,0.0,0.0,0.0,0.0,0.0,0.0,0.0,0.0,0.0,0.0,0.0,0.0,0.0,0.0,0.0,0.0,0.0,0.0,0.0,0.0,0.0,0.0,0.0,0.0,0.0,0.0,0.0,0.0,0.0,0.0,0.0,-0.6224,-0.6274,-0.6122,-0.5476,0.0,0.0,0.0,0.0,0.0,0.0,0.0,0.0,0.0,0.0,0.0,0.0,0.0,0.0,0.0,0.0,0.0,0.0,0.0,0.0,0.0,0.0,0.0,0.0,0.0,0.0,0.0,0.0,0.0,0.0,0.0,0.0,0.0,0.0,0.0,0.0,0.0,0.0,0.0,0.0,0.0,0.0,0.0,0.0,0.0,0.0,0.0,0.0,0.0,0.0,0.0,0.0,0.0,0.0,0.0,0.0,0.0,0.0,0.0,0.0,0.0,0.0,0.0,0.0,0.0,0.0,0.0,0.0,0.0,0.0,0.0,0.0,0.0,0.0,0.0,0.0,0.0,0.0,0.0,0.0,0.0,0.0,0.0,0.0,0.0,0.0,0.0,0.0,0.0,0.0,0.0,0.0,0.0,0.0,0.0,0.0,0.0,0.0,0.0,0.0,0.0,0.0,0.0,0.0,0.0,0.0,0.0,0.0,-0.6237,-0.6285,-0.5814,0.0,0.0,0.0,0.0,0.0,0.0,0.0,0.0,0.0,0.0,0.0,0.0,0.0,0.0,0.0,0.0,0.0,0.0,0.0,0.0,0.0,0.0,0.0,0.0,0.0,0.0,0.0,0.0,0.0,0.0,0.0,0.0,0.0,0.0,0.0,0.0,0.0,0.0,0.0,0.0,0.0,0.0,0.0,0.0,0.0,0.0,0.0,0.0,0.0,0.0,0.0,0.0,0.0,0.0,0.0,0.0,0.0,0.0,0.0,0.0,0.0,0.0,0.0,0.0,0.0,0.0,0.0,0.0,0.0,0.0,0.0,0.0,0.0,0.0,0.0,0.0,0.0,0.0,0.0,0.0,0.0,0.0,0.0,0.0,0.0,0.0,0.0,0.0,0.0,0.0,0.0,0.0,0.0,0.0,0.0,0.0,0.0,0.0,0.0,0.0,0.0,0.0,0.0,0.0,0.0,0.0,0.0,0.0,0.0,-0.445,0.0,0.0,0.0,0.0,0.0,0.0,0.0,0.0,0.0,0.0,0.0,0.0,0.0,0.0,0.0,0.0,0.0,0.0,0.0,0.0,0.0,0.0,0.0,0.0,0.0,0.0,0.0,0.0,0.0,0.0,0.0,0.0,0.0,0.0,0.0,0.0,0.0,0.0,0.0,0.0,0.0,0.0,0.0,0.0,0.0,0.0,0.0,0.0,0.0,0.0,0.0,0.0,0.0,0.0,0.0,0.0,0.0,0.0,0.0,0.0,0.0,0.0,0.0,0.0,0.0,0.0,0.0,0.0,0.0,0.0,0.0,0.0,0.0,0.0,0.0,0.0,0.0,0.0,0.0,0.0,0.0,0.0,0.0,0.0,0.0,0.0,0.0,0.0,0.0,0.0,0.0,0.0,0.0,0.0,0.0,0.0,0.0,0.0,0.0,0.0,0.0,0.0,0.0,0.0,0.0,0.0,0.0,0.0,0.0,0.0,0.0,0.0,0.0,0.0,0.0,0.0,0.0,0.0,0.0,0.0,0.0,0.0,0.0,0.0,0.0,0.0,0.0,0.0,0.0,0.0,0.0,0.0,0.0,0.0,0.0,0.0,0.0,0.0,0.0,0.0,0.0,0.0,0.0,0.0,0.0,0.0,0.0,0.0,0.0,0.0,0.0,0.0,0.0,0.0,0.0,0.0,0.0,0.0,0.0,0.0,0.0,0.0,0.0,0.0,0.0,0.0,0.0,0.0,0.0,0.0,0.0,0.0,0.0,0.0,0.0,0.0,0.0,0.0,0.0,0.0,0.0,0.0,0.0,0.0,0.0,0.0,0.0,0.0,0.0,0.0,0.0,0.0,0.0,0.0,0.0,0.0,0.0,0.0,0.0,0.0,0.0,0.0,0.0,0.0,0.0,0.0,0.0,0.0,0.0,0.0,0.0,0.0,0.0,0.0,0.0,0.0,0.0,0.0,0.0,0.0,0.0,0.0,0.0,0.0,0.0,0.0,0.0,0.0,0.0,0.0,0.0,0.0,0.0,0.0,0.0,0.0,0.0,0.0,0.0,0.0,0.0,0.0,0.0,0.0,0.0,0.0,0.0,0.0,0.0,0.0,0.0,0.0,0.0,0.0,0.0,0.0,0.0,0.0,0.0,0.0,0.0,0.0,0.0,0.0,0.0,0.0,0.0,0.0,0.0,0.0,0.0,0.0,0.0,0.0,0.0,0.0,0.0,0.0,0.0,0.0,0.0,0.0,0.0,0.0,0.0,0.0,0.0,0.0,0.0,0.0,0.0,0.0,0.0,0.0,0.0,0.0,0.0,0.0,0.0,0.0,0.0,0.0,0.0,0.0,0.0,0.0,0.0,0.0,0.0,0.0,0.0,0.0,0.0,0.0,0.0,0.0,0.0,0.0,0.0,0.0,0.0,0.0,0.0,0.0,0.0,0.0,0.0,0.0,0.0,0.0,0.0,0.0,0.0,0.0,0.0,0.0,0.0,0.0,0.0,0.0,0.0,0.0,0.0,0.0,0.0,0.0,0.0,0.0,0.0,0.0,0.0,0.0,0.0,0.0,0.0,0.0,0.0,0.0,0.0,0.0,0.0,0.0,0.0,0.0,0.0,0.0,0.0,0.0,0.0,0.0,0.0,0.0,0.0,0.0,0.0,0.0,0.0,0.0,0.0,0.0,0.0,0.0,0.0,0.0,0.0,0.0,0.0,0.0,0.0,0.0,0.0,0.0,0.0,0.0,0.0,0.0,0.0,0.0,0.0,0.0,0.0,0.0,0.0,0.0,0.0,0.0,0.0,0.0,0.0,0.0,0.0,0.0,0.0,0.0,0.0,0.0,0.0,0.0,0.0,0.0,0.0,0.0,0.0,0.0,0.0,0.0,0.0,0.0,0.0,0.0,0.0,0.0,0.0,0.0,0.0,0.0,0.0,0.0,0.0,0.0,0.0,0.0,0.0,0.0,0.0,0.0,0.0,0.0,0.0,0.0,0.0,0.0,0.0,0.0,0.0,0.0,0.0,0.0,0.0,0.0,0.0,0.0,0.0,0.0,0.0,0.0,0.0,0.0,0.0,0.0,0.0,0.0,0.0,0.0,0.0,0.0,0.0,0.0,0.0,0.0,0.0,0.0,0.0,0.0,0.0,0.0,0.0,0.0,0.0,0.0,0.0,0.0,0.0,0.0,0.0,0.0,0.0,0.0,0.0,0.0,0.0,0.0,0.0,0.0,0.0,0.0,0.0,0.0,0.0,0.0,0.0,0.0,0.0,0.0,0.0,0.0,0.0,0.0,0.0,0.0,0.0,0.0,0.0,0.0,0.0,0.0,0.0,0.0,0.0,0.0,0.0,0.0,0.0,0.0,0.0,0.0,0.0,0.0,0.0,0.0,0.0,0.0,0.0,0.0,0.0,0.0,0.0,0.0,0.0,0.0,0.0,0.0,0.0,0.0,0.0,0.0,0.0,0.0,0.0,0.0,0.0,0.0,0.0,0.0,0.0,0.0,0.0,0.0,0.0,0.0,0.0,0.0,0.0,0.0,0.0,0.0,0.0,0.0,0.0,0.0,0.0,0.0,0.0,0.0,0.0,0.0,0.0,0.0,0.0,0.0,0.0,0.0,0.0,0.0,0.0,0.0,0.0,0.0,0.0,0.0,0.0,0.0,0.0,0.0,0.0,0.0,0.0,0.0,0.0,0.0,0.0,0.0,0.0,0.0,0.0,0.0,0.0,0.0,0.0,0.0,0.0,0.0,0.0,0.0,0.0,0.0,0.0,0.0,0.0,0.0,0.0,0.0,0.0,0.0,0.0,0.0,0.0,0.0,0.0,0.0,0.0,0.0,0.0,0.0,0.0,0.0,0.0,0.0,0.0,0.0,0.0,0.0,0.0,0.0,0.0,0.0,0.0,0.0,0.0,0.0,0.0,0.0,0.0,0.0,0.0,0.0,0.0,0.0,0.0,0.0,0.0,0.0,0.0,0.0,0.0,0.0,0.0,0.0,0.0,0.0,0.0,0.0,0.0,0.0,0.0,0.0,0.0,0.0,0.0,0.0,0.0,0.0,0.0,0.0,0.0,0.0,0.0,0.0,0.0,0.0,0.0,0.0,0.0,0.0,0.0,0.0,0.0,0.0,0.0,0.0,0.0,0.0,0.0,0.0,0.0,0.0,0.0,0.0,0.0,0.0,0.0,0.0,0.0,0.0,0.0,0.0,0.0,0.0,0.0,0.0,0.0,0.0,0.0,0.0,0.0,0.0,0.0,0.0,0.0,0.0,0.0,0.0,0.0,0.0,0.0,0.0,0.0,0.0,0.0,0.0,0.0,0.0,0.0,0.0,0.0,0.0,0.0,0.0,0.0,0.0,0.0,0.0,0.0,0.0,0.0,0.0,0.0,0.0,0.0,0.0,0.0,0.0,0.0,0.0,0.0,0.0,0.0,0.0,0.0,0.0,0.0,0.0,0.0,0.0,0.0,0.0,0.0,0.0,0.0,0.0,0.0,0.0,0.0,0.0,0.0,0.0,0.0,0.0,0.0,0.0,0.0,0.0,0.0,0.0,0.0,0.0,0.0,0.0,0.0,0.0,0.0,0.0,0.0,0.0,0.0,0.0,0.0,0.0,0.0,0.0,0.0,0.0,0.0,0.0,0.0,0.0,0.0,0.0,0.0,0.0,0.0,0.0,0.0,0.0,0.0,0.0,0.0,0.0,0.0,0.0,0.0,0.0,0.0,0.0,0.0,0.0,0.0,0.0,0.0,0.0,0.0,0.0,0.0,0.0,0.0,0.0,0.0,0.0,0.0,0.0,0.0,0.0,0.0,0.0,0.0,0.0,0.0,0.0,0.0,0.0,0.0,0.0,0.0,0.0,0.0,0.0,0.0,0.0,0.0,0.0,0.0,0.0,0.0,0.0,0.0,0.0,0.0,0.0,0.0,0.0,0.0,0.0,0.0,0.0,0.0,0.0,0.0,0.0,0.0,0.0,0.0,0.0,0.0,0.0,0.0,0.0,0.0,0.0,0.0,0.0,0.0,0.0,0.0,0.0,0.0,0.0,0.0,0.0,0.0,0.0,0.0,0.0,0.0,0.0,0.0,0.0,0.0,0.0,0.0,0.0,0.0,0.0,0.0,0.0,0.0,0.0,0.0,0.0,0.0,0.0,0.0,0.0,0.0,0.0,0.0,0.0,0.0,0.0,0.0,0.0,0.0,0.0,0.0,0.0,0.0,0.0,0.0,0.0,0.0,0.0,0.0,0.0,0.0,0.0,0.0,0.0,0.0,0.0,0.0,0.0,0.0,0.0,0.0,0.0,0.0,0.0,0.0,0.0,0.0,0.0,0.0,0.0,0.0,0.0,0.0,0.0,0.0,0.0,0.0,0.0,0.0,0.0,0.0,0.0,0.0,0.0,0.0,0.0,0.0,0.0,0.0,0.0,0.0,0.0,0.0,0.0,0.0,0.0,0.0,0.0,0.0,0.0,0.0,0.0,0.0,0.0,0.0,0.0,0.0,0.0,0.0,0.0,0.0,0.0,0.0,0.0,0.0,0.0,0.0,0.0,0.0,0.0,0.0,0.0,0.0,0.0,0.0,0.0,0.0,0.0,0.0,0.0,0.0,0.0,0.0,0.0,0.0,0.0,0.0,0.0,0.0,0.0,0.0,0.0,0.0,0.0,0.0,0.0,0.0,0.0,0.0,0.0,0.0,0.0,0.0,0.0,0.0,0.0,0.0,0.0,0.0,0.0,0.0,0.0,0.0,0.0,0.0,0.0,0.0,0.0,0.0,0.0,0.0,0.0,0.0,0.0,0.0,0.0,0.0,0.0,0.0,0.0,0.0,0.0,0.0,0.0,0.0,0.0,0.0,0.0,0.0,0.0,0.0,0.0,0.0,0.0,0.0,0.0,0.0,0.0,0.0,0.0,0.0,0.0,0.0,0.0,0.0,0.0,0.0,0.0,0.0,0.0,0.0,0.0,0.0,0.0,0.0,0.0,0.0,0.0,0.0,0.0,0.0,0.0,0.0,0.0,0.0,0.0,0.0,0.0,0.0,0.0,0.0,0.0,0.0,0.0,0.0,0.0,0.0,0.0,0.0,0.0,0.0,0.0,0.0,0.0,0.0,0.0,0.0,0.0,0.0,0.0,0.0,0.0,0.0,0.0,0.0,0.0,0.0,0.0,0.0,0.0,0.0,0.0,0.0,0.0,0.0,0.0,0.0,0.0,0.0,0.0,0.0,0.0,0.0,0.0,0.0,0.0,0.0,0.0,0.0,0.0,0.0,0.0,0.0,0.0,0.0,0.0,0.0,0.0,0.0,0.0,0.0,0.0,0.0,0.0,0.0,0.0,0.0,0.0,0.0,0.0,0.0,0.0,0.0,0.0,0.0,0.0,0.0,0.0,0.0,0.0,0.0,0.0,0.0,0.0,0.0,0.0,0.0,0.0,0.0,0.0,0.0,0.0,0.0,0.0,0.0,0.0,0.0,0.0,0.0,0.0,0.0,0.0,0.0,0.0,0.0,0.0,0.0,0.0,0.0,0.0,0.0,0.0,0.0,0.0,0.0,0.0,0.0,0.0,0.0,0.0,0.0,0.0,0.0,0.0,0.0,0.0,0.0,0.0,0.0,0.0,0.0,0.0,0.0,0.0,0.0,0.0,0.0,0.0,0.0,0.0,0.0,0.0,0.0,0.0,0.0,0.0,0.0,0.0,0.0,0.0,0.0,0.0,0.0,0.0,0.0,0.0,0.0,0.0,0.0,0.0,0.0,0.0,0.0,0.0,0.0,0.0,0.0,0.0,0.0,0.0,0.0,0.0,0.0,0.0,0.0,0.0,0.0,0.0,0.0,0.0,0.0,0.0,0.0,0.0,0.0,0.0,0.0,0.0,0.0,0.0,0.0,0.0,0.0,0.0,0.0,0.0,0.0,0.0,0.0,0.0,0.0,0.0,0.0,0.0,0.0,0.0,0.0,0.0,0.0,0.0,0.0,0.0,0.0,0.0,0.0,0.0,0.0,0.0,0.0,0.0,0.0,0.0,0.0,0.0,0.0,0.0,0.0,0.0,0.0,0.0,0.0,0.0,0.0,0.0,0.0,0.0,0.0,0.0,0.0,0.0,0.0,0.0,0.0,0.0,0.0,0.0,0.0,0.0,0.0,0.0,0.0,0.0,0.0,0.0,0.0,0.0,0.0,0.0,0.0,0.0,0.0,0.0,0.0,0.0,0.0,0.0,0.0,0.0,0.0,0.0,0.0,0.0,0.0,0.0,0.0,0.0,0.0,0.0,0.0,0.0,0.0,0.0,0.0,0.0,0.0,0.0,0.0,0.0,0.0,0.0,0.0,0.0,0.0,0.0,0.0,0.0,0.0,0.0,0.0,0.0,0.0,0.0,0.0,0.0,0.0,0.0,0.0,0.0,0.0,0.0,0.0,0.0,0.0,0.0,0.0,0.0,0.0,0.0,0.0,0.0,0.0,0.0,0.0,0.0,0.0,0.0,0.0,0.0,0.0,0.0,0.0,0.0,0.0,0.0,0.0,0.0,0.0,0.0,0.0,0.0,0.0,0.0,0.0,0.0,0.0,0.0,0.0,0.0,0.0,0.0,0.0,0.0,0.0,0.0,0.0,0.0,0.0,0.0,0.0,0.0,0.0,0.0,0.0,0.0,0.0,0.0,0.0,0.0,0.0,0.0,0.0,0.0,0.0,0.0,0.0,0.0,0.0,0.0,0.0,0.0,0.0,0.0,0.0,0.0,0.0,0.0,0.0,0.0,0.0,0.0,0.0,0.0,0.0,0.0,0.0,0.0,0.0,0.0,0.0,0.0,0.0,0.0,0.0,0.0,0.0,0.0,0.0,0.0,0.0,0.0,0.0,0.0,0.0,0.0,0.0,0.0,0.0,0.0,0.0,0.0,0.0,0.0,0.0,0.0,0.0,0.0,0.0,0.0,0.0,0.0,0.0,0.0,0.0,0.0,0.0,0.0,0.0,0.0,0.0,0.0,0.0,0.0,0.0,0.0,0.0,0.0,0.0,0.0,0.0,0.0,0.0,0.0,0.0,0.0,0.0,0.0,0.0,0.0,0.0,0.0,0.0,0.0,0.0,0.0,0.0,0.0,0.0,0.0,0.0,0.0,0.0,0.0,0.0,0.0,0.0,0.0,0.0,0.0,0.0,0.0,0.0,0.0,0.0,0.0,0.0,0.0,0.0,0.0,0.0,0.0,0.0,0.0,0.0,0.0,0.0,0.0,0.0,0.0,0.0,0.0,0.0,0.0,0.0,0.0,0.0,0.0,0.0,0.0,0.0,0.0,0.0,0.0,0.0,0.0,0.0,0.0,0.0,0.0,0.0,0.0,0.0,0.0,0.0,0.0,0.0,0.0,0.0,0.0,0.0,0.0,0.0,0.0,0.0,0.0,0.0,0.0,0.0,0.0,0.0,0.0,0.0,0.0,0.0,0.0,0.0,0.0,0.0,0.0,0.0,0.0,0.0,0.0,0.0,0.0,0.0,0.0,0.0,0.0,0.0,0.0,0.0,0.0,0.0,0.0,0.0,0.0,0.0,0.0,0.0,0.0,0.0,0.0,0.0,0.0,0.0,0.0,0.0,0.0,0.0,0.0,0.0,0.0,0.0,0.0,0.0,0.0,0.0,0.0,0.0,0.0,0.0,0.0,0.0,0.0,0.0,0.0,0.0,0.0,0.0,0.0,0.0,0.0,0.0,0.0,0.0,0.0,0.0,0.0,0.0,0.0,0.0,0.0,0.0,0.0,0.0,0.0,0.0,0.0,0.0,0.0,0.0,0.0,0.0,0.0,0.0,0.0,0.0,0.0,0.0,0.0,0.0,0.0,0.0,0.0,0.0,0.0,0.0,0.0,0.0,0.0,0.0,0.0,0.0,0.0,0.0,0.0,0.0,0.0,0.0,0.0,0.0,0.0,0.0,0.0,0.0,0.0,0.0,0.0,0.0,0.0,0.0,0.0,0.0,0.0,0.0,0.0,0.0,0.0,0.0,0.0,0.0,0.0,0.0,0.0,0.0,0.0,0.0,0.0,0.0,0.0,0.0,0.0,0.0,0.0,0.0,0.0,0.0,0.0,0.0,0.0,0.0,0.0,0.0,0.0,0.0,0.0,0.0,0.0,0.0,0.0,0.0,0.0,0.0,0.0,0.0,0.0,0.0,0.0,0.0,0.0,0.0,0.0,0.0,0.0,0.0,0.0,0.0,0.0,0.0,0.0,0.0,0.0,0.0,0.0,0.0,0.0,0.0,0.0,0.0,0.0,0.0,0.0,0.0,0.0,0.0,0.0,0.0,0.0,0.0,0.0,0.0,0.0,0.0,0.0,0.0,0.0,0.0,0.0,0.0,0.0,0.0,0.0,0.0,0.0,0.0,0.0,0.0,0.0,0.0,0.0,0.0,0.0,0.0,0.0,0.0,0.0,0.0,0.0,0.0,0.0,0.0,0.0,0.0,0.0,0.0,0.0,0.0,0.0,0.0,0.0,0.0,0.0,0.0,0.0,0.0,0.0,0.0,0.0,0.0,0.0,0.0,0.0,0.0,0.0,0.0,0.0,0.0,0.0,0.0,0.0,0.0,0.0,0.0,0.0,0.0,0.0,0.0,0.0,0.0,0.0,0.0,0.0,0.0,0.0,0.0,0.0,0.0,0.0,0.0,0.0,0.0,0.0,0.0,0.0,0.0,0.0,0.0,0.0,0.0,0.0,0.0,0.0,0.0,0.0,0.0,0.0,0.0,0.0,0.0,0.0,0.0,0.0,0.0,0.0,0.0,0.0,0.0,0.0,0.0,0.0,0.0,0.0,0.0,0.0,0.0,0.0,0.0,0.0,0.0,0.0,0.0,0.0,0.0,0.0,0.0,0.0,0.0,0.0,0.0,0.0,0.0,0.0,0.0,0.0,0.0,0.0,0.0,0.0,0.0,0.0,0.0,0.0,0.0,0.0,0.0,0.0,0.0,0.0,0.0,0.0,0.0,0.0,0.0,0.0,0.0,0.0,0.0,0.0,0.0,0.0,0.0,0.0,0.0,0.0,0.0,0.0,0.0,0.0,0.0,0.0,0.0,0.0,0.0,0.0,0.0,0.0,0.0,0.0,0.0,0.0,0.0,0.0,0.0,0.0,0.0,0.0,0.0,0.0,0.0,0.0,0.0,0.0,0.0,0.0,0.0,0.0,0.0,0.0,0.0,0.0,0.0,0.0,0.0,0.0,0.0,0.0,0.0,0.0,0.0,0.0,0.0,0.0,0.0,0.0,0.0,0.0,0.0,0.0,0.0,0.0,0.0,0.0,0.0,0.0,0.0,0.0,0.0,0.0,0.0,0.0,0.0,0.0,0.0,0.0,0.0,0.0,0.0,0.0,0.0,0.0,0.0,0.0,0.0,0.0,0.0,0.0,0.0,0.0,0.0,0.0,0.0,0.0,0.0,0.0,0.0,0.0,0.0,0.0,0.0,0.0,0.0,0.0,0.0,0.0,0.0,0.0,0.0,0.0,0.0,0.0,0.0,0.0,0.0,0.0,0.0,0.0,0.0,0.0,0.0,0.0,0.0,0.0,0.0,0.0,0.0,0.0,0.0,0.0,0.0,0.0,0.0,0.0,0.0,0.0,0.0,0.0,0.0,0.0,0.0,0.0,0.0,0.0,0.0,0.0,0.0,0.0,0.0,0.0,0.0,0.0,0.0,0.0,0.0,0.0,0.0,0.0,0.0,0.0,0.0,0.0,0.0,0.0,0.0,0.0,0.0,0.0,0.0,0.0,0.0,0.0,0.0,0.0,0.0,0.0,0.0,0.0,0.0,0.0,0.0,0.0,0.0,0.0,0.0,0.0,0.0,0.0,0.0,0.0,0.0,0.0,0.0,0.0,0.0,0.0,0.0,0.0,0.0,0.0,0.0,0.0,0.0,0.0,0.0,0.0,0.0,0.0,0.0,0.0,0.0,0.0,0.0,0.0,0.0,0.0,0.0,0.0,0.0,0.0,0.0,0.0,0.0,0.0,0.0,0.0,0.0,0.0,0.0,0.0,0.0,0.0,0.0,0.0,0.0,0.0,0.0,0.0,0.0,0.0,0.0,0.0,0.0,0.0,0.0,0.0,0.0,0.0,0.0,0.0,0.0,0.0,0.0,0.0,0.0,0.0,0.0,0.0,0.0,0.0,0.0,0.0,0.0,0.0,0.0,0.0,0.0,0.0,0.0,0.0,0.0,0.0,0.0,0.0,0.0,0.0,0.0,0.0,0.0,0.0,0.0,0.0,0.0,0.0,0.0,0.0,0.0,0.0,0.0,0.0,0.0,0.0,0.0,0.0,0.0,0.0,0.0,0.0,0.0,0.0,0.0,0.0,0.0,0.0,0.0,0.0,0.0,0.0,0.0,0.0,0.0,0.2412,0.0,0.0,0.0,0.0,0.0,0.0,0.0,0.0,0.0,0.0,0.0,0.0,0.0,0.0,0.0,0.0,0.0,0.0,0.0,0.0,0.0,0.0,0.0,0.0,0.0,0.0,0.0,0.0,0.0,0.0,0.0,0.0,0.0,0.0,0.0,0.0,0.0,0.0,0.0,0.0,0.0,0.0,0.0,0.0,0.0,0.0,0.0,0.0,0.0,0.0,0.0,0.0,0.0,0.0,0.0,0.0,0.0,0.0,0.0,0.0,0.0,0.0,0.0,0.0,0.0,0.0,0.0,0.0,0.0,0.0,0.0,0.0,0.0,0.0,0.0,0.0,0.0,0.0,0.0,0.0,0.0,0.0,0.0,0.0,0.0,0.0,0.0,0.0,0.0,0.0,0.0,0.0,0.0,0.0,0.0,0.0,0.0,0.0,0.0,0.0,0.0,0.0,0.0,0.0,0.0,0.0,0.0,0.0,0.0,0.0,0.0,0.0,0.0,0.0,0.6281,0.0,0.0,0.0,0.0,0.0,0.0,0.0,0.0,0.0,0.0,0.0,0.0,0.0,0.0,0.0,0.0,0.0,0.0,0.0,0.0,0.0,0.0,0.0,0.0,0.0,0.0,0.0,0.0,0.0,0.0,0.0,0.0,0.0,0.0,0.0,0.0,0.0,0.0,0.0,0.0,0.0,0.0,0.0,0.0,0.0,0.0,0.0,0.0,0.0,0.0,0.0,0.0,0.0,0.0,0.0,0.0,0.0,0.0,0.0,0.0,0.0,0.0,0.0,0.0,0.0,0.0,0.0,0.0,0.0,0.0,0.0,0.0,0.0,0.0,0.0,0.0,0.0,0.0,0.0,0.0,0.0,0.0,0.0,0.0,0.0,0.0,0.0,0.0,0.0,0.0,0.0,0.0,0.0,0.0,0.0,0.0,0.0,0.0,0.0,0.0,0.0,0.0,0.0,0.0,0.0,0.0,0.0,0.0,0.0,0.0,0.6074,0.6913,0.0,0.0,0.0,0.0,0.0,0.0,0.0,0.0,0.0,0.0,0.0,0.0,0.0,0.0,0.0,0.0,0.0,0.0,0.0,0.0,0.0,0.0,0.0,0.0,0.0,0.0,0.0,0.0,0.0,0.0,0.0,0.0,0.0,0.0,0.0,0.0,0.0,0.0,0.0,0.0,0.0,0.0,0.0,0.0,0.0,0.0,0.0,0.0,0.0,0.0,0.0,0.0,0.0,0.0,0.0,0.0,0.0,0.0,0.0,0.0,0.0,0.0,0.0,0.0,0.0,0.0,0.0,0.0,0.0,0.0,0.0,0.0,0.0,0.0,0.0,0.0,0.0,0.0,0.0,0.0,0.0,0.0,0.0,0.0,0.0,0.0,0.0,0.0,0.0,0.0,0.0,0.0,0.0,0.0,0.0,0.0,0.0,0.0,0.0,0.0,0.0,0.0,0.0,0.0,0.0,0.0,0.0,0.0,0.7071,0.7064,0.0,0.7148,0.7165,0.0,0.5289,0.0,0.0,0.0,0.0,0.0,0.0,0.0,0.0,0.0,0.0,0.0,0.0,0.0,0.0,0.0,0.0,0.0,0.0,0.0,0.0,0.0,0.0,0.0,0.0,0.0,0.0,0.0,0.0,0.0,0.0,0.0,0.0,0.0,0.0,0.0,0.0,0.0,0.0,0.0,0.0,0.0,0.0,0.0,0.0,0.0,0.0,0.0,0.0,0.0,0.0,0.0,0.0,0.0,0.0,0.0,0.0,0.0,0.0,0.0,0.0,0.0,0.0,0.0,0.0,0.0,0.0,0.0,0.0,0.0,0.0,0.0,0.0,0.0,0.0,0.0,0.0,0.0,0.0,0.0,0.0,0.0,0.0,0.0,0.0,0.0,0.0,0.0,0.0,0.0,0.0,0.0,0.0,0.0,0.0,0.0,0.0,0.0,0.0,0.0,0.0,0.0,0.0,0.0,0.0,0.0]}]]